<?xml version="1.0" encoding="UTF-8"?>
<gpx version="1.1" creator="https://www.youtrack.es" xsi:schemaLocation="http://www.topografix.com/GPX/1/1 http://www.topografix.com/GPX/1/1/gpx.xsd http://www.garmin.com/xmlschemas/GpxExtensions/v3 http://www.garmin.com/xmlschemas/GpxExtensionsv3.xsd http://www.garmin.com/xmlschemas/TrackPointExtension/v1 http://www.garmin.com/xmlschemas/TrackPointExtensionv1.xsd" xmlns:gpxtpx="http://www.garmin.com/xmlschemas/TrackPointExtension/v1" xmlns:gpxx="http://www.garmin.com/xmlschemas/GpxExtensions/v3" xmlns:xsi="http://www.w3.org/2001/XMLSchema-instance">
  <metadata>
    <author>
      <name>Tania Correa</name>
      <email id="taniacorrea" domain="gmail.com"/>
    </author>
    <link href="https://www.youtrack.es">
      <text>YouTrack.es</text>
    </link>
    <time>2026-05-08T14:45:06Z</time>
  </metadata>
  <trk>
    <src>https://www.youtrack.es</src>
    <link href="https://www.youtrack.es/ruta/17907-laguna-los-patos">
      <text>YouTrack.es</text>
    </link>
    <trkseg>
      <trkpt lat="-33.61753424629569" lon="-69.9098691623658">
        <ele>2973.8</ele>
        <time>2020-12-05T14:55:16.000Z</time>
      </trkpt>
      <trkpt lat="-33.61753634177148" lon="-69.90985801443458">
        <ele>2973.6</ele>
        <time>2020-12-05T14:55:17.000Z</time>
      </trkpt>
      <trkpt lat="-33.61752284690738" lon="-69.90977168083191">
        <ele>2974</ele>
        <time>2020-12-05T14:55:21.000Z</time>
      </trkpt>
      <trkpt lat="-33.617514381185174" lon="-69.90967461839318">
        <ele>2974</ele>
        <time>2020-12-05T14:55:29.000Z</time>
      </trkpt>
      <trkpt lat="-33.61749644391239" lon="-69.90966321900487">
        <ele>2974.4</ele>
        <time>2020-12-05T14:55:32.000Z</time>
      </trkpt>
      <trkpt lat="-33.61748680472374" lon="-69.90965517237782">
        <ele>2974.6</ele>
        <time>2020-12-05T14:55:34.000Z</time>
      </trkpt>
      <trkpt lat="-33.61747448332608" lon="-69.90962851792574">
        <ele>2974.8</ele>
        <time>2020-12-05T14:55:38.000Z</time>
      </trkpt>
      <trkpt lat="-33.617454366758466" lon="-69.90956984460354">
        <ele>2975.2</ele>
        <time>2020-12-05T14:55:45.000Z</time>
      </trkpt>
      <trkpt lat="-33.61745227128267" lon="-69.90955894812942">
        <ele>2975.2</ele>
        <time>2020-12-05T14:55:46.000Z</time>
      </trkpt>
      <trkpt lat="-33.61743994988501" lon="-69.90950270555913">
        <ele>2976</ele>
        <time>2020-12-05T14:55:52.000Z</time>
      </trkpt>
      <trkpt lat="-33.617430394515395" lon="-69.90949281491339">
        <ele>2976.2</ele>
        <time>2020-12-05T14:55:53.000Z</time>
      </trkpt>
      <trkpt lat="-33.617422096431255" lon="-69.90947244688869">
        <ele>2976.6</ele>
        <time>2020-12-05T14:55:55.000Z</time>
      </trkpt>
      <trkpt lat="-33.617399549111724" lon="-69.90942550823092">
        <ele>2977.4</ele>
        <time>2020-12-05T14:55:59.000Z</time>
      </trkpt>
      <trkpt lat="-33.617381779477" lon="-69.90938628092408">
        <ele>2978</ele>
        <time>2020-12-05T14:56:02.000Z</time>
      </trkpt>
      <trkpt lat="-33.61736996099353" lon="-69.9093525018543">
        <ele>2978.4</ele>
        <time>2020-12-05T14:56:05.000Z</time>
      </trkpt>
      <trkpt lat="-33.6173661891371" lon="-69.90933733060956">
        <ele>2978.6</ele>
        <time>2020-12-05T14:56:07.000Z</time>
      </trkpt>
      <trkpt lat="-33.61734406091273" lon="-69.90929307416081">
        <ele>2979.4</ele>
        <time>2020-12-05T14:56:12.000Z</time>
      </trkpt>
      <trkpt lat="-33.61732134595513" lon="-69.9092660844326">
        <ele>2980</ele>
        <time>2020-12-05T14:56:15.000Z</time>
      </trkpt>
      <trkpt lat="-33.61730860546231" lon="-69.90924999117851">
        <ele>2980.4</ele>
        <time>2020-12-05T14:56:17.000Z</time>
      </trkpt>
      <trkpt lat="-33.61727776005864" lon="-69.90921068005264">
        <ele>2981.4</ele>
        <time>2020-12-05T14:56:22.000Z</time>
      </trkpt>
      <trkpt lat="-33.61727373674512" lon="-69.90920464508235">
        <ele>2981.4</ele>
        <time>2020-12-05T14:56:23.000Z</time>
      </trkpt>
      <trkpt lat="-33.61724096350372" lon="-69.90915125235915">
        <ele>2982.6</ele>
        <time>2020-12-05T14:56:29.000Z</time>
      </trkpt>
      <trkpt lat="-33.617217410355806" lon="-69.90912459790707">
        <ele>2983.2</ele>
        <time>2020-12-05T14:56:34.000Z</time>
      </trkpt>
      <trkpt lat="-33.61719997599721" lon="-69.90908562205732">
        <ele>2983.8</ele>
        <time>2020-12-05T14:56:39.000Z</time>
      </trkpt>
      <trkpt lat="-33.61717910505831" lon="-69.90905033424497">
        <ele>2984.4</ele>
        <time>2020-12-05T14:56:45.000Z</time>
      </trkpt>
      <trkpt lat="-33.61718438565731" lon="-69.90902854129672">
        <ele>2984.4</ele>
        <time>2020-12-05T14:56:48.000Z</time>
      </trkpt>
      <trkpt lat="-33.617193941026926" lon="-69.90899727679789">
        <ele>2984.2</ele>
        <time>2020-12-05T14:56:51.000Z</time>
      </trkpt>
      <trkpt lat="-33.61720726825297" lon="-69.90894287824631">
        <ele>2984.2</ele>
        <time>2020-12-05T14:56:55.000Z</time>
      </trkpt>
      <trkpt lat="-33.617227552458644" lon="-69.90891136229038">
        <ele>2983.8</ele>
        <time>2020-12-05T14:56:58.000Z</time>
      </trkpt>
      <trkpt lat="-33.6172348447144" lon="-69.90888269618154">
        <ele>2983.8</ele>
        <time>2020-12-05T14:57:00.000Z</time>
      </trkpt>
      <trkpt lat="-33.61723970621824" lon="-69.90884078666568">
        <ele>2983.8</ele>
        <time>2020-12-05T14:57:03.000Z</time>
      </trkpt>
      <trkpt lat="-33.617259822785854" lon="-69.90875881165266">
        <ele>2983.6</ele>
        <time>2020-12-05T14:57:12.000Z</time>
      </trkpt>
      <trkpt lat="-33.61727667041123" lon="-69.90875369869173">
        <ele>2983.2</ele>
        <time>2020-12-05T14:57:16.000Z</time>
      </trkpt>
      <trkpt lat="-33.61727423965931" lon="-69.90876509808004">
        <ele>2983.2</ele>
        <time>2020-12-05T14:57:18.000Z</time>
      </trkpt>
      <trkpt lat="-33.61725362017751" lon="-69.9087671097368">
        <ele>2983.8</ele>
        <time>2020-12-05T14:57:25.000Z</time>
      </trkpt>
      <trkpt lat="-33.61725144088268" lon="-69.90876828320324">
        <ele>2983.8</ele>
        <time>2020-12-05T14:57:26.000Z</time>
      </trkpt>
      <trkpt lat="-33.6172472499311" lon="-69.90877859294415">
        <ele>2983.8</ele>
        <time>2020-12-05T14:57:28.000Z</time>
      </trkpt>
      <trkpt lat="-33.617249596863985" lon="-69.90877649746835">
        <ele>2983.8</ele>
        <time>2020-12-05T14:57:32.000Z</time>
      </trkpt>
      <trkpt lat="-33.617249596863985" lon="-69.90877649746835">
        <ele>2983.8</ele>
        <time>2020-12-05T14:57:37.000Z</time>
      </trkpt>
      <trkpt lat="-33.617253536358476" lon="-69.90877649746835">
        <ele>2983.8</ele>
        <time>2020-12-05T14:57:44.000Z</time>
      </trkpt>
      <trkpt lat="-33.61726636067033" lon="-69.90875420160592">
        <ele>2983.4</ele>
        <time>2020-12-05T14:58:02.000Z</time>
      </trkpt>
      <trkpt lat="-33.617275916039944" lon="-69.90874959155917">
        <ele>2983.2</ele>
        <time>2020-12-05T14:58:07.000Z</time>
      </trkpt>
      <trkpt lat="-33.61728647723794" lon="-69.90874959155917">
        <ele>2983</ele>
        <time>2020-12-05T14:58:10.000Z</time>
      </trkpt>
      <trkpt lat="-33.61728974618018" lon="-69.90874883718789">
        <ele>2983</ele>
        <time>2020-12-05T14:58:16.000Z</time>
      </trkpt>
      <trkpt lat="-33.61728974618018" lon="-69.90874883718789">
        <ele>2983</ele>
        <time>2020-12-05T14:58:17.000Z</time>
      </trkpt>
      <trkpt lat="-33.61728974618018" lon="-69.90874883718789">
        <ele>2983</ele>
        <time>2020-12-05T14:58:22.000Z</time>
      </trkpt>
      <trkpt lat="-33.61727281473577" lon="-69.90874565206468">
        <ele>2983.4</ele>
        <time>2020-12-05T14:58:30.000Z</time>
      </trkpt>
      <trkpt lat="-33.61726309172809" lon="-69.9087446462363">
        <ele>2983.6</ele>
        <time>2020-12-05T14:58:34.000Z</time>
      </trkpt>
      <trkpt lat="-33.617262337356806" lon="-69.90872578695416">
        <ele>2983.6</ele>
        <time>2020-12-05T14:58:43.000Z</time>
      </trkpt>
      <trkpt lat="-33.61726317554712" lon="-69.90872570313513">
        <ele>2983.6</ele>
        <time>2020-12-05T14:58:48.000Z</time>
      </trkpt>
      <trkpt lat="-33.61714574508369" lon="-69.90899073891342">
        <ele>2985.4</ele>
        <time>2020-12-05T15:03:48.000Z</time>
      </trkpt>
      <trkpt lat="-33.61714239232242" lon="-69.90899124182761">
        <ele>2985.4</ele>
        <time>2020-12-05T15:03:49.000Z</time>
      </trkpt>
      <trkpt lat="-33.61712680198252" lon="-69.90899551659822">
        <ele>2985.8</ele>
        <time>2020-12-05T15:03:53.000Z</time>
      </trkpt>
      <trkpt lat="-33.61711489968002" lon="-69.90900674834847">
        <ele>2986</ele>
        <time>2020-12-05T15:03:57.000Z</time>
      </trkpt>
      <trkpt lat="-33.61710668541491" lon="-69.90901144221425">
        <ele>2986</ele>
        <time>2020-12-05T15:04:00.000Z</time>
      </trkpt>
      <trkpt lat="-33.617077600210905" lon="-69.90898629650474">
        <ele>2986.8</ele>
        <time>2020-12-05T15:04:10.000Z</time>
      </trkpt>
      <trkpt lat="-33.617073157802224" lon="-69.90897883661091">
        <ele>2987</ele>
        <time>2020-12-05T15:04:12.000Z</time>
      </trkpt>
      <trkpt lat="-33.61707198433578" lon="-69.9089774955064">
        <ele>2987</ele>
        <time>2020-12-05T15:04:23.000Z</time>
      </trkpt>
      <trkpt lat="-33.61707198433578" lon="-69.9089774955064">
        <ele>2987</ele>
        <time>2020-12-05T15:04:25.000Z</time>
      </trkpt>
      <trkpt lat="-33.61707139760256" lon="-69.9089774955064">
        <ele>2987</ele>
        <time>2020-12-05T15:04:29.000Z</time>
      </trkpt>
      <trkpt lat="-33.61704650335014" lon="-69.9089642520994">
        <ele>2987.6</ele>
        <time>2020-12-05T15:04:37.000Z</time>
      </trkpt>
      <trkpt lat="-33.61704256385565" lon="-69.90892628207803">
        <ele>2988</ele>
        <time>2020-12-05T15:04:53.000Z</time>
      </trkpt>
      <trkpt lat="-33.6170519515872" lon="-69.90888504311442">
        <ele>2988</ele>
        <time>2020-12-05T15:05:07.000Z</time>
      </trkpt>
      <trkpt lat="-33.6170519515872" lon="-69.90888051688671">
        <ele>2988</ele>
        <time>2020-12-05T15:05:08.000Z</time>
      </trkpt>
      <trkpt lat="-33.61704960465431" lon="-69.90886601619422">
        <ele>2988</ele>
        <time>2020-12-05T15:05:12.000Z</time>
      </trkpt>
      <trkpt lat="-33.61700048670173" lon="-69.90877046249807">
        <ele>2989.4</ele>
        <time>2020-12-05T15:05:22.000Z</time>
      </trkpt>
      <trkpt lat="-33.61699587665498" lon="-69.90876191295683">
        <ele>2989.6</ele>
        <time>2020-12-05T15:05:23.000Z</time>
      </trkpt>
      <trkpt lat="-33.61697115004063" lon="-69.90872260183096">
        <ele>2990.4</ele>
        <time>2020-12-05T15:05:30.000Z</time>
      </trkpt>
      <trkpt lat="-33.616921193897724" lon="-69.90866887383163">
        <ele>2991.8</ele>
        <time>2020-12-05T15:05:40.000Z</time>
      </trkpt>
      <trkpt lat="-33.616900658234954" lon="-69.90865018218756">
        <ele>2992.4</ele>
        <time>2020-12-05T15:05:44.000Z</time>
      </trkpt>
      <trkpt lat="-33.61687467433512" lon="-69.9086183309555">
        <ele>2993</ele>
        <time>2020-12-05T15:05:49.000Z</time>
      </trkpt>
      <trkpt lat="-33.616858245804906" lon="-69.90860106423497">
        <ele>2993.6</ele>
        <time>2020-12-05T15:05:52.000Z</time>
      </trkpt>
      <trkpt lat="-33.61677157692611" lon="-69.9085683748126">
        <ele>2994.8</ele>
        <time>2020-12-05T15:06:05.000Z</time>
      </trkpt>
      <trkpt lat="-33.616738049313426" lon="-69.90856049582362">
        <ele>2995.2</ele>
        <time>2020-12-05T15:06:09.000Z</time>
      </trkpt>
      <trkpt lat="-33.61672170460224" lon="-69.90855756215751">
        <ele>2995.4</ele>
        <time>2020-12-05T15:06:11.000Z</time>
      </trkpt>
      <trkpt lat="-33.616690104827285" lon="-69.90854876115918">
        <ele>2995.8</ele>
        <time>2020-12-05T15:06:15.000Z</time>
      </trkpt>
      <trkpt lat="-33.61667526885867" lon="-69.9085459113121">
        <ele>2996</ele>
        <time>2020-12-05T15:06:17.000Z</time>
      </trkpt>
      <trkpt lat="-33.61664651893079" lon="-69.90853786468506">
        <ele>2996.6</ele>
        <time>2020-12-05T15:06:21.000Z</time>
      </trkpt>
      <trkpt lat="-33.61663310788572" lon="-69.90852881222963">
        <ele>2996.8</ele>
        <time>2020-12-05T15:06:23.000Z</time>
      </trkpt>
      <trkpt lat="-33.616620283573866" lon="-69.90852093324065">
        <ele>2997</ele>
        <time>2020-12-05T15:06:25.000Z</time>
      </trkpt>
      <trkpt lat="-33.61660335212946" lon="-69.90850534290075">
        <ele>2997.4</ele>
        <time>2020-12-05T15:06:28.000Z</time>
      </trkpt>
      <trkpt lat="-33.616550378501415" lon="-69.90845488384366">
        <ele>2998.2</ele>
        <time>2020-12-05T15:06:38.000Z</time>
      </trkpt>
      <trkpt lat="-33.616513246670365" lon="-69.90842688828707">
        <ele>2999</ele>
        <time>2020-12-05T15:06:42.000Z</time>
      </trkpt>
      <trkpt lat="-33.616497572511435" lon="-69.90841448307037">
        <ele>2999.2</ele>
        <time>2020-12-05T15:06:45.000Z</time>
      </trkpt>
      <trkpt lat="-33.616486843675375" lon="-69.9084095377475">
        <ele>2999.4</ele>
        <time>2020-12-05T15:06:47.000Z</time>
      </trkpt>
      <trkpt lat="-33.61645792610943" lon="-69.9083907622844">
        <ele>3000</ele>
        <time>2020-12-05T15:06:51.000Z</time>
      </trkpt>
      <trkpt lat="-33.61640495248139" lon="-69.90836184471846">
        <ele>3001.2</ele>
        <time>2020-12-05T15:06:59.000Z</time>
      </trkpt>
      <trkpt lat="-33.616346614435315" lon="-69.9083476793021">
        <ele>3002.4</ele>
        <time>2020-12-05T15:07:06.000Z</time>
      </trkpt>
      <trkpt lat="-33.61631836742163" lon="-69.90833418443799">
        <ele>3003</ele>
        <time>2020-12-05T15:07:09.000Z</time>
      </trkpt>
      <trkpt lat="-33.616297747939825" lon="-69.90831549279392">
        <ele>3003.4</ele>
        <time>2020-12-05T15:07:13.000Z</time>
      </trkpt>
      <trkpt lat="-33.61627763137221" lon="-69.9083040934056">
        <ele>3003.8</ele>
        <time>2020-12-05T15:07:16.000Z</time>
      </trkpt>
      <trkpt lat="-33.616250893101096" lon="-69.90827081725001">
        <ele>3004.2</ele>
        <time>2020-12-05T15:07:20.000Z</time>
      </trkpt>
      <trkpt lat="-33.61622557975352" lon="-69.90823552943766">
        <ele>3004.6</ele>
        <time>2020-12-05T15:07:24.000Z</time>
      </trkpt>
      <trkpt lat="-33.616210324689746" lon="-69.9082108028233">
        <ele>3004.8</ele>
        <time>2020-12-05T15:07:26.000Z</time>
      </trkpt>
      <trkpt lat="-33.61620521172881" lon="-69.90820451639593">
        <ele>3004.8</ele>
        <time>2020-12-05T15:07:27.000Z</time>
      </trkpt>
      <trkpt lat="-33.61620127223432" lon="-69.9081833101809">
        <ele>3004.8</ele>
        <time>2020-12-05T15:07:29.000Z</time>
      </trkpt>
      <trkpt lat="-33.6161919683218" lon="-69.9081698153168">
        <ele>3004.8</ele>
        <time>2020-12-05T15:07:31.000Z</time>
      </trkpt>
      <trkpt lat="-33.61616657115519" lon="-69.90813327021897">
        <ele>3005.2</ele>
        <time>2020-12-05T15:07:35.000Z</time>
      </trkpt>
      <trkpt lat="-33.616162464022636" lon="-69.90812522359192">
        <ele>3005.2</ele>
        <time>2020-12-05T15:07:36.000Z</time>
      </trkpt>
      <trkpt lat="-33.61615668050945" lon="-69.90808490663767">
        <ele>3005</ele>
        <time>2020-12-05T15:07:40.000Z</time>
      </trkpt>
      <trkpt lat="-33.6161385755986" lon="-69.90802556276321">
        <ele>3005</ele>
        <time>2020-12-05T15:07:45.000Z</time>
      </trkpt>
      <trkpt lat="-33.61611678265035" lon="-69.90798708982766">
        <ele>3005.4</ele>
        <time>2020-12-05T15:07:50.000Z</time>
      </trkpt>
      <trkpt lat="-33.61610102467239" lon="-69.90797124803066">
        <ele>3005.6</ele>
        <time>2020-12-05T15:07:53.000Z</time>
      </trkpt>
      <trkpt lat="-33.61609532497823" lon="-69.90795817226171">
        <ele>3005.8</ele>
        <time>2020-12-05T15:07:54.000Z</time>
      </trkpt>
      <trkpt lat="-33.616066072136164" lon="-69.90790955722332">
        <ele>3006.4</ele>
        <time>2020-12-05T15:08:00.000Z</time>
      </trkpt>
      <trkpt lat="-33.616052912548184" lon="-69.9078780412674">
        <ele>3006.2</ele>
        <time>2020-12-05T15:08:03.000Z</time>
      </trkpt>
      <trkpt lat="-33.61604813486338" lon="-69.90786974318326">
        <ele>3006.2</ele>
        <time>2020-12-05T15:08:04.000Z</time>
      </trkpt>
      <trkpt lat="-33.61599960364401" lon="-69.90779841318727">
        <ele>3005.8</ele>
        <time>2020-12-05T15:08:13.000Z</time>
      </trkpt>
      <trkpt lat="-33.615948809310794" lon="-69.9077363871038">
        <ele>3005</ele>
        <time>2020-12-05T15:08:23.000Z</time>
      </trkpt>
      <trkpt lat="-33.615948390215635" lon="-69.90773445926607">
        <ele>3005</ele>
        <time>2020-12-05T15:08:24.000Z</time>
      </trkpt>
      <trkpt lat="-33.61595098860562" lon="-69.90773789584637">
        <ele>3005</ele>
        <time>2020-12-05T15:08:27.000Z</time>
      </trkpt>
      <trkpt lat="-33.61595023423433" lon="-69.90774258971214">
        <ele>3005.2</ele>
        <time>2020-12-05T15:08:30.000Z</time>
      </trkpt>
      <trkpt lat="-33.61594864167273" lon="-69.90774703212082">
        <ele>3005.2</ele>
        <time>2020-12-05T15:08:34.000Z</time>
      </trkpt>
      <trkpt lat="-33.61594864167273" lon="-69.90774703212082">
        <ele>3005.2</ele>
        <time>2020-12-05T15:08:37.000Z</time>
      </trkpt>
      <trkpt lat="-33.61594922840595" lon="-69.90774703212082">
        <ele>3005.2</ele>
        <time>2020-12-05T15:08:43.000Z</time>
      </trkpt>
      <trkpt lat="-33.61595207825303" lon="-69.9077461939305">
        <ele>3005.2</ele>
        <time>2020-12-05T15:08:48.000Z</time>
      </trkpt>
      <trkpt lat="-33.6159535869956" lon="-69.9077461939305">
        <ele>3005.2</ele>
        <time>2020-12-05T15:08:51.000Z</time>
      </trkpt>
      <trkpt lat="-33.61595434136689" lon="-69.90774761885405">
        <ele>3005.2</ele>
        <time>2020-12-05T15:09:06.000Z</time>
      </trkpt>
      <trkpt lat="-33.61595434136689" lon="-69.9077482894063">
        <ele>3005.2</ele>
        <time>2020-12-05T15:09:10.000Z</time>
      </trkpt>
      <trkpt lat="-33.615954760462046" lon="-69.90774912759662">
        <ele>3005.2</ele>
        <time>2020-12-05T15:09:12.000Z</time>
      </trkpt>
      <trkpt lat="-33.61595484428108" lon="-69.90774937905371">
        <ele>3005.2</ele>
        <time>2020-12-05T15:09:15.000Z</time>
      </trkpt>
      <trkpt lat="-33.615957191213965" lon="-69.90774921141565">
        <ele>3005.2</ele>
        <time>2020-12-05T15:09:24.000Z</time>
      </trkpt>
      <trkpt lat="-33.61595802940428" lon="-69.90774996578693">
        <ele>3005.2</ele>
        <time>2020-12-05T15:09:28.000Z</time>
      </trkpt>
      <trkpt lat="-33.615917628630996" lon="-69.9077054578811">
        <ele>3004.8</ele>
        <time>2020-12-05T15:09:37.000Z</time>
      </trkpt>
      <trkpt lat="-33.6159105040133" lon="-69.90770026110113">
        <ele>3004.8</ele>
        <time>2020-12-05T15:09:38.000Z</time>
      </trkpt>
      <trkpt lat="-33.615842275321484" lon="-69.90764016285539">
        <ele>3004.2</ele>
        <time>2020-12-05T15:09:45.000Z</time>
      </trkpt>
      <trkpt lat="-33.61576449126005" lon="-69.90758157335222">
        <ele>3003.6</ele>
        <time>2020-12-05T15:09:54.000Z</time>
      </trkpt>
      <trkpt lat="-33.61575426533818" lon="-69.90757746621966">
        <ele>3003.6</ele>
        <time>2020-12-05T15:09:55.000Z</time>
      </trkpt>
      <trkpt lat="-33.61573255620897" lon="-69.90756933577359">
        <ele>3003.6</ele>
        <time>2020-12-05T15:09:57.000Z</time>
      </trkpt>
      <trkpt lat="-33.615722162649035" lon="-69.90756665356457">
        <ele>3003.6</ele>
        <time>2020-12-05T15:09:58.000Z</time>
      </trkpt>
      <trkpt lat="-33.615690814331174" lon="-69.9075550865382">
        <ele>3003.6</ele>
        <time>2020-12-05T15:10:01.000Z</time>
      </trkpt>
      <trkpt lat="-33.61566047184169" lon="-69.90753463469446">
        <ele>3003.4</ele>
        <time>2020-12-05T15:10:04.000Z</time>
      </trkpt>
      <trkpt lat="-33.61563976854086" lon="-69.90750655531883">
        <ele>3003.2</ele>
        <time>2020-12-05T15:10:08.000Z</time>
      </trkpt>
      <trkpt lat="-33.615624848753214" lon="-69.90749859251082">
        <ele>3003.2</ele>
        <time>2020-12-05T15:10:10.000Z</time>
      </trkpt>
      <trkpt lat="-33.615601463243365" lon="-69.90744318813086">
        <ele>3002.4</ele>
        <time>2020-12-05T15:10:16.000Z</time>
      </trkpt>
      <trkpt lat="-33.61556986346841" lon="-69.90740915760398">
        <ele>3002.2</ele>
        <time>2020-12-05T15:10:21.000Z</time>
      </trkpt>
      <trkpt lat="-33.61554170027375" lon="-69.90739130415022">
        <ele>3002</ele>
        <time>2020-12-05T15:10:25.000Z</time>
      </trkpt>
      <trkpt lat="-33.615498784929514" lon="-69.90736087784171">
        <ele>3001.8</ele>
        <time>2020-12-05T15:10:30.000Z</time>
      </trkpt>
      <trkpt lat="-33.615489983931184" lon="-69.90735685452819">
        <ele>3001.8</ele>
        <time>2020-12-05T15:10:31.000Z</time>
      </trkpt>
      <trkpt lat="-33.615458300337195" lon="-69.90733682177961">
        <ele>3001.6</ele>
        <time>2020-12-05T15:10:35.000Z</time>
      </trkpt>
      <trkpt lat="-33.61541396006942" lon="-69.90732223726809">
        <ele>3001.8</ele>
        <time>2020-12-05T15:10:39.000Z</time>
      </trkpt>
      <trkpt lat="-33.615394765511155" lon="-69.90731762722135">
        <ele>3001.8</ele>
        <time>2020-12-05T15:10:41.000Z</time>
      </trkpt>
      <trkpt lat="-33.615349251776934" lon="-69.90731544792652">
        <ele>3002.2</ele>
        <time>2020-12-05T15:10:45.000Z</time>
      </trkpt>
      <trkpt lat="-33.61525923013687" lon="-69.9073077365756">
        <ele>3003.2</ele>
        <time>2020-12-05T15:10:55.000Z</time>
      </trkpt>
      <trkpt lat="-33.61514154821634" lon="-69.90728912875056">
        <ele>3003.8</ele>
        <time>2020-12-05T15:11:07.000Z</time>
      </trkpt>
      <trkpt lat="-33.61513308249414" lon="-69.90728946402669">
        <ele>3004</ele>
        <time>2020-12-05T15:11:08.000Z</time>
      </trkpt>
      <trkpt lat="-33.61512444913387" lon="-69.9072905536741">
        <ele>3004</ele>
        <time>2020-12-05T15:11:09.000Z</time>
      </trkpt>
      <trkpt lat="-33.61505303531885" lon="-69.90726565942168">
        <ele>3004.2</ele>
        <time>2020-12-05T15:11:16.000Z</time>
      </trkpt>
      <trkpt lat="-33.614974496886134" lon="-69.90722685121">
        <ele>3004</ele>
        <time>2020-12-05T15:11:24.000Z</time>
      </trkpt>
      <trkpt lat="-33.614960834383965" lon="-69.90722031332552">
        <ele>3004</ele>
        <time>2020-12-05T15:11:25.000Z</time>
      </trkpt>
      <trkpt lat="-33.61494557932019" lon="-69.90721335634589">
        <ele>3004</ele>
        <time>2020-12-05T15:11:27.000Z</time>
      </trkpt>
      <trkpt lat="-33.61488288268447" lon="-69.9071695189923">
        <ele>3003.6</ele>
        <time>2020-12-05T15:11:34.000Z</time>
      </trkpt>
      <trkpt lat="-33.614859245717525" lon="-69.90715778432786">
        <ele>3003.6</ele>
        <time>2020-12-05T15:11:37.000Z</time>
      </trkpt>
      <trkpt lat="-33.614828903228045" lon="-69.90714948624372">
        <ele>3003.6</ele>
        <time>2020-12-05T15:11:40.000Z</time>
      </trkpt>
      <trkpt lat="-33.61477291211486" lon="-69.90714353509247">
        <ele>3004</ele>
        <time>2020-12-05T15:11:45.000Z</time>
      </trkpt>
      <trkpt lat="-33.61475204117596" lon="-69.90714848041534">
        <ele>3004.2</ele>
        <time>2020-12-05T15:11:47.000Z</time>
      </trkpt>
      <trkpt lat="-33.61470753327012" lon="-69.90717337466776">
        <ele>3005.2</ele>
        <time>2020-12-05T15:11:51.000Z</time>
      </trkpt>
      <trkpt lat="-33.61468439921737" lon="-69.9071832653135">
        <ele>3005.6</ele>
        <time>2020-12-05T15:11:54.000Z</time>
      </trkpt>
      <trkpt lat="-33.6146673001349" lon="-69.90719323977828">
        <ele>3006</ele>
        <time>2020-12-05T15:11:56.000Z</time>
      </trkpt>
      <trkpt lat="-33.61465238034725" lon="-69.9072012025863">
        <ele>3006.2</ele>
        <time>2020-12-05T15:11:58.000Z</time>
      </trkpt>
      <trkpt lat="-33.61464307643473" lon="-69.90720220841467">
        <ele>3006.4</ele>
        <time>2020-12-05T15:11:59.000Z</time>
      </trkpt>
      <trkpt lat="-33.614624217152596" lon="-69.90720145404339">
        <ele>3006.4</ele>
        <time>2020-12-05T15:12:01.000Z</time>
      </trkpt>
      <trkpt lat="-33.61459672451019" lon="-69.90720405243337">
        <ele>3006.8</ele>
        <time>2020-12-05T15:12:04.000Z</time>
      </trkpt>
      <trkpt lat="-33.61456973478198" lon="-69.90720690228045">
        <ele>3007</ele>
        <time>2020-12-05T15:12:07.000Z</time>
      </trkpt>
      <trkpt lat="-33.61455858685076" lon="-69.90720271132886">
        <ele>3007</ele>
        <time>2020-12-05T15:12:08.000Z</time>
      </trkpt>
      <trkpt lat="-33.614546516910195" lon="-69.90719835273921">
        <ele>3007</ele>
        <time>2020-12-05T15:12:09.000Z</time>
      </trkpt>
      <trkpt lat="-33.614461440593004" lon="-69.90718443877995">
        <ele>3007.4</ele>
        <time>2020-12-05T15:12:17.000Z</time>
      </trkpt>
      <trkpt lat="-33.614453645423055" lon="-69.90718301385641">
        <ele>3007.6</ele>
        <time>2020-12-05T15:12:18.000Z</time>
      </trkpt>
      <trkpt lat="-33.61444559879601" lon="-69.90718200802803">
        <ele>3007.6</ele>
        <time>2020-12-05T15:12:19.000Z</time>
      </trkpt>
      <trkpt lat="-33.61443713307381" lon="-69.90717999637127">
        <ele>3007.6</ele>
        <time>2020-12-05T15:12:20.000Z</time>
      </trkpt>
      <trkpt lat="-33.61437435261905" lon="-69.90715879015625">
        <ele>3007.6</ele>
        <time>2020-12-05T15:12:25.000Z</time>
      </trkpt>
      <trkpt lat="-33.61436530016363" lon="-69.90715677849948">
        <ele>3007.8</ele>
        <time>2020-12-05T15:12:26.000Z</time>
      </trkpt>
      <trkpt lat="-33.61433110199869" lon="-69.90715879015625">
        <ele>3007.8</ele>
        <time>2020-12-05T15:12:29.000Z</time>
      </trkpt>
      <trkpt lat="-33.61426739953458" lon="-69.90717513486743">
        <ele>3008.2</ele>
        <time>2020-12-05T15:12:34.000Z</time>
      </trkpt>
      <trkpt lat="-33.614240577444434" lon="-69.90717027336359">
        <ele>3008.2</ele>
        <time>2020-12-05T15:12:37.000Z</time>
      </trkpt>
      <trkpt lat="-33.61420327797532" lon="-69.90716415457428">
        <ele>3008.2</ele>
        <time>2020-12-05T15:12:41.000Z</time>
      </trkpt>
      <trkpt lat="-33.61416069790721" lon="-69.9071700219065">
        <ele>3008.4</ele>
        <time>2020-12-05T15:12:45.000Z</time>
      </trkpt>
      <trkpt lat="-33.61410881392658" lon="-69.9071663338691">
        <ele>3008.4</ele>
        <time>2020-12-05T15:12:49.000Z</time>
      </trkpt>
      <trkpt lat="-33.61409758217633" lon="-69.90716381929815">
        <ele>3008.2</ele>
        <time>2020-12-05T15:12:50.000Z</time>
      </trkpt>
      <trkpt lat="-33.61408836208284" lon="-69.90716574713588">
        <ele>3008.4</ele>
        <time>2020-12-05T15:12:51.000Z</time>
      </trkpt>
      <trkpt lat="-33.61407914198935" lon="-69.9071642383933">
        <ele>3008.4</ele>
        <time>2020-12-05T15:12:52.000Z</time>
      </trkpt>
      <trkpt lat="-33.61399959772825" lon="-69.90717974491417">
        <ele>3008.8</ele>
        <time>2020-12-05T15:13:00.000Z</time>
      </trkpt>
      <trkpt lat="-33.613946456462145" lon="-69.9072006996721">
        <ele>3009.2</ele>
        <time>2020-12-05T15:13:05.000Z</time>
      </trkpt>
      <trkpt lat="-33.613939164206386" lon="-69.90720153786242">
        <ele>3009.2</ele>
        <time>2020-12-05T15:13:06.000Z</time>
      </trkpt>
      <trkpt lat="-33.613897170871496" lon="-69.90720673464239">
        <ele>3009.4</ele>
        <time>2020-12-05T15:13:10.000Z</time>
      </trkpt>
      <trkpt lat="-33.61382173374295" lon="-69.90722433663905">
        <ele>3009.8</ele>
        <time>2020-12-05T15:13:18.000Z</time>
      </trkpt>
      <trkpt lat="-33.613804215565324" lon="-69.90722970105708">
        <ele>3010</ele>
        <time>2020-12-05T15:13:20.000Z</time>
      </trkpt>
      <trkpt lat="-33.61373363994062" lon="-69.9072437826544">
        <ele>3010.4</ele>
        <time>2020-12-05T15:13:26.000Z</time>
      </trkpt>
      <trkpt lat="-33.61369449645281" lon="-69.90726255811751">
        <ele>3010.8</ele>
        <time>2020-12-05T15:13:30.000Z</time>
      </trkpt>
      <trkpt lat="-33.61368251033127" lon="-69.90726792253554">
        <ele>3010.8</ele>
        <time>2020-12-05T15:13:31.000Z</time>
      </trkpt>
      <trkpt lat="-33.613658202812076" lon="-69.90726448595524">
        <ele>3010.8</ele>
        <time>2020-12-05T15:13:34.000Z</time>
      </trkpt>
      <trkpt lat="-33.6136397626251" lon="-69.90726348012686">
        <ele>3010.8</ele>
        <time>2020-12-05T15:13:36.000Z</time>
      </trkpt>
      <trkpt lat="-33.613627441227436" lon="-69.90726607851684">
        <ele>3011</ele>
        <time>2020-12-05T15:13:37.000Z</time>
      </trkpt>
      <trkpt lat="-33.613575641065836" lon="-69.90727068856359">
        <ele>3011</ele>
        <time>2020-12-05T15:13:42.000Z</time>
      </trkpt>
      <trkpt lat="-33.61350447870791" lon="-69.907306144014">
        <ele>3011.8</ele>
        <time>2020-12-05T15:13:49.000Z</time>
      </trkpt>
      <trkpt lat="-33.613477908074856" lon="-69.90731058642268">
        <ele>3012</ele>
        <time>2020-12-05T15:13:52.000Z</time>
      </trkpt>
      <trkpt lat="-33.61340104602277" lon="-69.90732081234455">
        <ele>3012.2</ele>
        <time>2020-12-05T15:14:00.000Z</time>
      </trkpt>
      <trkpt lat="-33.61331353895366" lon="-69.90737278014421">
        <ele>3013.2</ele>
        <time>2020-12-05T15:14:10.000Z</time>
      </trkpt>
      <trkpt lat="-33.61321144737303" lon="-69.90741913206875">
        <ele>3014.2</ele>
        <time>2020-12-05T15:14:20.000Z</time>
      </trkpt>
      <trkpt lat="-33.613185212016106" lon="-69.90742986090481">
        <ele>3014.4</ele>
        <time>2020-12-05T15:14:23.000Z</time>
      </trkpt>
      <trkpt lat="-33.613165095448494" lon="-69.90744369104505">
        <ele>3014.6</ele>
        <time>2020-12-05T15:14:26.000Z</time>
      </trkpt>
      <trkpt lat="-33.613164173439145" lon="-69.90744234994054">
        <ele>3014.6</ele>
        <time>2020-12-05T15:14:27.000Z</time>
      </trkpt>
      <trkpt lat="-33.61316777765751" lon="-69.90744687616825">
        <ele>3014.8</ele>
        <time>2020-12-05T15:14:32.000Z</time>
      </trkpt>
      <trkpt lat="-33.61316777765751" lon="-69.90744612179697">
        <ele>3014.8</ele>
        <time>2020-12-05T15:14:36.000Z</time>
      </trkpt>
      <trkpt lat="-33.61316777765751" lon="-69.90744612179697">
        <ele>3014.8</ele>
        <time>2020-12-05T15:14:37.000Z</time>
      </trkpt>
      <trkpt lat="-33.61316928640008" lon="-69.90744612179697">
        <ele>3014.8</ele>
        <time>2020-12-05T15:14:52.000Z</time>
      </trkpt>
      <trkpt lat="-33.61317020840943" lon="-69.90744612179697">
        <ele>3014.8</ele>
        <time>2020-12-05T15:14:54.000Z</time>
      </trkpt>
      <trkpt lat="-33.61317020840943" lon="-69.90744612179697">
        <ele>3014.8</ele>
        <time>2020-12-05T15:14:57.000Z</time>
      </trkpt>
      <trkpt lat="-33.61316978931427" lon="-69.90743053145707">
        <ele>3014.4</ele>
        <time>2020-12-05T15:15:11.000Z</time>
      </trkpt>
      <trkpt lat="-33.61316786147654" lon="-69.90743027999997">
        <ele>3014.4</ele>
        <time>2020-12-05T15:15:16.000Z</time>
      </trkpt>
      <trkpt lat="-33.61309653148055" lon="-69.9074803199619">
        <ele>3015.4</ele>
        <time>2020-12-05T15:15:21.000Z</time>
      </trkpt>
      <trkpt lat="-33.61298270523548" lon="-69.90755860693753">
        <ele>3014.2</ele>
        <time>2020-12-05T15:15:30.000Z</time>
      </trkpt>
      <trkpt lat="-33.61297331750393" lon="-69.90755952894688">
        <ele>3014.2</ele>
        <time>2020-12-05T15:15:31.000Z</time>
      </trkpt>
      <trkpt lat="-33.61293467693031" lon="-69.90757922641933">
        <ele>3013.6</ele>
        <time>2020-12-05T15:15:35.000Z</time>
      </trkpt>
      <trkpt lat="-33.61285546794534" lon="-69.90760889835656">
        <ele>3012.8</ele>
        <time>2020-12-05T15:15:42.000Z</time>
      </trkpt>
      <trkpt lat="-33.61277257092297" lon="-69.90765290334821">
        <ele>3011.8</ele>
        <time>2020-12-05T15:15:51.000Z</time>
      </trkpt>
      <trkpt lat="-33.61271389760077" lon="-69.9076795578003">
        <ele>3011</ele>
        <time>2020-12-05T15:15:56.000Z</time>
      </trkpt>
      <trkpt lat="-33.612677436321974" lon="-69.90769942291081">
        <ele>3010.8</ele>
        <time>2020-12-05T15:16:00.000Z</time>
      </trkpt>
      <trkpt lat="-33.61259420402348" lon="-69.9077514745295">
        <ele>3012.2</ele>
        <time>2020-12-05T15:16:09.000Z</time>
      </trkpt>
      <trkpt lat="-33.61253846436739" lon="-69.90784669294953">
        <ele>3012.4</ele>
        <time>2020-12-05T15:16:19.000Z</time>
      </trkpt>
      <trkpt lat="-33.612520191818476" lon="-69.90786253474653">
        <ele>3012.2</ele>
        <time>2020-12-05T15:16:22.000Z</time>
      </trkpt>
      <trkpt lat="-33.612498650327325" lon="-69.90788198076189">
        <ele>3012.2</ele>
        <time>2020-12-05T15:16:25.000Z</time>
      </trkpt>
      <trkpt lat="-33.61248440109193" lon="-69.90788206458092">
        <ele>3012.2</ele>
        <time>2020-12-05T15:16:27.000Z</time>
      </trkpt>
      <trkpt lat="-33.612451208755374" lon="-69.90791366435587">
        <ele>3012.6</ele>
        <time>2020-12-05T15:16:31.000Z</time>
      </trkpt>
      <trkpt lat="-33.61240460537374" lon="-69.90795171819627">
        <ele>3014.6</ele>
        <time>2020-12-05T15:16:36.000Z</time>
      </trkpt>
      <trkpt lat="-33.61237593926489" lon="-69.90796613506973">
        <ele>3015.2</ele>
        <time>2020-12-05T15:16:39.000Z</time>
      </trkpt>
      <trkpt lat="-33.61233570612967" lon="-69.90799287334085">
        <ele>3016.6</ele>
        <time>2020-12-05T15:16:44.000Z</time>
      </trkpt>
      <trkpt lat="-33.61228968948126" lon="-69.90804048255086">
        <ele>3019</ele>
        <time>2020-12-05T15:16:51.000Z</time>
      </trkpt>
      <trkpt lat="-33.61228113994002" lon="-69.90804266184568">
        <ele>3019.2</ele>
        <time>2020-12-05T15:16:52.000Z</time>
      </trkpt>
      <trkpt lat="-33.61227032728493" lon="-69.90805733017623">
        <ele>3019.8</ele>
        <time>2020-12-05T15:16:54.000Z</time>
      </trkpt>
      <trkpt lat="-33.61224685795605" lon="-69.90806831046939">
        <ele>3020.4</ele>
        <time>2020-12-05T15:16:56.000Z</time>
      </trkpt>
      <trkpt lat="-33.61220721155405" lon="-69.90808138623834">
        <ele>3021</ele>
        <time>2020-12-05T15:17:01.000Z</time>
      </trkpt>
      <trkpt lat="-33.61217544414103" lon="-69.90810007788241">
        <ele>3022</ele>
        <time>2020-12-05T15:17:04.000Z</time>
      </trkpt>
      <trkpt lat="-33.61214166507125" lon="-69.9081209488213">
        <ele>3023</ele>
        <time>2020-12-05T15:17:08.000Z</time>
      </trkpt>
      <trkpt lat="-33.61211744137108" lon="-69.90812581032515">
        <ele>3023.4</ele>
        <time>2020-12-05T15:17:10.000Z</time>
      </trkpt>
      <trkpt lat="-33.61210662871599" lon="-69.90812731906772">
        <ele>3023.4</ele>
        <time>2020-12-05T15:17:11.000Z</time>
      </trkpt>
      <trkpt lat="-33.61208408139646" lon="-69.90813117474318">
        <ele>3023.6</ele>
        <time>2020-12-05T15:17:13.000Z</time>
      </trkpt>
      <trkpt lat="-33.61205901950598" lon="-69.90814014337957">
        <ele>3023.2</ele>
        <time>2020-12-05T15:17:15.000Z</time>
      </trkpt>
      <trkpt lat="-33.612033538520336" lon="-69.90815296769142">
        <ele>3022.8</ele>
        <time>2020-12-05T15:17:17.000Z</time>
      </trkpt>
      <trkpt lat="-33.61199649050832" lon="-69.90815254859626">
        <ele>3021.8</ele>
        <time>2020-12-05T15:17:20.000Z</time>
      </trkpt>
      <trkpt lat="-33.611947540193796" lon="-69.90816889330745">
        <ele>3021</ele>
        <time>2020-12-05T15:17:24.000Z</time>
      </trkpt>
      <trkpt lat="-33.61191309057176" lon="-69.90820309147239">
        <ele>3020.8</ele>
        <time>2020-12-05T15:17:28.000Z</time>
      </trkpt>
      <trkpt lat="-33.6118801496923" lon="-69.90822086110711">
        <ele>3020.4</ele>
        <time>2020-12-05T15:17:30.000Z</time>
      </trkpt>
      <trkpt lat="-33.61186363734305" lon="-69.90822371095419">
        <ele>3020</ele>
        <time>2020-12-05T15:17:32.000Z</time>
      </trkpt>
      <trkpt lat="-33.61184997484088" lon="-69.90823402069509">
        <ele>3020</ele>
        <time>2020-12-05T15:17:36.000Z</time>
      </trkpt>
      <trkpt lat="-33.61184787936509" lon="-69.90824332460761">
        <ele>3020.2</ele>
        <time>2020-12-05T15:17:37.000Z</time>
      </trkpt>
      <trkpt lat="-33.611804293468595" lon="-69.90829026326537">
        <ele>3021.6</ele>
        <time>2020-12-05T15:17:43.000Z</time>
      </trkpt>
      <trkpt lat="-33.61180211417377" lon="-69.90829696878791">
        <ele>3021.8</ele>
        <time>2020-12-05T15:17:44.000Z</time>
      </trkpt>
      <trkpt lat="-33.61179708503187" lon="-69.908313062042">
        <ele>3022.2</ele>
        <time>2020-12-05T15:17:46.000Z</time>
      </trkpt>
      <trkpt lat="-33.611720306798816" lon="-69.90837567485869">
        <ele>3024.4</ele>
        <time>2020-12-05T15:17:56.000Z</time>
      </trkpt>
      <trkpt lat="-33.61171041615307" lon="-69.90838967263699">
        <ele>3024.8</ele>
        <time>2020-12-05T15:17:59.000Z</time>
      </trkpt>
      <trkpt lat="-33.611697256565094" lon="-69.9084058497101">
        <ele>3025.2</ele>
        <time>2020-12-05T15:18:02.000Z</time>
      </trkpt>
      <trkpt lat="-33.61167219467461" lon="-69.90841708146036">
        <ele>3025.6</ele>
        <time>2020-12-05T15:18:04.000Z</time>
      </trkpt>
      <trkpt lat="-33.61163455992937" lon="-69.90842764265835">
        <ele>3026.2</ele>
        <time>2020-12-05T15:18:07.000Z</time>
      </trkpt>
      <trkpt lat="-33.61159147694707" lon="-69.90845186635852">
        <ele>3027</ele>
        <time>2020-12-05T15:18:13.000Z</time>
      </trkpt>
      <trkpt lat="-33.61157261766493" lon="-69.90847365930676">
        <ele>3027.2</ele>
        <time>2020-12-05T15:18:16.000Z</time>
      </trkpt>
      <trkpt lat="-33.61153665930033" lon="-69.9085078574717">
        <ele>3026</ele>
        <time>2020-12-05T15:18:21.000Z</time>
      </trkpt>
      <trkpt lat="-33.61152207478881" lon="-69.90856057964265">
        <ele>3025.2</ele>
        <time>2020-12-05T15:18:26.000Z</time>
      </trkpt>
      <trkpt lat="-33.611520901322365" lon="-69.90857013501227">
        <ele>3025</ele>
        <time>2020-12-05T15:18:27.000Z</time>
      </trkpt>
      <trkpt lat="-33.611474046483636" lon="-69.90863719023764">
        <ele>3023.4</ele>
        <time>2020-12-05T15:18:34.000Z</time>
      </trkpt>
      <trkpt lat="-33.611459294334054" lon="-69.90865378640592">
        <ele>3022.8</ele>
        <time>2020-12-05T15:18:36.000Z</time>
      </trkpt>
      <trkpt lat="-33.61144261434674" lon="-69.90867742337286">
        <ele>3022.2</ele>
        <time>2020-12-05T15:18:39.000Z</time>
      </trkpt>
      <trkpt lat="-33.61141017638147" lon="-69.90869427099824">
        <ele>3021.2</ele>
        <time>2020-12-05T15:18:43.000Z</time>
      </trkpt>
      <trkpt lat="-33.61139743588865" lon="-69.90871589630842">
        <ele>3020.8</ele>
        <time>2020-12-05T15:18:44.000Z</time>
      </trkpt>
      <trkpt lat="-33.61133658327162" lon="-69.90877289324999">
        <ele>3020.6</ele>
        <time>2020-12-05T15:18:51.000Z</time>
      </trkpt>
      <trkpt lat="-33.611311772838235" lon="-69.90878278389573">
        <ele>3020.4</ele>
        <time>2020-12-05T15:18:53.000Z</time>
      </trkpt>
      <trkpt lat="-33.61123859882355" lon="-69.90884254686534">
        <ele>3021</ele>
        <time>2020-12-05T15:19:01.000Z</time>
      </trkpt>
      <trkpt lat="-33.61116919666529" lon="-69.90890993736684">
        <ele>3021.6</ele>
        <time>2020-12-05T15:19:09.000Z</time>
      </trkpt>
      <trkpt lat="-33.61108336597681" lon="-69.90894949994981">
        <ele>3018.8</ele>
        <time>2020-12-05T15:19:17.000Z</time>
      </trkpt>
      <trkpt lat="-33.61102033406496" lon="-69.90900071337819">
        <ele>3017.2</ele>
        <time>2020-12-05T15:19:25.000Z</time>
      </trkpt>
      <trkpt lat="-33.6109855491668" lon="-69.90902703255415">
        <ele>3018</ele>
        <time>2020-12-05T15:19:29.000Z</time>
      </trkpt>
      <trkpt lat="-33.61096769571304" lon="-69.90904404781759">
        <ele>3018.4</ele>
        <time>2020-12-05T15:19:31.000Z</time>
      </trkpt>
      <trkpt lat="-33.61094229854643" lon="-69.90906349383295">
        <ele>3019.2</ele>
        <time>2020-12-05T15:19:33.000Z</time>
      </trkpt>
      <trkpt lat="-33.61092469654977" lon="-69.90905879996717">
        <ele>3019.2</ele>
        <time>2020-12-05T15:19:35.000Z</time>
      </trkpt>
      <trkpt lat="-33.610914722085" lon="-69.90907355211675">
        <ele>3019.6</ele>
        <time>2020-12-05T15:19:37.000Z</time>
      </trkpt>
      <trkpt lat="-33.61087717115879" lon="-69.90913725458086">
        <ele>3021.4</ele>
        <time>2020-12-05T15:19:44.000Z</time>
      </trkpt>
      <trkpt lat="-33.61086937598884" lon="-69.90914018824697">
        <ele>3021.4</ele>
        <time>2020-12-05T15:19:45.000Z</time>
      </trkpt>
      <trkpt lat="-33.610854372382164" lon="-69.90914823487401">
        <ele>3021.8</ele>
        <time>2020-12-05T15:19:47.000Z</time>
      </trkpt>
      <trkpt lat="-33.610845152288675" lon="-69.90919223986566">
        <ele>3022.8</ele>
        <time>2020-12-05T15:19:50.000Z</time>
      </trkpt>
      <trkpt lat="-33.6107955314219" lon="-69.9092060700059">
        <ele>3023.6</ele>
        <time>2020-12-05T15:19:53.000Z</time>
      </trkpt>
      <trkpt lat="-33.610759656876326" lon="-69.90921897813678">
        <ele>3024.2</ele>
        <time>2020-12-05T15:19:57.000Z</time>
      </trkpt>
      <trkpt lat="-33.61071355640888" lon="-69.9092383403331">
        <ele>3025</ele>
        <time>2020-12-05T15:20:04.000Z</time>
      </trkpt>
      <trkpt lat="-33.61066795885563" lon="-69.90928150713444">
        <ele>3024.8</ele>
        <time>2020-12-05T15:20:11.000Z</time>
      </trkpt>
      <trkpt lat="-33.61061096191406" lon="-69.90929776802659">
        <ele>3023.8</ele>
        <time>2020-12-05T15:20:17.000Z</time>
      </trkpt>
      <trkpt lat="-33.61059771850705" lon="-69.90931134670973">
        <ele>3023.6</ele>
        <time>2020-12-05T15:20:19.000Z</time>
      </trkpt>
      <trkpt lat="-33.61058967188001" lon="-69.90931352600455">
        <ele>3023.4</ele>
        <time>2020-12-05T15:20:20.000Z</time>
      </trkpt>
      <trkpt lat="-33.61057022586465" lon="-69.90931109525263">
        <ele>3023</ele>
        <time>2020-12-05T15:20:22.000Z</time>
      </trkpt>
      <trkpt lat="-33.61056134104729" lon="-69.90931956097484">
        <ele>3023</ele>
        <time>2020-12-05T15:20:23.000Z</time>
      </trkpt>
      <trkpt lat="-33.61055505461991" lon="-69.90932794287801">
        <ele>3022.8</ele>
        <time>2020-12-05T15:20:24.000Z</time>
      </trkpt>
      <trkpt lat="-33.61053217202425" lon="-69.90935535170138">
        <ele>3022.4</ele>
        <time>2020-12-05T15:20:27.000Z</time>
      </trkpt>
      <trkpt lat="-33.61052202992141" lon="-69.90937035530806">
        <ele>3022.2</ele>
        <time>2020-12-05T15:20:30.000Z</time>
      </trkpt>
      <trkpt lat="-33.61050275154412" lon="-69.90937328897417">
        <ele>3021.8</ele>
        <time>2020-12-05T15:20:31.000Z</time>
      </trkpt>
      <trkpt lat="-33.610491855069995" lon="-69.90937949158251">
        <ele>3021.6</ele>
        <time>2020-12-05T15:20:32.000Z</time>
      </trkpt>
      <trkpt lat="-33.61047852784395" lon="-69.90939357317984">
        <ele>3021.4</ele>
        <time>2020-12-05T15:20:34.000Z</time>
      </trkpt>
      <trkpt lat="-33.6104672960937" lon="-69.90940656512976">
        <ele>3021.2</ele>
        <time>2020-12-05T15:20:36.000Z</time>
      </trkpt>
      <trkpt lat="-33.61046235077083" lon="-69.90940673276782">
        <ele>3021</ele>
        <time>2020-12-05T15:20:37.000Z</time>
      </trkpt>
      <trkpt lat="-33.61046377569437" lon="-69.90940053015947">
        <ele>3021</ele>
        <time>2020-12-05T15:20:39.000Z</time>
      </trkpt>
      <trkpt lat="-33.61044466495514" lon="-69.90941544994712">
        <ele>3020.8</ele>
        <time>2020-12-05T15:20:42.000Z</time>
      </trkpt>
      <trkpt lat="-33.610435109585524" lon="-69.90942450240254">
        <ele>3020.6</ele>
        <time>2020-12-05T15:20:44.000Z</time>
      </trkpt>
      <trkpt lat="-33.610436366871" lon="-69.9094214849174">
        <ele>3020.6</ele>
        <time>2020-12-05T15:20:47.000Z</time>
      </trkpt>
      <trkpt lat="-33.61040300689638" lon="-69.90945417433977">
        <ele>3020</ele>
        <time>2020-12-05T15:20:54.000Z</time>
      </trkpt>
      <trkpt lat="-33.610369646921754" lon="-69.90949708968401">
        <ele>3019.2</ele>
        <time>2020-12-05T15:21:00.000Z</time>
      </trkpt>
      <trkpt lat="-33.61033863388002" lon="-69.90951653569937">
        <ele>3018.8</ele>
        <time>2020-12-05T15:21:05.000Z</time>
      </trkpt>
      <trkpt lat="-33.61026596277952" lon="-69.90956380963326">
        <ele>3017.4</ele>
        <time>2020-12-05T15:21:13.000Z</time>
      </trkpt>
      <trkpt lat="-33.610244672745466" lon="-69.90958040580153">
        <ele>3017.6</ele>
        <time>2020-12-05T15:21:16.000Z</time>
      </trkpt>
      <trkpt lat="-33.61019790172577" lon="-69.90960873663425">
        <ele>3017.6</ele>
        <time>2020-12-05T15:21:21.000Z</time>
      </trkpt>
      <trkpt lat="-33.61019354313612" lon="-69.9096165318042">
        <ele>3017.8</ele>
        <time>2020-12-05T15:21:22.000Z</time>
      </trkpt>
      <trkpt lat="-33.61017342656851" lon="-69.90964687429368">
        <ele>3018.4</ele>
        <time>2020-12-05T15:21:28.000Z</time>
      </trkpt>
      <trkpt lat="-33.61014073714614" lon="-69.90966464392841">
        <ele>3019</ele>
        <time>2020-12-05T15:21:32.000Z</time>
      </trkpt>
      <trkpt lat="-33.61011911183596" lon="-69.90968082100153">
        <ele>3019.4</ele>
        <time>2020-12-05T15:21:34.000Z</time>
      </trkpt>
      <trkpt lat="-33.610112154856324" lon="-69.90968911908567">
        <ele>3019.8</ele>
        <time>2020-12-05T15:21:35.000Z</time>
      </trkpt>
      <trkpt lat="-33.6101012583822" lon="-69.90970437414944">
        <ele>3020.2</ele>
        <time>2020-12-05T15:21:37.000Z</time>
      </trkpt>
      <trkpt lat="-33.61008105799556" lon="-69.90973312407732">
        <ele>3021</ele>
        <time>2020-12-05T15:21:41.000Z</time>
      </trkpt>
      <trkpt lat="-33.61007477156818" lon="-69.90974728949368">
        <ele>3021.6</ele>
        <time>2020-12-05T15:21:42.000Z</time>
      </trkpt>
      <trkpt lat="-33.61000679433346" lon="-69.90980830974877">
        <ele>3023.4</ele>
        <time>2020-12-05T15:21:49.000Z</time>
      </trkpt>
      <trkpt lat="-33.60992004163563" lon="-69.90985164418817">
        <ele>3024.8</ele>
        <time>2020-12-05T15:21:57.000Z</time>
      </trkpt>
      <trkpt lat="-33.60988768748939" lon="-69.90990629419684">
        <ele>3026.6</ele>
        <time>2020-12-05T15:22:05.000Z</time>
      </trkpt>
      <trkpt lat="-33.609850807115436" lon="-69.90994568914175">
        <ele>3027.8</ele>
        <time>2020-12-05T15:22:12.000Z</time>
      </trkpt>
      <trkpt lat="-33.60982742160559" lon="-69.90995490923524">
        <ele>3028</ele>
        <time>2020-12-05T15:22:15.000Z</time>
      </trkpt>
      <trkpt lat="-33.609792636707425" lon="-69.90995650179684">
        <ele>3028.2</ele>
        <time>2020-12-05T15:22:18.000Z</time>
      </trkpt>
      <trkpt lat="-33.60976321622729" lon="-69.90996471606195">
        <ele>3028.4</ele>
        <time>2020-12-05T15:22:21.000Z</time>
      </trkpt>
      <trkpt lat="-33.60971267335117" lon="-69.9099981598556">
        <ele>3028.6</ele>
        <time>2020-12-05T15:22:29.000Z</time>
      </trkpt>
      <trkpt lat="-33.609641175717115" lon="-69.91004476323724">
        <ele>3028.4</ele>
        <time>2020-12-05T15:22:38.000Z</time>
      </trkpt>
      <trkpt lat="-33.60958870500326" lon="-69.91006613709033">
        <ele>3028.2</ele>
        <time>2020-12-05T15:22:45.000Z</time>
      </trkpt>
      <trkpt lat="-33.60952701419592" lon="-69.9100882653147">
        <ele>3027.8</ele>
        <time>2020-12-05T15:22:52.000Z</time>
      </trkpt>
      <trkpt lat="-33.60951863229275" lon="-69.91009153425694">
        <ele>3027.8</ele>
        <time>2020-12-05T15:22:53.000Z</time>
      </trkpt>
      <trkpt lat="-33.60946213826537" lon="-69.91011793725193">
        <ele>3027.6</ele>
        <time>2020-12-05T15:23:00.000Z</time>
      </trkpt>
      <trkpt lat="-33.60945266671479" lon="-69.91013721562922">
        <ele>3027.8</ele>
        <time>2020-12-05T15:23:03.000Z</time>
      </trkpt>
      <trkpt lat="-33.609439842402935" lon="-69.91015615873039">
        <ele>3028</ele>
        <time>2020-12-05T15:23:06.000Z</time>
      </trkpt>
      <trkpt lat="-33.60942240804434" lon="-69.91017334163189">
        <ele>3028</ele>
        <time>2020-12-05T15:23:09.000Z</time>
      </trkpt>
      <trkpt lat="-33.60939751379192" lon="-69.91018247790635">
        <ele>3027.8</ele>
        <time>2020-12-05T15:23:12.000Z</time>
      </trkpt>
      <trkpt lat="-33.60933029092848" lon="-69.91019756533206">
        <ele>3028.2</ele>
        <time>2020-12-05T15:23:20.000Z</time>
      </trkpt>
      <trkpt lat="-33.609307911247015" lon="-69.91020527668297">
        <ele>3029.2</ele>
        <time>2020-12-05T15:23:22.000Z</time>
      </trkpt>
      <trkpt lat="-33.609243454411626" lon="-69.91023427806795">
        <ele>3031.8</ele>
        <time>2020-12-05T15:23:30.000Z</time>
      </trkpt>
      <trkpt lat="-33.60922836698592" lon="-69.91024995222688">
        <ele>3032.6</ele>
        <time>2020-12-05T15:23:33.000Z</time>
      </trkpt>
      <trkpt lat="-33.609220655635" lon="-69.91025674156845">
        <ele>3033</ele>
        <time>2020-12-05T15:23:35.000Z</time>
      </trkpt>
      <trkpt lat="-33.60921520739794" lon="-69.91027350537479">
        <ele>3033.2</ele>
        <time>2020-12-05T15:23:38.000Z</time>
      </trkpt>
      <trkpt lat="-33.60919425264001" lon="-69.91035715676844">
        <ele>3032.2</ele>
        <time>2020-12-05T15:23:48.000Z</time>
      </trkpt>
      <trkpt lat="-33.60915469005704" lon="-69.91038355976343">
        <ele>3032</ele>
        <time>2020-12-05T15:23:54.000Z</time>
      </trkpt>
      <trkpt lat="-33.60914069227874" lon="-69.91039068438113">
        <ele>3031.8</ele>
        <time>2020-12-05T15:23:56.000Z</time>
      </trkpt>
      <trkpt lat="-33.60912887379527" lon="-69.91039965301752">
        <ele>3031.8</ele>
        <time>2020-12-05T15:23:58.000Z</time>
      </trkpt>
      <trkpt lat="-33.60910934396088" lon="-69.91041230969131">
        <ele>3032</ele>
        <time>2020-12-05T15:24:00.000Z</time>
      </trkpt>
      <trkpt lat="-33.60905301757157" lon="-69.910445837304">
        <ele>3033</ele>
        <time>2020-12-05T15:24:05.000Z</time>
      </trkpt>
      <trkpt lat="-33.60903583467007" lon="-69.91046662442386">
        <ele>3033.4</ele>
        <time>2020-12-05T15:24:09.000Z</time>
      </trkpt>
      <trkpt lat="-33.609007420018315" lon="-69.91047626361251">
        <ele>3033.8</ele>
        <time>2020-12-05T15:24:12.000Z</time>
      </trkpt>
      <trkpt lat="-33.60899384133518" lon="-69.91048405878246">
        <ele>3034</ele>
        <time>2020-12-05T15:24:13.000Z</time>
      </trkpt>
      <trkpt lat="-33.608944304287434" lon="-69.91052152588964">
        <ele>3035</ele>
        <time>2020-12-05T15:24:18.000Z</time>
      </trkpt>
      <trkpt lat="-33.608890157192945" lon="-69.91055304184556">
        <ele>3035.8</ele>
        <time>2020-12-05T15:24:23.000Z</time>
      </trkpt>
      <trkpt lat="-33.608885714784265" lon="-69.91055622696877">
        <ele>3035.8</ele>
        <time>2020-12-05T15:24:24.000Z</time>
      </trkpt>
      <trkpt lat="-33.60886090435088" lon="-69.91057114675641">
        <ele>3036.2</ele>
        <time>2020-12-05T15:24:28.000Z</time>
      </trkpt>
      <trkpt lat="-33.608831986784935" lon="-69.9105941131711">
        <ele>3036.8</ele>
        <time>2020-12-05T15:24:32.000Z</time>
      </trkpt>
      <trkpt lat="-33.60876912251115" lon="-69.91064968518913">
        <ele>3038.2</ele>
        <time>2020-12-05T15:24:39.000Z</time>
      </trkpt>
      <trkpt lat="-33.60873785801232" lon="-69.91069737821817">
        <ele>3037.8</ele>
        <time>2020-12-05T15:24:47.000Z</time>
      </trkpt>
      <trkpt lat="-33.608734253793955" lon="-69.91070902906358">
        <ele>3037.6</ele>
        <time>2020-12-05T15:24:48.000Z</time>
      </trkpt>
      <trkpt lat="-33.608724530786276" lon="-69.91073333658278">
        <ele>3037.4</ele>
        <time>2020-12-05T15:24:51.000Z</time>
      </trkpt>
      <trkpt lat="-33.6087008100003" lon="-69.91076409816742">
        <ele>3037</ele>
        <time>2020-12-05T15:24:55.000Z</time>
      </trkpt>
      <trkpt lat="-33.60864666290581" lon="-69.91082344204187">
        <ele>3036.2</ele>
        <time>2020-12-05T15:25:05.000Z</time>
      </trkpt>
      <trkpt lat="-33.608586732298136" lon="-69.91089477203786">
        <ele>3035.2</ele>
        <time>2020-12-05T15:25:17.000Z</time>
      </trkpt>
      <trkpt lat="-33.60854876227677" lon="-69.91094816476107">
        <ele>3034.6</ele>
        <time>2020-12-05T15:25:24.000Z</time>
      </trkpt>
      <trkpt lat="-33.60852085053921" lon="-69.91097934544086">
        <ele>3034</ele>
        <time>2020-12-05T15:25:28.000Z</time>
      </trkpt>
      <trkpt lat="-33.60849964432418" lon="-69.91101019084454">
        <ele>3034.2</ele>
        <time>2020-12-05T15:25:31.000Z</time>
      </trkpt>
      <trkpt lat="-33.60847734846175" lon="-69.91103156469762">
        <ele>3034.6</ele>
        <time>2020-12-05T15:25:33.000Z</time>
      </trkpt>
      <trkpt lat="-33.608446922153234" lon="-69.91106467321515">
        <ele>3035</ele>
        <time>2020-12-05T15:25:39.000Z</time>
      </trkpt>
      <trkpt lat="-33.60842068679631" lon="-69.91111085750163">
        <ele>3035.4</ele>
        <time>2020-12-05T15:25:44.000Z</time>
      </trkpt>
      <trkpt lat="-33.60837634652853" lon="-69.91118235513568">
        <ele>3035.4</ele>
        <time>2020-12-05T15:25:52.000Z</time>
      </trkpt>
      <trkpt lat="-33.608315074816346" lon="-69.91124379448593">
        <ele>3035.6</ele>
        <time>2020-12-05T15:26:01.000Z</time>
      </trkpt>
      <trkpt lat="-33.60826243646443" lon="-69.91129877977073">
        <ele>3037.2</ele>
        <time>2020-12-05T15:26:08.000Z</time>
      </trkpt>
      <trkpt lat="-33.608234357088804" lon="-69.91135057993233">
        <ele>3038.6</ele>
        <time>2020-12-05T15:26:15.000Z</time>
      </trkpt>
      <trkpt lat="-33.60820770263672" lon="-69.91138595156372">
        <ele>3039.6</ele>
        <time>2020-12-05T15:26:20.000Z</time>
      </trkpt>
      <trkpt lat="-33.608141988515854" lon="-69.91145158186555">
        <ele>3041.6</ele>
        <time>2020-12-05T15:26:29.000Z</time>
      </trkpt>
      <trkpt lat="-33.60811189748347" lon="-69.91149994544685">
        <ele>3043</ele>
        <time>2020-12-05T15:26:35.000Z</time>
      </trkpt>
      <trkpt lat="-33.608107287436724" lon="-69.91150849498808">
        <ele>3043.2</ele>
        <time>2020-12-05T15:26:36.000Z</time>
      </trkpt>
      <trkpt lat="-33.60807686112821" lon="-69.91157496348023">
        <ele>3045</ele>
        <time>2020-12-05T15:26:43.000Z</time>
      </trkpt>
      <trkpt lat="-33.60802707262337" lon="-69.91162735037506">
        <ele>3045.6</ele>
        <time>2020-12-05T15:26:51.000Z</time>
      </trkpt>
      <trkpt lat="-33.6079875100404" lon="-69.91166741587222">
        <ele>3045.2</ele>
        <time>2020-12-05T15:26:56.000Z</time>
      </trkpt>
      <trkpt lat="-33.607960017398" lon="-69.91168786771595">
        <ele>3045</ele>
        <time>2020-12-05T15:26:59.000Z</time>
      </trkpt>
      <trkpt lat="-33.60794090665877" lon="-69.91169314831495">
        <ele>3044.8</ele>
        <time>2020-12-05T15:27:01.000Z</time>
      </trkpt>
      <trkpt lat="-33.60791861079633" lon="-69.91171443834901">
        <ele>3044.6</ele>
        <time>2020-12-05T15:27:03.000Z</time>
      </trkpt>
      <trkpt lat="-33.60790729522705" lon="-69.91172667592764">
        <ele>3044.4</ele>
        <time>2020-12-05T15:27:05.000Z</time>
      </trkpt>
      <trkpt lat="-33.60790779814124" lon="-69.91173706948757">
        <ele>3044.4</ele>
        <time>2020-12-05T15:27:07.000Z</time>
      </trkpt>
      <trkpt lat="-33.60788298770785" lon="-69.91174662485719">
        <ele>3044.2</ele>
        <time>2020-12-05T15:27:10.000Z</time>
      </trkpt>
      <trkpt lat="-33.607870917767286" lon="-69.91174394264817">
        <ele>3044</ele>
        <time>2020-12-05T15:27:12.000Z</time>
      </trkpt>
      <trkpt lat="-33.60785172320902" lon="-69.91177897900343">
        <ele>3044</ele>
        <time>2020-12-05T15:27:19.000Z</time>
      </trkpt>
      <trkpt lat="-33.60785239376128" lon="-69.91177973337471">
        <ele>3044</ele>
        <time>2020-12-05T15:27:20.000Z</time>
      </trkpt>
      <trkpt lat="-33.60785021446645" lon="-69.91178249940276">
        <ele>3044</ele>
        <time>2020-12-05T15:27:23.000Z</time>
      </trkpt>
      <trkpt lat="-33.60784811899066" lon="-69.9117839243263">
        <ele>3044</ele>
        <time>2020-12-05T15:27:25.000Z</time>
      </trkpt>
      <trkpt lat="-33.6078062094748" lon="-69.9118061363697">
        <ele>3043.6</ele>
        <time>2020-12-05T15:27:28.000Z</time>
      </trkpt>
      <trkpt lat="-33.60778651200235" lon="-69.91182507947087">
        <ele>3043.4</ele>
        <time>2020-12-05T15:27:32.000Z</time>
      </trkpt>
      <trkpt lat="-33.6077665630728" lon="-69.91184243001044">
        <ele>3043.2</ele>
        <time>2020-12-05T15:27:36.000Z</time>
      </trkpt>
      <trkpt lat="-33.60775566659868" lon="-69.91185173392296">
        <ele>3043</ele>
        <time>2020-12-05T15:27:42.000Z</time>
      </trkpt>
      <trkpt lat="-33.60775952227414" lon="-69.91183849051595">
        <ele>3043</ele>
        <time>2020-12-05T15:27:48.000Z</time>
      </trkpt>
      <trkpt lat="-33.60775910317898" lon="-69.91184117272496">
        <ele>3043</ele>
        <time>2020-12-05T15:27:51.000Z</time>
      </trkpt>
      <trkpt lat="-33.607756504788995" lon="-69.9118637200445">
        <ele>3043.2</ele>
        <time>2020-12-05T15:27:56.000Z</time>
      </trkpt>
      <trkpt lat="-33.60775080509484" lon="-69.9118751194328">
        <ele>3043.2</ele>
        <time>2020-12-05T15:27:58.000Z</time>
      </trkpt>
      <trkpt lat="-33.60774711705744" lon="-69.91189297288656">
        <ele>3043.2</ele>
        <time>2020-12-05T15:28:00.000Z</time>
      </trkpt>
      <trkpt lat="-33.607718367129564" lon="-69.91196606308222">
        <ele>3043</ele>
        <time>2020-12-05T15:28:07.000Z</time>
      </trkpt>
      <trkpt lat="-33.60773856751621" lon="-69.91201166063547">
        <ele>3043.4</ele>
        <time>2020-12-05T15:28:14.000Z</time>
      </trkpt>
      <trkpt lat="-33.60771995969117" lon="-69.91207620128989">
        <ele>3043.8</ele>
        <time>2020-12-05T15:28:20.000Z</time>
      </trkpt>
      <trkpt lat="-33.60768643207848" lon="-69.91213445551693">
        <ele>3044.6</ele>
        <time>2020-12-05T15:28:26.000Z</time>
      </trkpt>
      <trkpt lat="-33.607685593888164" lon="-69.91214199922979">
        <ele>3044.8</ele>
        <time>2020-12-05T15:28:27.000Z</time>
      </trkpt>
      <trkpt lat="-33.60766262747347" lon="-69.91218214854598">
        <ele>3045.8</ele>
        <time>2020-12-05T15:28:31.000Z</time>
      </trkpt>
      <trkpt lat="-33.60765525139868" lon="-69.91218147799373">
        <ele>3045.8</ele>
        <time>2020-12-05T15:28:34.000Z</time>
      </trkpt>
      <trkpt lat="-33.60763077624142" lon="-69.91217988543212">
        <ele>3046</ele>
        <time>2020-12-05T15:28:40.000Z</time>
      </trkpt>
      <trkpt lat="-33.60762868076563" lon="-69.91217988543212">
        <ele>3046</ele>
        <time>2020-12-05T15:28:42.000Z</time>
      </trkpt>
      <trkpt lat="-33.60764108598232" lon="-69.91211827844381">
        <ele>3044.4</ele>
        <time>2020-12-05T15:28:48.000Z</time>
      </trkpt>
      <trkpt lat="-33.60762541182339" lon="-69.9121224693954">
        <ele>3044.6</ele>
        <time>2020-12-05T15:28:51.000Z</time>
      </trkpt>
      <trkpt lat="-33.607610911130905" lon="-69.91215515881777">
        <ele>3045.6</ele>
        <time>2020-12-05T15:28:54.000Z</time>
      </trkpt>
      <trkpt lat="-33.60759356059134" lon="-69.91220461204648">
        <ele>3046.8</ele>
        <time>2020-12-05T15:28:58.000Z</time>
      </trkpt>
      <trkpt lat="-33.607572354376316" lon="-69.91224459372461">
        <ele>3047.8</ele>
        <time>2020-12-05T15:29:02.000Z</time>
      </trkpt>
      <trkpt lat="-33.6075508967042" lon="-69.91228440776467">
        <ele>3048.8</ele>
        <time>2020-12-05T15:29:05.000Z</time>
      </trkpt>
      <trkpt lat="-33.60754209570587" lon="-69.91230502724648">
        <ele>3049.4</ele>
        <time>2020-12-05T15:29:08.000Z</time>
      </trkpt>
      <trkpt lat="-33.607519967481494" lon="-69.91235431283712">
        <ele>3050.8</ele>
        <time>2020-12-05T15:29:13.000Z</time>
      </trkpt>
      <trkpt lat="-33.6075144354254" lon="-69.91236261092126">
        <ele>3051</ele>
        <time>2020-12-05T15:29:14.000Z</time>
      </trkpt>
      <trkpt lat="-33.6074610427022" lon="-69.91245615296066">
        <ele>3053.4</ele>
        <time>2020-12-05T15:29:24.000Z</time>
      </trkpt>
      <trkpt lat="-33.60742935910821" lon="-69.91251457482576">
        <ele>3055</ele>
        <time>2020-12-05T15:29:30.000Z</time>
      </trkpt>
      <trkpt lat="-33.60742290504277" lon="-69.9125196877867">
        <ele>3055.2</ele>
        <time>2020-12-05T15:29:31.000Z</time>
      </trkpt>
      <trkpt lat="-33.60741871409118" lon="-69.91252966225147">
        <ele>3055.4</ele>
        <time>2020-12-05T15:29:33.000Z</time>
      </trkpt>
      <trkpt lat="-33.60741913318634" lon="-69.91254600696266">
        <ele>3055.8</ele>
        <time>2020-12-05T15:29:36.000Z</time>
      </trkpt>
      <trkpt lat="-33.60742407850921" lon="-69.91255983710289">
        <ele>3056</ele>
        <time>2020-12-05T15:29:38.000Z</time>
      </trkpt>
      <trkpt lat="-33.60740630887449" lon="-69.9126370344311">
        <ele>3057.6</ele>
        <time>2020-12-05T15:29:46.000Z</time>
      </trkpt>
      <trkpt lat="-33.607380324974656" lon="-69.9126833025366">
        <ele>3057.4</ele>
        <time>2020-12-05T15:29:52.000Z</time>
      </trkpt>
      <trkpt lat="-33.60737546347082" lon="-69.91270065307617">
        <ele>3057.4</ele>
        <time>2020-12-05T15:29:56.000Z</time>
      </trkpt>
      <trkpt lat="-33.60733455978334" lon="-69.91274465806782">
        <ele>3057</ele>
        <time>2020-12-05T15:30:01.000Z</time>
      </trkpt>
      <trkpt lat="-33.607333889231086" lon="-69.91275706328452">
        <ele>3057</ele>
        <time>2020-12-05T15:30:02.000Z</time>
      </trkpt>
      <trkpt lat="-33.60733950510621" lon="-69.9127543810755">
        <ele>3057</ele>
        <time>2020-12-05T15:30:04.000Z</time>
      </trkpt>
      <trkpt lat="-33.60734093002975" lon="-69.91275496780872">
        <ele>3057.2</ele>
        <time>2020-12-05T15:30:05.000Z</time>
      </trkpt>
      <trkpt lat="-33.607338750734925" lon="-69.91273661144078">
        <ele>3057</ele>
        <time>2020-12-05T15:30:09.000Z</time>
      </trkpt>
      <trkpt lat="-33.607347551733255" lon="-69.91273024119437">
        <ele>3057.2</ele>
        <time>2020-12-05T15:30:12.000Z</time>
      </trkpt>
      <trkpt lat="-33.607347551733255" lon="-69.91273024119437">
        <ele>3057.2</ele>
        <time>2020-12-05T15:30:14.000Z</time>
      </trkpt>
      <trkpt lat="-33.607347551733255" lon="-69.91273024119437">
        <ele>3057.2</ele>
        <time>2020-12-05T15:30:16.000Z</time>
      </trkpt>
      <trkpt lat="-33.60729985870421" lon="-69.9127578176558">
        <ele>3056.6</ele>
        <time>2020-12-05T15:30:24.000Z</time>
      </trkpt>
      <trkpt lat="-33.60728720203042" lon="-69.91276804357767">
        <ele>3056.4</ele>
        <time>2020-12-05T15:30:25.000Z</time>
      </trkpt>
      <trkpt lat="-33.60725208185613" lon="-69.912797966972">
        <ele>3056</ele>
        <time>2020-12-05T15:30:28.000Z</time>
      </trkpt>
      <trkpt lat="-33.607242442667484" lon="-69.91280953399837">
        <ele>3056</ele>
        <time>2020-12-05T15:30:29.000Z</time>
      </trkpt>
      <trkpt lat="-33.60723062418401" lon="-69.91282881237566">
        <ele>3055.8</ele>
        <time>2020-12-05T15:30:31.000Z</time>
      </trkpt>
      <trkpt lat="-33.60721679404378" lon="-69.91286183707416">
        <ele>3055.8</ele>
        <time>2020-12-05T15:30:37.000Z</time>
      </trkpt>
      <trkpt lat="-33.60721914097667" lon="-69.9128511082381">
        <ele>3055.8</ele>
        <time>2020-12-05T15:30:39.000Z</time>
      </trkpt>
      <trkpt lat="-33.60722861252725" lon="-69.9128373619169">
        <ele>3055.8</ele>
        <time>2020-12-05T15:30:42.000Z</time>
      </trkpt>
      <trkpt lat="-33.60723054036498" lon="-69.91283501498401">
        <ele>3055.8</ele>
        <time>2020-12-05T15:30:44.000Z</time>
      </trkpt>
      <trkpt lat="-33.60722919926047" lon="-69.91284247487783">
        <ele>3055.8</ele>
        <time>2020-12-05T15:30:46.000Z</time>
      </trkpt>
      <trkpt lat="-33.607226349413395" lon="-69.91285068914294">
        <ele>3055.8</ele>
        <time>2020-12-05T15:30:47.000Z</time>
      </trkpt>
      <trkpt lat="-33.607179913669825" lon="-69.91289871744812">
        <ele>3055.4</ele>
        <time>2020-12-05T15:30:54.000Z</time>
      </trkpt>
      <trkpt lat="-33.60716977156699" lon="-69.9129134695977">
        <ele>3055.6</ele>
        <time>2020-12-05T15:30:55.000Z</time>
      </trkpt>
      <trkpt lat="-33.607155438512564" lon="-69.91293082013726">
        <ele>3056</ele>
        <time>2020-12-05T15:30:57.000Z</time>
      </trkpt>
      <trkpt lat="-33.60713800415397" lon="-69.91296736523509">
        <ele>3057</ele>
        <time>2020-12-05T15:31:01.000Z</time>
      </trkpt>
      <trkpt lat="-33.60712199471891" lon="-69.91298547014594">
        <ele>3057.2</ele>
        <time>2020-12-05T15:31:03.000Z</time>
      </trkpt>
      <trkpt lat="-33.6071084998548" lon="-69.91300005465746">
        <ele>3057.6</ele>
        <time>2020-12-05T15:31:05.000Z</time>
      </trkpt>
      <trkpt lat="-33.607090981677175" lon="-69.91302645765245">
        <ele>3058.2</ele>
        <time>2020-12-05T15:31:09.000Z</time>
      </trkpt>
      <trkpt lat="-33.60704043880105" lon="-69.91307456977665">
        <ele>3059.2</ele>
        <time>2020-12-05T15:31:17.000Z</time>
      </trkpt>
      <trkpt lat="-33.607028955593705" lon="-69.91308194585145">
        <ele>3059.2</ele>
        <time>2020-12-05T15:31:18.000Z</time>
      </trkpt>
      <trkpt lat="-33.606981597840786" lon="-69.91311438381672">
        <ele>3058.6</ele>
        <time>2020-12-05T15:31:24.000Z</time>
      </trkpt>
      <trkpt lat="-33.60694413073361" lon="-69.91314589977264">
        <ele>3058.4</ele>
        <time>2020-12-05T15:31:30.000Z</time>
      </trkpt>
      <trkpt lat="-33.60693541355431" lon="-69.9131531920284">
        <ele>3058.2</ele>
        <time>2020-12-05T15:31:32.000Z</time>
      </trkpt>
      <trkpt lat="-33.606931222602725" lon="-69.91315998136997">
        <ele>3058.2</ele>
        <time>2020-12-05T15:31:33.000Z</time>
      </trkpt>
      <trkpt lat="-33.606908256188035" lon="-69.91315520368516">
        <ele>3057.6</ele>
        <time>2020-12-05T15:31:38.000Z</time>
      </trkpt>
      <trkpt lat="-33.60687422566116" lon="-69.91318152286112">
        <ele>3057.2</ele>
        <time>2020-12-05T15:31:44.000Z</time>
      </trkpt>
      <trkpt lat="-33.60686550848186" lon="-69.9131878092885">
        <ele>3057.2</ele>
        <time>2020-12-05T15:31:45.000Z</time>
      </trkpt>
      <trkpt lat="-33.606834495440125" lon="-69.91319359280169">
        <ele>3057</ele>
        <time>2020-12-05T15:31:49.000Z</time>
      </trkpt>
      <trkpt lat="-33.60683667473495" lon="-69.91319342516363">
        <ele>3057</ele>
        <time>2020-12-05T15:31:53.000Z</time>
      </trkpt>
      <trkpt lat="-33.60682535916567" lon="-69.91318847984076">
        <ele>3057</ele>
        <time>2020-12-05T15:32:01.000Z</time>
      </trkpt>
      <trkpt lat="-33.6068254429847" lon="-69.91318562999368">
        <ele>3057</ele>
        <time>2020-12-05T15:32:16.000Z</time>
      </trkpt>
      <trkpt lat="-33.60682502388954" lon="-69.91318454034626">
        <ele>3057</ele>
        <time>2020-12-05T15:32:20.000Z</time>
      </trkpt>
      <trkpt lat="-33.60682502388954" lon="-69.91317758336663">
        <ele>3056.8</ele>
        <time>2020-12-05T15:32:31.000Z</time>
      </trkpt>
      <trkpt lat="-33.606850085780025" lon="-69.91316065192223">
        <ele>3056.2</ele>
        <time>2020-12-05T15:32:42.000Z</time>
      </trkpt>
      <trkpt lat="-33.60685117542744" lon="-69.91315947845578">
        <ele>3056.2</ele>
        <time>2020-12-05T15:32:43.000Z</time>
      </trkpt>
      <trkpt lat="-33.60685142688453" lon="-69.9131582211703">
        <ele>3056.2</ele>
        <time>2020-12-05T15:32:44.000Z</time>
      </trkpt>
      <trkpt lat="-33.60685176216066" lon="-69.91315595805645">
        <ele>3056.2</ele>
        <time>2020-12-05T15:32:53.000Z</time>
      </trkpt>
      <trkpt lat="-33.606850169599056" lon="-69.91315361112356">
        <ele>3056.2</ele>
        <time>2020-12-05T15:33:03.000Z</time>
      </trkpt>
      <trkpt lat="-33.606849582865834" lon="-69.9131534434855">
        <ele>3056.2</ele>
        <time>2020-12-05T15:33:04.000Z</time>
      </trkpt>
      <trkpt lat="-33.60683633945882" lon="-69.91315268911421">
        <ele>3056.2</ele>
        <time>2020-12-05T15:33:33.000Z</time>
      </trkpt>
      <trkpt lat="-33.60682971775532" lon="-69.91315227001905">
        <ele>3056.2</ele>
        <time>2020-12-05T15:33:49.000Z</time>
      </trkpt>
      <trkpt lat="-33.606795351952314" lon="-69.91317917592824">
        <ele>3057</ele>
        <time>2020-12-05T15:34:17.000Z</time>
      </trkpt>
      <trkpt lat="-33.60679158009589" lon="-69.91318311542273">
        <ele>3057</ele>
        <time>2020-12-05T15:34:18.000Z</time>
      </trkpt>
      <trkpt lat="-33.60678814351559" lon="-69.91318655200303">
        <ele>3057.2</ele>
        <time>2020-12-05T15:34:19.000Z</time>
      </trkpt>
      <trkpt lat="-33.60678252764046" lon="-69.91319132968783">
        <ele>3057.4</ele>
        <time>2020-12-05T15:34:20.000Z</time>
      </trkpt>
      <trkpt lat="-33.60677657648921" lon="-69.91319384425879">
        <ele>3057.4</ele>
        <time>2020-12-05T15:34:21.000Z</time>
      </trkpt>
      <trkpt lat="-33.606770960614085" lon="-69.91320080123842">
        <ele>3057.6</ele>
        <time>2020-12-05T15:34:23.000Z</time>
      </trkpt>
      <trkpt lat="-33.60675126314163" lon="-69.91321119479835">
        <ele>3058</ele>
        <time>2020-12-05T15:34:27.000Z</time>
      </trkpt>
      <trkpt lat="-33.60674397088587" lon="-69.9132380168885">
        <ele>3058.4</ele>
        <time>2020-12-05T15:34:30.000Z</time>
      </trkpt>
      <trkpt lat="-33.606725446879864" lon="-69.91325251758099">
        <ele>3059</ele>
        <time>2020-12-05T15:34:32.000Z</time>
      </trkpt>
      <trkpt lat="-33.606717651709914" lon="-69.91326039656997">
        <ele>3059.2</ele>
        <time>2020-12-05T15:34:33.000Z</time>
      </trkpt>
      <trkpt lat="-33.606717651709914" lon="-69.91326039656997">
        <ele>3059.2</ele>
        <time>2020-12-05T15:34:33.000Z</time>
      </trkpt>
      <trkpt lat="-33.606699127703905" lon="-69.91327439434826">
        <ele>3059.6</ele>
        <time>2020-12-05T15:34:36.000Z</time>
      </trkpt>
      <trkpt lat="-33.606691332533956" lon="-69.91328344680369">
        <ele>3059.8</ele>
        <time>2020-12-05T15:34:38.000Z</time>
      </trkpt>
      <trkpt lat="-33.606678172945976" lon="-69.91329560056329">
        <ele>3060</ele>
        <time>2020-12-05T15:34:40.000Z</time>
      </trkpt>
      <trkpt lat="-33.606615560129285" lon="-69.91335117258132">
        <ele>3061.6</ele>
        <time>2020-12-05T15:34:49.000Z</time>
      </trkpt>
      <trkpt lat="-33.60657482407987" lon="-69.9133743904531">
        <ele>3062.2</ele>
        <time>2020-12-05T15:34:55.000Z</time>
      </trkpt>
      <trkpt lat="-33.60654984600842" lon="-69.91338922642171">
        <ele>3062.8</ele>
        <time>2020-12-05T15:34:58.000Z</time>
      </trkpt>
      <trkpt lat="-33.606504583731294" lon="-69.91340816952288">
        <ele>3063</ele>
        <time>2020-12-05T15:35:04.000Z</time>
      </trkpt>
      <trkpt lat="-33.60644171945751" lon="-69.91344639100134">
        <ele>3062.6</ele>
        <time>2020-12-05T15:35:12.000Z</time>
      </trkpt>
      <trkpt lat="-33.60643501393497" lon="-69.91344731301069">
        <ele>3062.4</ele>
        <time>2020-12-05T15:35:13.000Z</time>
      </trkpt>
      <trkpt lat="-33.60642026178539" lon="-69.913463992998">
        <ele>3062.4</ele>
        <time>2020-12-05T15:35:16.000Z</time>
      </trkpt>
      <trkpt lat="-33.606406934559345" lon="-69.9134869594127">
        <ele>3062.4</ele>
        <time>2020-12-05T15:35:19.000Z</time>
      </trkpt>
      <trkpt lat="-33.606394194066525" lon="-69.91350137628615">
        <ele>3062.2</ele>
        <time>2020-12-05T15:35:24.000Z</time>
      </trkpt>
      <trkpt lat="-33.60638908110559" lon="-69.91350866854191">
        <ele>3062.2</ele>
        <time>2020-12-05T15:35:26.000Z</time>
      </trkpt>
      <trkpt lat="-33.60636888071895" lon="-69.91352275013924">
        <ele>3062</ele>
        <time>2020-12-05T15:35:30.000Z</time>
      </trkpt>
      <trkpt lat="-33.60635873861611" lon="-69.9135348200798">
        <ele>3062</ele>
        <time>2020-12-05T15:35:33.000Z</time>
      </trkpt>
      <trkpt lat="-33.60635454766452" lon="-69.91355258971453">
        <ele>3062</ele>
        <time>2020-12-05T15:35:36.000Z</time>
      </trkpt>
      <trkpt lat="-33.60634231008589" lon="-69.91356709040701">
        <ele>3062</ele>
        <time>2020-12-05T15:35:39.000Z</time>
      </trkpt>
      <trkpt lat="-33.606328312307596" lon="-69.91357857361436">
        <ele>3061.8</ele>
        <time>2020-12-05T15:35:41.000Z</time>
      </trkpt>
      <trkpt lat="-33.606302915140986" lon="-69.91360338404775">
        <ele>3061.6</ele>
        <time>2020-12-05T15:35:45.000Z</time>
      </trkpt>
      <trkpt lat="-33.606291599571705" lon="-69.91361352615058">
        <ele>3061.6</ele>
        <time>2020-12-05T15:35:46.000Z</time>
      </trkpt>
      <trkpt lat="-33.60626704059541" lon="-69.91363758221269">
        <ele>3061.4</ele>
        <time>2020-12-05T15:35:49.000Z</time>
      </trkpt>
      <trkpt lat="-33.60625681467354" lon="-69.91364621557295">
        <ele>3061.2</ele>
        <time>2020-12-05T15:35:50.000Z</time>
      </trkpt>
      <trkpt lat="-33.60624583438039" lon="-69.91365853697062">
        <ele>3061.2</ele>
        <time>2020-12-05T15:35:52.000Z</time>
      </trkpt>
      <trkpt lat="-33.606237368658185" lon="-69.91366633214056">
        <ele>3061.2</ele>
        <time>2020-12-05T15:35:54.000Z</time>
      </trkpt>
      <trkpt lat="-33.6062226165086" lon="-69.91367362439632">
        <ele>3061</ele>
        <time>2020-12-05T15:35:56.000Z</time>
      </trkpt>
      <trkpt lat="-33.60617509111762" lon="-69.91371729411185">
        <ele>3060.6</ele>
        <time>2020-12-05T15:36:03.000Z</time>
      </trkpt>
      <trkpt lat="-33.606155728921294" lon="-69.91375031881034">
        <ele>3061.2</ele>
        <time>2020-12-05T15:36:07.000Z</time>
      </trkpt>
      <trkpt lat="-33.60614424571395" lon="-69.91376004181802">
        <ele>3061.6</ele>
        <time>2020-12-05T15:36:09.000Z</time>
      </trkpt>
      <trkpt lat="-33.60612127929926" lon="-69.91376758553088">
        <ele>3061.8</ele>
        <time>2020-12-05T15:36:12.000Z</time>
      </trkpt>
      <trkpt lat="-33.60611407086253" lon="-69.91377370432019">
        <ele>3062</ele>
        <time>2020-12-05T15:36:13.000Z</time>
      </trkpt>
      <trkpt lat="-33.60607928596437" lon="-69.91380320861936">
        <ele>3063</ele>
        <time>2020-12-05T15:36:18.000Z</time>
      </trkpt>
      <trkpt lat="-33.60604374669492" lon="-69.91382676176727">
        <ele>3062.4</ele>
        <time>2020-12-05T15:36:24.000Z</time>
      </trkpt>
      <trkpt lat="-33.60605129040778" lon="-69.91382609121501">
        <ele>3062.6</ele>
        <time>2020-12-05T15:36:27.000Z</time>
      </trkpt>
      <trkpt lat="-33.60603276640177" lon="-69.91384411230683">
        <ele>3062.6</ele>
        <time>2020-12-05T15:36:32.000Z</time>
      </trkpt>
      <trkpt lat="-33.60602304339409" lon="-69.91385215893388">
        <ele>3062.4</ele>
        <time>2020-12-05T15:36:33.000Z</time>
      </trkpt>
      <trkpt lat="-33.60596789047122" lon="-69.9138955771923">
        <ele>3063.8</ele>
        <time>2020-12-05T15:36:43.000Z</time>
      </trkpt>
      <trkpt lat="-33.605915335938334" lon="-69.91393874399364">
        <ele>3065.2</ele>
        <time>2020-12-05T15:36:50.000Z</time>
      </trkpt>
      <trkpt lat="-33.605908462777734" lon="-69.91394033655524">
        <ele>3065.4</ele>
        <time>2020-12-05T15:36:52.000Z</time>
      </trkpt>
      <trkpt lat="-33.60589899122715" lon="-69.91394352167845">
        <ele>3065.4</ele>
        <time>2020-12-05T15:36:54.000Z</time>
      </trkpt>
      <trkpt lat="-33.60588675364852" lon="-69.91395257413387">
        <ele>3065.8</ele>
        <time>2020-12-05T15:36:57.000Z</time>
      </trkpt>
      <trkpt lat="-33.60583302564919" lon="-69.91398953832686">
        <ele>3067.2</ele>
        <time>2020-12-05T15:37:02.000Z</time>
      </trkpt>
      <trkpt lat="-33.6057860031724" lon="-69.91400085389614">
        <ele>3067.8</ele>
        <time>2020-12-05T15:37:06.000Z</time>
      </trkpt>
      <trkpt lat="-33.60574518330395" lon="-69.91399498656392">
        <ele>3067.8</ele>
        <time>2020-12-05T15:37:09.000Z</time>
      </trkpt>
      <trkpt lat="-33.60571383498609" lon="-69.91399775259197">
        <ele>3068</ele>
        <time>2020-12-05T15:37:12.000Z</time>
      </trkpt>
      <trkpt lat="-33.605707632377744" lon="-69.91400831378996">
        <ele>3068.4</ele>
        <time>2020-12-05T15:37:13.000Z</time>
      </trkpt>
      <trkpt lat="-33.60569036565721" lon="-69.9140395782888">
        <ele>3069.4</ele>
        <time>2020-12-05T15:37:16.000Z</time>
      </trkpt>
      <trkpt lat="-33.60566354356706" lon="-69.91405818611383">
        <ele>3070</ele>
        <time>2020-12-05T15:37:19.000Z</time>
      </trkpt>
      <trkpt lat="-33.60564451664686" lon="-69.9140705075115">
        <ele>3070.4</ele>
        <time>2020-12-05T15:37:21.000Z</time>
      </trkpt>
      <trkpt lat="-33.6056372243911" lon="-69.91407645866275">
        <ele>3070.6</ele>
        <time>2020-12-05T15:37:22.000Z</time>
      </trkpt>
      <trkpt lat="-33.60560688190162" lon="-69.91410587914288">
        <ele>3071.6</ele>
        <time>2020-12-05T15:37:25.000Z</time>
      </trkpt>
      <trkpt lat="-33.60557897016406" lon="-69.91411468014121">
        <ele>3072</ele>
        <time>2020-12-05T15:37:28.000Z</time>
      </trkpt>
      <trkpt lat="-33.605475621297956" lon="-69.91414837539196">
        <ele>3071.4</ele>
        <time>2020-12-05T15:37:39.000Z</time>
      </trkpt>
      <trkpt lat="-33.60540194436908" lon="-69.91421082057059">
        <ele>3071.2</ele>
        <time>2020-12-05T15:37:47.000Z</time>
      </trkpt>
      <trkpt lat="-33.60534184612334" lon="-69.91425599902868">
        <ele>3070.8</ele>
        <time>2020-12-05T15:37:54.000Z</time>
      </trkpt>
      <trkpt lat="-33.60533128492534" lon="-69.91425717249513">
        <ele>3070.8</ele>
        <time>2020-12-05T15:37:56.000Z</time>
      </trkpt>
      <trkpt lat="-33.60531024634838" lon="-69.91426354274154">
        <ele>3070.6</ele>
        <time>2020-12-05T15:37:58.000Z</time>
      </trkpt>
      <trkpt lat="-33.605299266055226" lon="-69.91426966153085">
        <ele>3070.6</ele>
        <time>2020-12-05T15:38:00.000Z</time>
      </trkpt>
      <trkpt lat="-33.60521536320448" lon="-69.91430746391416">
        <ele>3069.8</ele>
        <time>2020-12-05T15:38:09.000Z</time>
      </trkpt>
      <trkpt lat="-33.605178985744715" lon="-69.91434074006975">
        <ele>3069.8</ele>
        <time>2020-12-05T15:38:14.000Z</time>
      </trkpt>
      <trkpt lat="-33.60516213811934" lon="-69.91434032097459">
        <ele>3070.2</ele>
        <time>2020-12-05T15:38:16.000Z</time>
      </trkpt>
      <trkpt lat="-33.60515275038779" lon="-69.91434241645038">
        <ele>3070.2</ele>
        <time>2020-12-05T15:38:17.000Z</time>
      </trkpt>
      <trkpt lat="-33.60510111786425" lon="-69.91436798125505">
        <ele>3071.2</ele>
        <time>2020-12-05T15:38:24.000Z</time>
      </trkpt>
      <trkpt lat="-33.60507303848863" lon="-69.91437778808177">
        <ele>3071.8</ele>
        <time>2020-12-05T15:38:27.000Z</time>
      </trkpt>
      <trkpt lat="-33.60504537820816" lon="-69.91438985802233">
        <ele>3072.2</ele>
        <time>2020-12-05T15:38:30.000Z</time>
      </trkpt>
      <trkpt lat="-33.605033811181784" lon="-69.9143913667649">
        <ele>3072.4</ele>
        <time>2020-12-05T15:38:31.000Z</time>
      </trkpt>
      <trkpt lat="-33.604957703500986" lon="-69.9144035205245">
        <ele>3072.6</ele>
        <time>2020-12-05T15:38:39.000Z</time>
      </trkpt>
      <trkpt lat="-33.60491017811" lon="-69.91438994184136">
        <ele>3072.6</ele>
        <time>2020-12-05T15:38:45.000Z</time>
      </trkpt>
      <trkpt lat="-33.60484689474106" lon="-69.91436454467475">
        <ele>3072.6</ele>
        <time>2020-12-05T15:38:54.000Z</time>
      </trkpt>
      <trkpt lat="-33.60484597273171" lon="-69.91436479613185">
        <ele>3072.6</ele>
        <time>2020-12-05T15:38:55.000Z</time>
      </trkpt>
      <trkpt lat="-33.60482593998313" lon="-69.9143691547215">
        <ele>3072.6</ele>
        <time>2020-12-05T15:38:59.000Z</time>
      </trkpt>
      <trkpt lat="-33.604775900021195" lon="-69.91439656354487">
        <ele>3072.2</ele>
        <time>2020-12-05T15:39:07.000Z</time>
      </trkpt>
      <trkpt lat="-33.6047169752419" lon="-69.91444794461131">
        <ele>3071.8</ele>
        <time>2020-12-05T15:39:17.000Z</time>
      </trkpt>
      <trkpt lat="-33.60464564524591" lon="-69.9144624453038">
        <ele>3071.4</ele>
        <time>2020-12-05T15:39:24.000Z</time>
      </trkpt>
      <trkpt lat="-33.604607256129384" lon="-69.91446864791214">
        <ele>3071.4</ele>
        <time>2020-12-05T15:39:27.000Z</time>
      </trkpt>
      <trkpt lat="-33.60456165857613" lon="-69.91446915082633">
        <ele>3071.2</ele>
        <time>2020-12-05T15:39:32.000Z</time>
      </trkpt>
      <trkpt lat="-33.6045562941581" lon="-69.91446294821799">
        <ele>3071.2</ele>
        <time>2020-12-05T15:39:33.000Z</time>
      </trkpt>
      <trkpt lat="-33.60453852452338" lon="-69.91446177475154">
        <ele>3071.2</ele>
        <time>2020-12-05T15:39:36.000Z</time>
      </trkpt>
      <trkpt lat="-33.604512540623546" lon="-69.91448423825204">
        <ele>3071</ele>
        <time>2020-12-05T15:39:39.000Z</time>
      </trkpt>
      <trkpt lat="-33.6044992133975" lon="-69.91448909975588">
        <ele>3071</ele>
        <time>2020-12-05T15:39:41.000Z</time>
      </trkpt>
      <trkpt lat="-33.604488568380475" lon="-69.91449127905071">
        <ele>3070.8</ele>
        <time>2020-12-05T15:39:42.000Z</time>
      </trkpt>
      <trkpt lat="-33.60448001883924" lon="-69.9144949670881">
        <ele>3070.8</ele>
        <time>2020-12-05T15:39:43.000Z</time>
      </trkpt>
      <trkpt lat="-33.60445738770068" lon="-69.91449831984937">
        <ele>3070.8</ele>
        <time>2020-12-05T15:39:47.000Z</time>
      </trkpt>
      <trkpt lat="-33.604408940300345" lon="-69.91455674171448">
        <ele>3070.2</ele>
        <time>2020-12-05T15:39:56.000Z</time>
      </trkpt>
      <trkpt lat="-33.6044008936733" lon="-69.91456554271281">
        <ele>3070.2</ele>
        <time>2020-12-05T15:39:58.000Z</time>
      </trkpt>
      <trkpt lat="-33.60438136383891" lon="-69.91456638090312">
        <ele>3070</ele>
        <time>2020-12-05T15:40:03.000Z</time>
      </trkpt>
      <trkpt lat="-33.604361498728395" lon="-69.91456244140863">
        <ele>3070</ele>
        <time>2020-12-05T15:40:06.000Z</time>
      </trkpt>
      <trkpt lat="-33.604324450716376" lon="-69.91456612944603">
        <ele>3070.4</ele>
        <time>2020-12-05T15:40:10.000Z</time>
      </trkpt>
      <trkpt lat="-33.60430299304426" lon="-69.91457023657858">
        <ele>3070.8</ele>
        <time>2020-12-05T15:40:12.000Z</time>
      </trkpt>
      <trkpt lat="-33.604255551472306" lon="-69.91458741948009">
        <ele>3072.2</ele>
        <time>2020-12-05T15:40:17.000Z</time>
      </trkpt>
      <trkpt lat="-33.604218419641256" lon="-69.91459429264069">
        <ele>3073</ele>
        <time>2020-12-05T15:40:21.000Z</time>
      </trkpt>
      <trkpt lat="-33.60417885705829" lon="-69.91459647193551">
        <ele>3073.6</ele>
        <time>2020-12-05T15:40:25.000Z</time>
      </trkpt>
      <trkpt lat="-33.60413560643792" lon="-69.9146038480103">
        <ele>3074.6</ele>
        <time>2020-12-05T15:40:30.000Z</time>
      </trkpt>
      <trkpt lat="-33.60411993227899" lon="-69.9146128166467">
        <ele>3075.2</ele>
        <time>2020-12-05T15:40:32.000Z</time>
      </trkpt>
      <trkpt lat="-33.60409403219819" lon="-69.91464592516422">
        <ele>3076.8</ele>
        <time>2020-12-05T15:40:39.000Z</time>
      </trkpt>
      <trkpt lat="-33.60408456064761" lon="-69.91465263068676">
        <ele>3077.2</ele>
        <time>2020-12-05T15:40:40.000Z</time>
      </trkpt>
      <trkpt lat="-33.60402907244861" lon="-69.91468791849911">
        <ele>3079.4</ele>
        <time>2020-12-05T15:40:47.000Z</time>
      </trkpt>
      <trkpt lat="-33.60393460839987" lon="-69.91472798399627">
        <ele>3082.4</ele>
        <time>2020-12-05T15:40:55.000Z</time>
      </trkpt>
      <trkpt lat="-33.60389362089336" lon="-69.9147436581552">
        <ele>3083.8</ele>
        <time>2020-12-05T15:40:59.000Z</time>
      </trkpt>
      <trkpt lat="-33.603885658085346" lon="-69.91474726237357">
        <ele>3084</ele>
        <time>2020-12-05T15:41:00.000Z</time>
      </trkpt>
      <trkpt lat="-33.603861182928085" lon="-69.9147542193532">
        <ele>3084.6</ele>
        <time>2020-12-05T15:41:03.000Z</time>
      </trkpt>
      <trkpt lat="-33.603808376938105" lon="-69.91476838476956">
        <ele>3086</ele>
        <time>2020-12-05T15:41:09.000Z</time>
      </trkpt>
      <trkpt lat="-33.6037811357528" lon="-69.91477626375854">
        <ele>3086.6</ele>
        <time>2020-12-05T15:41:13.000Z</time>
      </trkpt>
      <trkpt lat="-33.60374869778752" lon="-69.91478498093784">
        <ele>3087.4</ele>
        <time>2020-12-05T15:41:17.000Z</time>
      </trkpt>
      <trkpt lat="-33.60372941941023" lon="-69.91479931399226">
        <ele>3088</ele>
        <time>2020-12-05T15:41:21.000Z</time>
      </trkpt>
      <trkpt lat="-33.603716008365154" lon="-69.91479973308742">
        <ele>3088</ele>
        <time>2020-12-05T15:41:24.000Z</time>
      </trkpt>
      <trkpt lat="-33.60370368696749" lon="-69.91480878554285">
        <ele>3088</ele>
        <time>2020-12-05T15:41:30.000Z</time>
      </trkpt>
      <trkpt lat="-33.603705279529095" lon="-69.91480568423867">
        <ele>3088</ele>
        <time>2020-12-05T15:41:37.000Z</time>
      </trkpt>
      <trkpt lat="-33.60369153320789" lon="-69.91481708362699">
        <ele>3088.2</ele>
        <time>2020-12-05T15:41:59.000Z</time>
      </trkpt>
      <trkpt lat="-33.603681894019246" lon="-69.91482110694051">
        <ele>3088.2</ele>
        <time>2020-12-05T15:42:09.000Z</time>
      </trkpt>
      <trkpt lat="-33.603680804371834" lon="-69.91482127457857">
        <ele>3088.2</ele>
        <time>2020-12-05T15:42:11.000Z</time>
      </trkpt>
      <trkpt lat="-33.60368021763861" lon="-69.91482169367373">
        <ele>3088.2</ele>
        <time>2020-12-05T15:42:13.000Z</time>
      </trkpt>
      <trkpt lat="-33.603678876534104" lon="-69.9148213583976">
        <ele>3088.2</ele>
        <time>2020-12-05T15:42:16.000Z</time>
      </trkpt>
      <trkpt lat="-33.60366638749838" lon="-69.91482554934919">
        <ele>3088.2</ele>
        <time>2020-12-05T15:42:34.000Z</time>
      </trkpt>
      <trkpt lat="-33.60366554930806" lon="-69.91482655517757">
        <ele>3088.2</ele>
        <time>2020-12-05T15:42:41.000Z</time>
      </trkpt>
      <trkpt lat="-33.6036651302129" lon="-69.91482655517757">
        <ele>3088.2</ele>
        <time>2020-12-05T15:42:45.000Z</time>
      </trkpt>
      <trkpt lat="-33.603664711117744" lon="-69.91482739336789">
        <ele>3088.2</ele>
        <time>2020-12-05T15:42:48.000Z</time>
      </trkpt>
      <trkpt lat="-33.60366244800389" lon="-69.91482974030077">
        <ele>3088.2</ele>
        <time>2020-12-05T15:43:00.000Z</time>
      </trkpt>
      <trkpt lat="-33.60366202890873" lon="-69.91482915356755">
        <ele>3088.2</ele>
        <time>2020-12-05T15:43:01.000Z</time>
      </trkpt>
      <trkpt lat="-33.60365088097751" lon="-69.9148319195956">
        <ele>3088.2</ele>
        <time>2020-12-05T15:43:23.000Z</time>
      </trkpt>
      <trkpt lat="-33.60364643856883" lon="-69.91483242250979">
        <ele>3088.2</ele>
        <time>2020-12-05T15:43:39.000Z</time>
      </trkpt>
      <trkpt lat="-33.60364643856883" lon="-69.91483435034752">
        <ele>3088.2</ele>
        <time>2020-12-05T15:43:49.000Z</time>
      </trkpt>
      <trkpt lat="-33.603644762188196" lon="-69.91484633646905">
        <ele>3088.4</ele>
        <time>2020-12-05T15:43:57.000Z</time>
      </trkpt>
      <trkpt lat="-33.603644259274006" lon="-69.9148475099355">
        <ele>3088.4</ele>
        <time>2020-12-05T15:43:58.000Z</time>
      </trkpt>
      <trkpt lat="-33.60364300198853" lon="-69.91484893485904">
        <ele>3088.4</ele>
        <time>2020-12-05T15:44:00.000Z</time>
      </trkpt>
      <trkpt lat="-33.6036410741508" lon="-69.91484968923032">
        <ele>3088.4</ele>
        <time>2020-12-05T15:44:02.000Z</time>
      </trkpt>
      <trkpt lat="-33.603632440790534" lon="-69.91484968923032">
        <ele>3088.4</ele>
        <time>2020-12-05T15:44:19.000Z</time>
      </trkpt>
      <trkpt lat="-33.60362883657217" lon="-69.91484013386071">
        <ele>3088.2</ele>
        <time>2020-12-05T15:44:31.000Z</time>
      </trkpt>
      <trkpt lat="-33.60362841747701" lon="-69.91483787074685">
        <ele>3088.2</ele>
        <time>2020-12-05T15:44:33.000Z</time>
      </trkpt>
      <trkpt lat="-33.603627579286695" lon="-69.91482680663466">
        <ele>3088</ele>
        <time>2020-12-05T15:44:46.000Z</time>
      </trkpt>
      <trkpt lat="-33.60362749546766" lon="-69.914825046435">
        <ele>3087.8</ele>
        <time>2020-12-05T15:44:54.000Z</time>
      </trkpt>
      <trkpt lat="-33.603554740548134" lon="-69.91481741890311">
        <ele>3087.2</ele>
        <time>2020-12-05T15:45:04.000Z</time>
      </trkpt>
      <trkpt lat="-33.60354216769338" lon="-69.91481532342732">
        <ele>3087.2</ele>
        <time>2020-12-05T15:45:06.000Z</time>
      </trkpt>
      <trkpt lat="-33.603526493534446" lon="-69.91481364704669">
        <ele>3087</ele>
        <time>2020-12-05T15:45:08.000Z</time>
      </trkpt>
      <trkpt lat="-33.60349791124463" lon="-69.91481398232281">
        <ele>3087.2</ele>
        <time>2020-12-05T15:45:11.000Z</time>
      </trkpt>
      <trkpt lat="-33.60344745218754" lon="-69.91483141668141">
        <ele>3088.2</ele>
        <time>2020-12-05T15:45:17.000Z</time>
      </trkpt>
      <trkpt lat="-33.60343035310507" lon="-69.91483401507139">
        <ele>3088.4</ele>
        <time>2020-12-05T15:45:19.000Z</time>
      </trkpt>
      <trkpt lat="-33.603420881554484" lon="-69.91483761928976">
        <ele>3088.6</ele>
        <time>2020-12-05T15:45:20.000Z</time>
      </trkpt>
      <trkpt lat="-33.60340830869973" lon="-69.91483845748007">
        <ele>3088.6</ele>
        <time>2020-12-05T15:45:21.000Z</time>
      </trkpt>
      <trkpt lat="-33.60337167978287" lon="-69.91483778692782">
        <ele>3089</ele>
        <time>2020-12-05T15:45:28.000Z</time>
      </trkpt>
      <trkpt lat="-33.60337167978287" lon="-69.91483778692782">
        <ele>3089</ele>
        <time>2020-12-05T15:45:29.000Z</time>
      </trkpt>
      <trkpt lat="-33.6033733561635" lon="-69.91482839919627">
        <ele>3088.8</ele>
        <time>2020-12-05T15:45:40.000Z</time>
      </trkpt>
      <trkpt lat="-33.60337285324931" lon="-69.91482839919627">
        <ele>3088.8</ele>
        <time>2020-12-05T15:45:51.000Z</time>
      </trkpt>
      <trkpt lat="-33.603326585143805" lon="-69.91481029428542">
        <ele>3089</ele>
        <time>2020-12-05T15:45:56.000Z</time>
      </trkpt>
      <trkpt lat="-33.60330202616751" lon="-69.91480384021997">
        <ele>3089.2</ele>
        <time>2020-12-05T15:45:58.000Z</time>
      </trkpt>
      <trkpt lat="-33.60327361151576" lon="-69.91479210555553">
        <ele>3089.2</ele>
        <time>2020-12-05T15:46:03.000Z</time>
      </trkpt>
      <trkpt lat="-33.60325123183429" lon="-69.91477391682565">
        <ele>3089</ele>
        <time>2020-12-05T15:46:10.000Z</time>
      </trkpt>
      <trkpt lat="-33.60325148329139" lon="-69.9147732462734">
        <ele>3089</ele>
        <time>2020-12-05T15:46:11.000Z</time>
      </trkpt>
      <trkpt lat="-33.603214267641306" lon="-69.91477366536856">
        <ele>3089.4</ele>
        <time>2020-12-05T15:46:19.000Z</time>
      </trkpt>
      <trkpt lat="-33.6032110825181" lon="-69.91477685049176">
        <ele>3089.6</ele>
        <time>2020-12-05T15:46:20.000Z</time>
      </trkpt>
      <trkpt lat="-33.60319406725466" lon="-69.91477861069143">
        <ele>3089.8</ele>
        <time>2020-12-05T15:46:25.000Z</time>
      </trkpt>
      <trkpt lat="-33.60317814163864" lon="-69.9147938657552">
        <ele>3090.2</ele>
        <time>2020-12-05T15:46:32.000Z</time>
      </trkpt>
      <trkpt lat="-33.603171268478036" lon="-69.91479906253517">
        <ele>3090.4</ele>
        <time>2020-12-05T15:46:36.000Z</time>
      </trkpt>
      <trkpt lat="-33.6031508166343" lon="-69.91480895318091">
        <ele>3090.8</ele>
        <time>2020-12-05T15:46:40.000Z</time>
      </trkpt>
      <trkpt lat="-33.60314545221627" lon="-69.9148110486567">
        <ele>3091</ele>
        <time>2020-12-05T15:46:41.000Z</time>
      </trkpt>
      <trkpt lat="-33.60312324017286" lon="-69.91482202894986">
        <ele>3091.4</ele>
        <time>2020-12-05T15:46:50.000Z</time>
      </trkpt>
      <trkpt lat="-33.60314863733947" lon="-69.91482621990144">
        <ele>3091.2</ele>
        <time>2020-12-05T15:46:58.000Z</time>
      </trkpt>
      <trkpt lat="-33.60316908918321" lon="-69.9148454144597">
        <ele>3091.4</ele>
        <time>2020-12-05T15:47:05.000Z</time>
      </trkpt>
      <trkpt lat="-33.60317453742027" lon="-69.91484734229743">
        <ele>3091.4</ele>
        <time>2020-12-05T15:47:07.000Z</time>
      </trkpt>
      <trkpt lat="-33.60315877944231" lon="-69.91484583355486">
        <ele>3091.6</ele>
        <time>2020-12-05T15:47:09.000Z</time>
      </trkpt>
      <trkpt lat="-33.60315492376685" lon="-69.91484373807907">
        <ele>3091.6</ele>
        <time>2020-12-05T15:47:11.000Z</time>
      </trkpt>
      <trkpt lat="-33.603173112496734" lon="-69.9148284830153">
        <ele>3091</ele>
        <time>2020-12-05T15:47:14.000Z</time>
      </trkpt>
      <trkpt lat="-33.60317277722061" lon="-69.91483594290912">
        <ele>3091.2</ele>
        <time>2020-12-05T15:47:17.000Z</time>
      </trkpt>
      <trkpt lat="-33.603154085576534" lon="-69.9148366972804">
        <ele>3091.4</ele>
        <time>2020-12-05T15:47:18.000Z</time>
      </trkpt>
      <trkpt lat="-33.603156516328454" lon="-69.9148459173739">
        <ele>3091.6</ele>
        <time>2020-12-05T15:47:38.000Z</time>
      </trkpt>
      <trkpt lat="-33.60315869562328" lon="-69.914893778041">
        <ele>3092.4</ele>
        <time>2020-12-05T15:48:01.000Z</time>
      </trkpt>
      <trkpt lat="-33.60312374308705" lon="-69.9149318318814">
        <ele>3093.6</ele>
        <time>2020-12-05T15:48:13.000Z</time>
      </trkpt>
      <trkpt lat="-33.60313187353313" lon="-69.91496619768441">
        <ele>3094.2</ele>
        <time>2020-12-05T15:48:16.000Z</time>
      </trkpt>
      <trkpt lat="-33.60313187353313" lon="-69.91498279385269">
        <ele>3094.6</ele>
        <time>2020-12-05T15:48:17.000Z</time>
      </trkpt>
      <trkpt lat="-33.60314603894949" lon="-69.91507113911211">
        <ele>3096.2</ele>
        <time>2020-12-05T15:48:24.000Z</time>
      </trkpt>
      <trkpt lat="-33.60315567813814" lon="-69.91511137224734">
        <ele>3097</ele>
        <time>2020-12-05T15:48:30.000Z</time>
      </trkpt>
      <trkpt lat="-33.60315618105233" lon="-69.91514381021261">
        <ele>3097.8</ele>
        <time>2020-12-05T15:48:37.000Z</time>
      </trkpt>
      <trkpt lat="-33.603137070313096" lon="-69.91517566144466">
        <ele>3098.6</ele>
        <time>2020-12-05T15:48:45.000Z</time>
      </trkpt>
      <trkpt lat="-33.603109661489725" lon="-69.91518689319491">
        <ele>3099.2</ele>
        <time>2020-12-05T15:48:53.000Z</time>
      </trkpt>
      <trkpt lat="-33.60308200120926" lon="-69.91519284434617">
        <ele>3099.6</ele>
        <time>2020-12-05T15:49:02.000Z</time>
      </trkpt>
      <trkpt lat="-33.6030763015151" lon="-69.9151947721839">
        <ele>3099.8</ele>
        <time>2020-12-05T15:49:08.000Z</time>
      </trkpt>
      <trkpt lat="-33.60304947942495" lon="-69.91520625539124">
        <ele>3100.4</ele>
        <time>2020-12-05T15:49:22.000Z</time>
      </trkpt>
      <trkpt lat="-33.60304947942495" lon="-69.91520625539124">
        <ele>3100.4</ele>
        <time>2020-12-05T15:49:30.000Z</time>
      </trkpt>
      <trkpt lat="-33.60304947942495" lon="-69.91520625539124">
        <ele>3100.4</ele>
        <time>2020-12-05T15:49:34.000Z</time>
      </trkpt>
      <trkpt lat="-33.60304436646402" lon="-69.91521061398089">
        <ele>3100.6</ele>
        <time>2020-12-05T15:49:37.000Z</time>
      </trkpt>
      <trkpt lat="-33.60300346277654" lon="-69.91523802280426">
        <ele>3101.6</ele>
        <time>2020-12-05T15:49:49.000Z</time>
      </trkpt>
      <trkpt lat="-33.602960631251335" lon="-69.91527917794883">
        <ele>3103</ele>
        <time>2020-12-05T15:50:03.000Z</time>
      </trkpt>
      <trkpt lat="-33.60293556936085" lon="-69.91532485932112">
        <ele>3104.4</ele>
        <time>2020-12-05T15:50:16.000Z</time>
      </trkpt>
      <trkpt lat="-33.60289005562663" lon="-69.91536810994148">
        <ele>3105.8</ele>
        <time>2020-12-05T15:50:32.000Z</time>
      </trkpt>
      <trkpt lat="-33.60287295654416" lon="-69.91542208939791">
        <ele>3107.6</ele>
        <time>2020-12-05T15:50:40.000Z</time>
      </trkpt>
      <trkpt lat="-33.60286650247872" lon="-69.91543122567236">
        <ele>3108</ele>
        <time>2020-12-05T15:50:49.000Z</time>
      </trkpt>
      <trkpt lat="-33.602881422266364" lon="-69.9155074171722">
        <ele>3111.2</ele>
        <time>2020-12-05T15:51:34.000Z</time>
      </trkpt>
      <trkpt lat="-33.60284646973014" lon="-69.91557137109339">
        <ele>3114.4</ele>
        <time>2020-12-05T15:51:48.000Z</time>
      </trkpt>
      <trkpt lat="-33.60283724963665" lon="-69.91557883098722">
        <ele>3114.8</ele>
        <time>2020-12-05T15:52:02.000Z</time>
      </trkpt>
      <trkpt lat="-33.60283523797989" lon="-69.91555938497186">
        <ele>3114</ele>
        <time>2020-12-05T15:52:18.000Z</time>
      </trkpt>
      <trkpt lat="-33.60283347778022" lon="-69.9155587144196">
        <ele>3114</ele>
        <time>2020-12-05T15:52:21.000Z</time>
      </trkpt>
      <trkpt lat="-33.60283037647605" lon="-69.9155587144196">
        <ele>3114</ele>
        <time>2020-12-05T15:52:31.000Z</time>
      </trkpt>
      <trkpt lat="-33.60283037647605" lon="-69.9155587144196">
        <ele>3114</ele>
        <time>2020-12-05T15:52:32.000Z</time>
      </trkpt>
      <trkpt lat="-33.60283037647605" lon="-69.91555904969573">
        <ele>3114</ele>
        <time>2020-12-05T15:52:34.000Z</time>
      </trkpt>
      <trkpt lat="-33.60283037647605" lon="-69.91555678658187">
        <ele>3113.8</ele>
        <time>2020-12-05T15:52:36.000Z</time>
      </trkpt>
      <trkpt lat="-33.60282953828573" lon="-69.91555678658187">
        <ele>3114</ele>
        <time>2020-12-05T15:52:38.000Z</time>
      </trkpt>
      <trkpt lat="-33.60282903537154" lon="-69.9155592173338">
        <ele>3114</ele>
        <time>2020-12-05T15:52:41.000Z</time>
      </trkpt>
      <trkpt lat="-33.602827191352844" lon="-69.91556072607636">
        <ele>3114</ele>
        <time>2020-12-05T15:52:45.000Z</time>
      </trkpt>
      <trkpt lat="-33.602825766429305" lon="-69.91556206718087">
        <ele>3114.2</ele>
        <time>2020-12-05T15:52:51.000Z</time>
      </trkpt>
      <trkpt lat="-33.602818893268704" lon="-69.91558201611042">
        <ele>3115</ele>
        <time>2020-12-05T15:53:11.000Z</time>
      </trkpt>
      <trkpt lat="-33.60282015055418" lon="-69.91558318957686">
        <ele>3115</ele>
        <time>2020-12-05T15:53:14.000Z</time>
      </trkpt>
      <trkpt lat="-33.60282249748707" lon="-69.91558545269072">
        <ele>3115.2</ele>
        <time>2020-12-05T15:53:17.000Z</time>
      </trkpt>
      <trkpt lat="-33.602833561599255" lon="-69.91563331335783">
        <ele>3117</ele>
        <time>2020-12-05T15:53:30.000Z</time>
      </trkpt>
      <trkpt lat="-33.602838926017284" lon="-69.91563674993813">
        <ele>3117</ele>
        <time>2020-12-05T15:53:36.000Z</time>
      </trkpt>
      <trkpt lat="-33.602840350940824" lon="-69.91564848460257">
        <ele>3117.6</ele>
        <time>2020-12-05T15:53:40.000Z</time>
      </trkpt>
      <trkpt lat="-33.602840937674046" lon="-69.9156538490206">
        <ele>3117.8</ele>
        <time>2020-12-05T15:53:44.000Z</time>
      </trkpt>
      <trkpt lat="-33.60282635316253" lon="-69.91569777019322">
        <ele>3119.6</ele>
        <time>2020-12-05T15:53:54.000Z</time>
      </trkpt>
      <trkpt lat="-33.6028344836086" lon="-69.91572618484497">
        <ele>3120.8</ele>
        <time>2020-12-05T15:53:59.000Z</time>
      </trkpt>
      <trkpt lat="-33.602880500257015" lon="-69.91574479267001">
        <ele>3121</ele>
        <time>2020-12-05T15:54:09.000Z</time>
      </trkpt>
      <trkpt lat="-33.602879578247666" lon="-69.91574747487903">
        <ele>3121.2</ele>
        <time>2020-12-05T15:54:10.000Z</time>
      </trkpt>
      <trkpt lat="-33.602879578247666" lon="-69.91574747487903">
        <ele>3121.2</ele>
        <time>2020-12-05T15:54:19.000Z</time>
      </trkpt>
      <trkpt lat="-33.602879578247666" lon="-69.91574747487903">
        <ele>3121.2</ele>
        <time>2020-12-05T15:54:21.000Z</time>
      </trkpt>
      <trkpt lat="-33.602879578247666" lon="-69.91574747487903">
        <ele>3121.2</ele>
        <time>2020-12-05T15:54:22.000Z</time>
      </trkpt>
      <trkpt lat="-33.60287572257221" lon="-69.91574856452644">
        <ele>3121.2</ele>
        <time>2020-12-05T15:54:31.000Z</time>
      </trkpt>
      <trkpt lat="-33.60287589021027" lon="-69.91574856452644">
        <ele>3121.2</ele>
        <time>2020-12-05T15:54:37.000Z</time>
      </trkpt>
      <trkpt lat="-33.60287572257221" lon="-69.91574856452644">
        <ele>3121.2</ele>
        <time>2020-12-05T15:54:40.000Z</time>
      </trkpt>
      <trkpt lat="-33.60287572257221" lon="-69.91574596613646">
        <ele>3121.2</ele>
        <time>2020-12-05T15:54:45.000Z</time>
      </trkpt>
      <trkpt lat="-33.60296297818422" lon="-69.91568938829005">
        <ele>3118</ele>
        <time>2020-12-05T15:55:05.000Z</time>
      </trkpt>
      <trkpt lat="-33.60298384912312" lon="-69.91565619595349">
        <ele>3116.4</ele>
        <time>2020-12-05T15:55:14.000Z</time>
      </trkpt>
      <trkpt lat="-33.60298384912312" lon="-69.91565619595349">
        <ele>3116.4</ele>
        <time>2020-12-05T15:55:18.000Z</time>
      </trkpt>
      <trkpt lat="-33.60298384912312" lon="-69.91565443575382">
        <ele>3116.2</ele>
        <time>2020-12-05T15:55:25.000Z</time>
      </trkpt>
      <trkpt lat="-33.60298384912312" lon="-69.91565376520157">
        <ele>3116.2</ele>
        <time>2020-12-05T15:55:27.000Z</time>
      </trkpt>
      <trkpt lat="-33.60298200510442" lon="-69.9156504124403">
        <ele>3116.2</ele>
        <time>2020-12-05T15:55:36.000Z</time>
      </trkpt>
      <trkpt lat="-33.60298200510442" lon="-69.91565032862127">
        <ele>3116.2</ele>
        <time>2020-12-05T15:55:38.000Z</time>
      </trkpt>
      <trkpt lat="-33.60298200510442" lon="-69.91564664058387">
        <ele>3116</ele>
        <time>2020-12-05T15:55:43.000Z</time>
      </trkpt>
      <trkpt lat="-33.60298150219023" lon="-69.91564429365098">
        <ele>3115.8</ele>
        <time>2020-12-05T15:55:55.000Z</time>
      </trkpt>
      <trkpt lat="-33.602982675656676" lon="-69.91564420983195">
        <ele>3115.8</ele>
        <time>2020-12-05T15:55:57.000Z</time>
      </trkpt>
      <trkpt lat="-33.602985525503755" lon="-69.91564420983195">
        <ele>3115.8</ele>
        <time>2020-12-05T15:56:04.000Z</time>
      </trkpt>
      <trkpt lat="-33.6029901355505" lon="-69.91565401665866">
        <ele>3116.2</ele>
        <time>2020-12-05T15:56:20.000Z</time>
      </trkpt>
      <trkpt lat="-33.602989967912436" lon="-69.91566541604698">
        <ele>3116.6</ele>
        <time>2020-12-05T15:56:24.000Z</time>
      </trkpt>
      <trkpt lat="-33.602951327338815" lon="-69.91566985845566">
        <ele>3117.4</ele>
        <time>2020-12-05T15:56:52.000Z</time>
      </trkpt>
      <trkpt lat="-33.60294386744499" lon="-69.91566608659923">
        <ele>3117.2</ele>
        <time>2020-12-05T15:56:55.000Z</time>
      </trkpt>
      <trkpt lat="-33.602940598502755" lon="-69.91565963253379">
        <ele>3117</ele>
        <time>2020-12-05T15:57:00.000Z</time>
      </trkpt>
      <trkpt lat="-33.6029504891485" lon="-69.91565627977252">
        <ele>3116.8</ele>
        <time>2020-12-05T15:57:18.000Z</time>
      </trkpt>
      <trkpt lat="-33.6029607988894" lon="-69.91565527394414">
        <ele>3116.6</ele>
        <time>2020-12-05T15:57:22.000Z</time>
      </trkpt>
      <trkpt lat="-33.602963062003255" lon="-69.91565393283963">
        <ele>3116.6</ele>
        <time>2020-12-05T15:57:25.000Z</time>
      </trkpt>
      <trkpt lat="-33.602964067831635" lon="-69.91565275937319">
        <ele>3116.4</ele>
        <time>2020-12-05T15:57:27.000Z</time>
      </trkpt>
      <trkpt lat="-33.60296725295484" lon="-69.9156520050019">
        <ele>3116.4</ele>
        <time>2020-12-05T15:57:31.000Z</time>
      </trkpt>
      <trkpt lat="-33.60297119244933" lon="-69.91565183736384">
        <ele>3116.4</ele>
        <time>2020-12-05T15:57:36.000Z</time>
      </trkpt>
      <trkpt lat="-33.602991895750165" lon="-69.91564597003162">
        <ele>3115.8</ele>
        <time>2020-12-05T15:58:02.000Z</time>
      </trkpt>
      <trkpt lat="-33.60299566760659" lon="-69.91564462892711">
        <ele>3115.8</ele>
        <time>2020-12-05T15:58:10.000Z</time>
      </trkpt>
      <trkpt lat="-33.602996338158846" lon="-69.91564479656518">
        <ele>3115.8</ele>
        <time>2020-12-05T15:58:16.000Z</time>
      </trkpt>
      <trkpt lat="-33.602996254339814" lon="-69.91564588621259">
        <ele>3115.8</ele>
        <time>2020-12-05T15:58:21.000Z</time>
      </trkpt>
      <trkpt lat="-33.602996254339814" lon="-69.9156467244029">
        <ele>3115.8</ele>
        <time>2020-12-05T15:58:26.000Z</time>
      </trkpt>
      <trkpt lat="-33.60299692489207" lon="-69.91564705967903">
        <ele>3115.8</ele>
        <time>2020-12-05T15:58:40.000Z</time>
      </trkpt>
      <trkpt lat="-33.60299692489207" lon="-69.91564705967903">
        <ele>3115.8</ele>
        <time>2020-12-05T15:58:42.000Z</time>
      </trkpt>
      <trkpt lat="-33.60299709253013" lon="-69.91564705967903">
        <ele>3115.8</ele>
        <time>2020-12-05T15:58:46.000Z</time>
      </trkpt>
      <trkpt lat="-33.60299717634916" lon="-69.91564697586">
        <ele>3115.8</ele>
        <time>2020-12-05T15:58:49.000Z</time>
      </trkpt>
      <trkpt lat="-33.60299734398723" lon="-69.91564697586">
        <ele>3115.8</ele>
        <time>2020-12-05T15:58:52.000Z</time>
      </trkpt>
      <trkpt lat="-33.60299759544432" lon="-69.91564689204097">
        <ele>3115.8</ele>
        <time>2020-12-05T15:59:02.000Z</time>
      </trkpt>
      <trkpt lat="-33.60299767926335" lon="-69.91564689204097">
        <ele>3115.8</ele>
        <time>2020-12-05T15:59:04.000Z</time>
      </trkpt>
      <trkpt lat="-33.60299767926335" lon="-69.91564714349806">
        <ele>3115.8</ele>
        <time>2020-12-05T15:59:15.000Z</time>
      </trkpt>
      <trkpt lat="-33.60299767926335" lon="-69.91564714349806">
        <ele>3115.8</ele>
        <time>2020-12-05T15:59:16.000Z</time>
      </trkpt>
      <trkpt lat="-33.60299767926335" lon="-69.91564773023129">
        <ele>3115.8</ele>
        <time>2020-12-05T15:59:34.000Z</time>
      </trkpt>
      <trkpt lat="-33.60299801453948" lon="-69.91564814932644">
        <ele>3115.8</ele>
        <time>2020-12-05T15:59:56.000Z</time>
      </trkpt>
      <trkpt lat="-33.602998265996575" lon="-69.91564823314548">
        <ele>3115.8</ele>
        <time>2020-12-05T16:00:06.000Z</time>
      </trkpt>
      <trkpt lat="-33.602998265996575" lon="-69.91564814932644">
        <ele>3115.8</ele>
        <time>2020-12-05T16:00:09.000Z</time>
      </trkpt>
      <trkpt lat="-33.60299843363464" lon="-69.91564814932644">
        <ele>3115.8</ele>
        <time>2020-12-05T16:00:16.000Z</time>
      </trkpt>
      <trkpt lat="-33.60299851745367" lon="-69.91564814932644">
        <ele>3115.8</ele>
        <time>2020-12-05T16:00:18.000Z</time>
      </trkpt>
      <trkpt lat="-33.60299851745367" lon="-69.91564814932644">
        <ele>3115.8</ele>
        <time>2020-12-05T16:00:20.000Z</time>
      </trkpt>
      <trkpt lat="-33.6029988527298" lon="-69.91564806550741">
        <ele>3115.8</ele>
        <time>2020-12-05T16:00:31.000Z</time>
      </trkpt>
      <trkpt lat="-33.602999188005924" lon="-69.91564798168838">
        <ele>3115.8</ele>
        <time>2020-12-05T16:00:39.000Z</time>
      </trkpt>
      <trkpt lat="-33.60300153493881" lon="-69.91564664058387">
        <ele>3115.8</ele>
        <time>2020-12-05T16:01:11.000Z</time>
      </trkpt>
      <trkpt lat="-33.60300187021494" lon="-69.91564647294581">
        <ele>3115.8</ele>
        <time>2020-12-05T16:01:17.000Z</time>
      </trkpt>
      <trkpt lat="-33.603002205491066" lon="-69.91564647294581">
        <ele>3115.8</ele>
        <time>2020-12-05T16:01:24.000Z</time>
      </trkpt>
      <trkpt lat="-33.60300254076719" lon="-69.91564647294581">
        <ele>3115.8</ele>
        <time>2020-12-05T16:01:31.000Z</time>
      </trkpt>
      <trkpt lat="-33.603002624586225" lon="-69.91564647294581">
        <ele>3115.8</ele>
        <time>2020-12-05T16:01:33.000Z</time>
      </trkpt>
      <trkpt lat="-33.60300287604332" lon="-69.91564630530775">
        <ele>3115.8</ele>
        <time>2020-12-05T16:01:39.000Z</time>
      </trkpt>
      <trkpt lat="-33.603003127500415" lon="-69.91564613766968">
        <ele>3115.6</ele>
        <time>2020-12-05T16:01:44.000Z</time>
      </trkpt>
      <trkpt lat="-33.60298762097955" lon="-69.91565988399088">
        <ele>3116.4</ele>
        <time>2020-12-05T16:02:02.000Z</time>
      </trkpt>
      <trkpt lat="-33.60298661515117" lon="-69.91565695032477">
        <ele>3116.4</ele>
        <time>2020-12-05T16:02:08.000Z</time>
      </trkpt>
      <trkpt lat="-33.60298661515117" lon="-69.91565695032477">
        <ele>3116.4</ele>
        <time>2020-12-05T16:02:12.000Z</time>
      </trkpt>
      <trkpt lat="-33.60298661515117" lon="-69.91565695032477">
        <ele>3116.4</ele>
        <time>2020-12-05T16:02:15.000Z</time>
      </trkpt>
      <trkpt lat="-33.602981166914105" lon="-69.9156607221812">
        <ele>3116.6</ele>
        <time>2020-12-05T16:02:47.000Z</time>
      </trkpt>
      <trkpt lat="-33.602983597666025" lon="-69.91566080600023">
        <ele>3116.6</ele>
        <time>2020-12-05T16:02:58.000Z</time>
      </trkpt>
      <trkpt lat="-33.60298074781895" lon="-69.91565946489573">
        <ele>3116.6</ele>
        <time>2020-12-05T16:03:05.000Z</time>
      </trkpt>
      <trkpt lat="-33.60297412611544" lon="-69.91565376520157">
        <ele>3116.4</ele>
        <time>2020-12-05T16:03:15.000Z</time>
      </trkpt>
      <trkpt lat="-33.60297203063965" lon="-69.91565183736384">
        <ele>3116.4</ele>
        <time>2020-12-05T16:03:22.000Z</time>
      </trkpt>
      <trkpt lat="-33.60297714360058" lon="-69.91565141826868">
        <ele>3116.2</ele>
        <time>2020-12-05T16:03:37.000Z</time>
      </trkpt>
      <trkpt lat="-33.60299122519791" lon="-69.91565770469606">
        <ele>3116.4</ele>
        <time>2020-12-05T16:04:07.000Z</time>
      </trkpt>
      <trkpt lat="-33.603001702576876" lon="-69.91569064557552">
        <ele>3117.6</ele>
        <time>2020-12-05T16:04:20.000Z</time>
      </trkpt>
      <trkpt lat="-33.60300539061427" lon="-69.91572509519756">
        <ele>3119</ele>
        <time>2020-12-05T16:04:31.000Z</time>
      </trkpt>
      <trkpt lat="-33.6030057258904" lon="-69.91572895087302">
        <ele>3119.2</ele>
        <time>2020-12-05T16:04:33.000Z</time>
      </trkpt>
      <trkpt lat="-33.603006061166525" lon="-69.9157627299428">
        <ele>3120.6</ele>
        <time>2020-12-05T16:04:44.000Z</time>
      </trkpt>
      <trkpt lat="-33.60300472006202" lon="-69.91576977074146">
        <ele>3121</ele>
        <time>2020-12-05T16:04:46.000Z</time>
      </trkpt>
      <trkpt lat="-33.60294965095818" lon="-69.91587873548269">
        <ele>3125.8</ele>
        <time>2020-12-05T16:04:59.000Z</time>
      </trkpt>
      <trkpt lat="-33.602874632924795" lon="-69.91598602384329">
        <ele>3131</ele>
        <time>2020-12-05T16:05:08.000Z</time>
      </trkpt>
      <trkpt lat="-33.60282836481929" lon="-69.9160375725478">
        <ele>3133.6</ele>
        <time>2020-12-05T16:05:14.000Z</time>
      </trkpt>
      <trkpt lat="-33.60281931236386" lon="-69.91606414318085">
        <ele>3134.6</ele>
        <time>2020-12-05T16:05:17.000Z</time>
      </trkpt>
      <trkpt lat="-33.60281872563064" lon="-69.91607872769237">
        <ele>3135.2</ele>
        <time>2020-12-05T16:05:19.000Z</time>
      </trkpt>
      <trkpt lat="-33.60283381305635" lon="-69.916090965271">
        <ele>3135.6</ele>
        <time>2020-12-05T16:05:23.000Z</time>
      </trkpt>
      <trkpt lat="-33.60284051857889" lon="-69.91609054617584">
        <ele>3135.6</ele>
        <time>2020-12-05T16:05:24.000Z</time>
      </trkpt>
      <trkpt lat="-33.60284051857889" lon="-69.91609054617584">
        <ele>3135.6</ele>
        <time>2020-12-05T16:05:25.000Z</time>
      </trkpt>
      <trkpt lat="-33.60285149887204" lon="-69.91608182899654">
        <ele>3135.2</ele>
        <time>2020-12-05T16:05:26.000Z</time>
      </trkpt>
      <trkpt lat="-33.60286767594516" lon="-69.91607805714011">
        <ele>3134.8</ele>
        <time>2020-12-05T16:05:28.000Z</time>
      </trkpt>
      <trkpt lat="-33.60287446528673" lon="-69.91607596166432">
        <ele>3134.6</ele>
        <time>2020-12-05T16:05:30.000Z</time>
      </trkpt>
      <trkpt lat="-33.60289835371077" lon="-69.9160819966346">
        <ele>3134.6</ele>
        <time>2020-12-05T16:05:33.000Z</time>
      </trkpt>
      <trkpt lat="-33.60293984413147" lon="-69.91611594334245">
        <ele>3135.6</ele>
        <time>2020-12-05T16:05:40.000Z</time>
      </trkpt>
      <trkpt lat="-33.602962139993906" lon="-69.91612290032208">
        <ele>3135.8</ele>
        <time>2020-12-05T16:05:42.000Z</time>
      </trkpt>
      <trkpt lat="-33.6030004452914" lon="-69.91614670492709">
        <ele>3136.4</ele>
        <time>2020-12-05T16:05:46.000Z</time>
      </trkpt>
      <trkpt lat="-33.603005055338144" lon="-69.91615030914545">
        <ele>3136.4</ele>
        <time>2020-12-05T16:05:47.000Z</time>
      </trkpt>
      <trkpt lat="-33.60302349552512" lon="-69.91615206934512">
        <ele>3136.4</ele>
        <time>2020-12-05T16:05:49.000Z</time>
      </trkpt>
      <trkpt lat="-33.60304294154048" lon="-69.91617235355079">
        <ele>3137</ele>
        <time>2020-12-05T16:05:52.000Z</time>
      </trkpt>
      <trkpt lat="-33.60304780304432" lon="-69.91618517786264">
        <ele>3137.4</ele>
        <time>2020-12-05T16:05:54.000Z</time>
      </trkpt>
      <trkpt lat="-33.60304897651076" lon="-69.91618685424328">
        <ele>3137.4</ele>
        <time>2020-12-05T16:05:55.000Z</time>
      </trkpt>
      <trkpt lat="-33.603054424747825" lon="-69.9162154365331">
        <ele>3138.6</ele>
        <time>2020-12-05T16:05:59.000Z</time>
      </trkpt>
      <trkpt lat="-33.6030437797308" lon="-69.9162273388356">
        <ele>3139.2</ele>
        <time>2020-12-05T16:06:04.000Z</time>
      </trkpt>
      <trkpt lat="-33.60302357934415" lon="-69.91623597219586">
        <ele>3139.8</ele>
        <time>2020-12-05T16:06:07.000Z</time>
      </trkpt>
      <trkpt lat="-33.602978149428964" lon="-69.91626841016114">
        <ele>3141.8</ele>
        <time>2020-12-05T16:06:15.000Z</time>
      </trkpt>
      <trkpt lat="-33.60297563485801" lon="-69.91627662442625">
        <ele>3142.4</ele>
        <time>2020-12-05T16:06:16.000Z</time>
      </trkpt>
      <trkpt lat="-33.60296046361327" lon="-69.91628894582391">
        <ele>3143</ele>
        <time>2020-12-05T16:06:19.000Z</time>
      </trkpt>
      <trkpt lat="-33.60294001176953" lon="-69.91629707626998">
        <ele>3143.8</ele>
        <time>2020-12-05T16:06:21.000Z</time>
      </trkpt>
      <trkpt lat="-33.602929282933474" lon="-69.91629112511873">
        <ele>3143.4</ele>
        <time>2020-12-05T16:06:23.000Z</time>
      </trkpt>
      <trkpt lat="-33.602924924343824" lon="-69.91629053838551">
        <ele>3143.6</ele>
        <time>2020-12-05T16:06:25.000Z</time>
      </trkpt>
      <trkpt lat="-33.60291754826903" lon="-69.9162947293371">
        <ele>3143.8</ele>
        <time>2020-12-05T16:06:28.000Z</time>
      </trkpt>
      <trkpt lat="-33.60289894044399" lon="-69.91630537435412">
        <ele>3144.6</ele>
        <time>2020-12-05T16:06:30.000Z</time>
      </trkpt>
      <trkpt lat="-33.602888295426965" lon="-69.91631467826664">
        <ele>3145.2</ele>
        <time>2020-12-05T16:06:32.000Z</time>
      </trkpt>
      <trkpt lat="-33.60286809504032" lon="-69.91634074598551">
        <ele>3146.6</ele>
        <time>2020-12-05T16:06:36.000Z</time>
      </trkpt>
      <trkpt lat="-33.60286206007004" lon="-69.91635164245963">
        <ele>3147.2</ele>
        <time>2020-12-05T16:06:38.000Z</time>
      </trkpt>
      <trkpt lat="-33.602857952937484" lon="-69.91635809652507">
        <ele>3147.6</ele>
        <time>2020-12-05T16:06:39.000Z</time>
      </trkpt>
      <trkpt lat="-33.60285418108106" lon="-69.91641785949469">
        <ele>3150.6</ele>
        <time>2020-12-05T16:06:47.000Z</time>
      </trkpt>
      <trkpt lat="-33.6028519179672" lon="-69.91642490029335">
        <ele>3150.8</ele>
        <time>2020-12-05T16:06:48.000Z</time>
      </trkpt>
      <trkpt lat="-33.60283875837922" lon="-69.91645683534443">
        <ele>3151.8</ele>
        <time>2020-12-05T16:06:55.000Z</time>
      </trkpt>
      <trkpt lat="-33.60281679779291" lon="-69.91649413481355">
        <ele>3152.8</ele>
        <time>2020-12-05T16:06:59.000Z</time>
      </trkpt>
      <trkpt lat="-33.602803722023964" lon="-69.9165037740022">
        <ele>3153</ele>
        <time>2020-12-05T16:07:02.000Z</time>
      </trkpt>
      <trkpt lat="-33.6028017103672" lon="-69.91650737822056">
        <ele>3153.2</ele>
        <time>2020-12-05T16:07:04.000Z</time>
      </trkpt>
      <trkpt lat="-33.60280556604266" lon="-69.91651768796146">
        <ele>3153.6</ele>
        <time>2020-12-05T16:07:06.000Z</time>
      </trkpt>
      <trkpt lat="-33.602803805842996" lon="-69.91651877760887">
        <ele>3153.6</ele>
        <time>2020-12-05T16:07:14.000Z</time>
      </trkpt>
      <trkpt lat="-33.60285342670977" lon="-69.9165365472436">
        <ele>3154.6</ele>
        <time>2020-12-05T16:07:25.000Z</time>
      </trkpt>
      <trkpt lat="-33.60288217663765" lon="-69.91653579287231">
        <ele>3154.8</ele>
        <time>2020-12-05T16:07:32.000Z</time>
      </trkpt>
      <trkpt lat="-33.602935653179884" lon="-69.91653528995812">
        <ele>3155.2</ele>
        <time>2020-12-05T16:07:41.000Z</time>
      </trkpt>
      <trkpt lat="-33.60294772312045" lon="-69.91654140874743">
        <ele>3155.4</ele>
        <time>2020-12-05T16:07:43.000Z</time>
      </trkpt>
      <trkpt lat="-33.60296473838389" lon="-69.91654283367097">
        <ele>3155.6</ele>
        <time>2020-12-05T16:07:46.000Z</time>
      </trkpt>
      <trkpt lat="-33.60298058018088" lon="-69.91656437516212">
        <ele>3156.6</ele>
        <time>2020-12-05T16:07:49.000Z</time>
      </trkpt>
      <trkpt lat="-33.602998265996575" lon="-69.91657795384526">
        <ele>3157.2</ele>
        <time>2020-12-05T16:07:53.000Z</time>
      </trkpt>
      <trkpt lat="-33.60302341170609" lon="-69.91657393053174">
        <ele>3157.2</ele>
        <time>2020-12-05T16:07:57.000Z</time>
      </trkpt>
      <trkpt lat="-33.60302944667637" lon="-69.91657711565495">
        <ele>3157.2</ele>
        <time>2020-12-05T16:07:59.000Z</time>
      </trkpt>
      <trkpt lat="-33.603034391999245" lon="-69.91659882478416">
        <ele>3158.2</ele>
        <time>2020-12-05T16:08:06.000Z</time>
      </trkpt>
      <trkpt lat="-33.60300933010876" lon="-69.91663335822523">
        <ele>3159</ele>
        <time>2020-12-05T16:08:13.000Z</time>
      </trkpt>
      <trkpt lat="-33.603009916841984" lon="-69.9166419915855">
        <ele>3159.4</ele>
        <time>2020-12-05T16:08:17.000Z</time>
      </trkpt>
      <trkpt lat="-33.60301771201193" lon="-69.91665313951671">
        <ele>3159.8</ele>
        <time>2020-12-05T16:08:19.000Z</time>
      </trkpt>
      <trkpt lat="-33.6029919795692" lon="-69.91670879535377">
        <ele>3161.4</ele>
        <time>2020-12-05T16:08:27.000Z</time>
      </trkpt>
      <trkpt lat="-33.60295442864299" lon="-69.91677828133106">
        <ele>3163.6</ele>
        <time>2020-12-05T16:08:38.000Z</time>
      </trkpt>
      <trkpt lat="-33.602931294590235" lon="-69.91679680533707">
        <ele>3164</ele>
        <time>2020-12-05T16:08:42.000Z</time>
      </trkpt>
      <trkpt lat="-33.602922745049" lon="-69.91682664491236">
        <ele>3164.8</ele>
        <time>2020-12-05T16:08:47.000Z</time>
      </trkpt>
      <trkpt lat="-33.602925930172205" lon="-69.91684466600418">
        <ele>3165.4</ele>
        <time>2020-12-05T16:08:55.000Z</time>
      </trkpt>
      <trkpt lat="-33.60295929014683" lon="-69.91683938540518">
        <ele>3165.6</ele>
        <time>2020-12-05T16:09:05.000Z</time>
      </trkpt>
      <trkpt lat="-33.602985106408596" lon="-69.9168404750526">
        <ele>3165.8</ele>
        <time>2020-12-05T16:09:10.000Z</time>
      </trkpt>
      <trkpt lat="-33.602997260168195" lon="-69.91684827022254">
        <ele>3166.2</ele>
        <time>2020-12-05T16:09:12.000Z</time>
      </trkpt>
      <trkpt lat="-33.603001199662685" lon="-69.91686193272471">
        <ele>3166.8</ele>
        <time>2020-12-05T16:09:14.000Z</time>
      </trkpt>
      <trkpt lat="-33.602996757254004" lon="-69.91689403541386">
        <ele>3167.8</ele>
        <time>2020-12-05T16:09:18.000Z</time>
      </trkpt>
      <trkpt lat="-33.602992817759514" lon="-69.91689780727029">
        <ele>3167.8</ele>
        <time>2020-12-05T16:09:19.000Z</time>
      </trkpt>
      <trkpt lat="-33.60298334620893" lon="-69.91690753027797">
        <ele>3168</ele>
        <time>2020-12-05T16:09:21.000Z</time>
      </trkpt>
      <trkpt lat="-33.60296281054616" lon="-69.91692806594074">
        <ele>3168.6</ele>
        <time>2020-12-05T16:09:27.000Z</time>
      </trkpt>
      <trkpt lat="-33.602942526340485" lon="-69.91697969846427">
        <ele>3170.2</ele>
        <time>2020-12-05T16:09:36.000Z</time>
      </trkpt>
      <trkpt lat="-33.602936742827296" lon="-69.91698305122554">
        <ele>3170.2</ele>
        <time>2020-12-05T16:09:42.000Z</time>
      </trkpt>
      <trkpt lat="-33.60296331346035" lon="-69.91698640398681">
        <ele>3170.6</ele>
        <time>2020-12-05T16:09:51.000Z</time>
      </trkpt>
      <trkpt lat="-33.60297488048673" lon="-69.91699319332838">
        <ele>3170.8</ele>
        <time>2020-12-05T16:09:59.000Z</time>
      </trkpt>
      <trkpt lat="-33.603013856336474" lon="-69.91700517944992">
        <ele>3171.6</ele>
        <time>2020-12-05T16:10:05.000Z</time>
      </trkpt>
      <trkpt lat="-33.603033889085054" lon="-69.91701892577112">
        <ele>3172.2</ele>
        <time>2020-12-05T16:10:08.000Z</time>
      </trkpt>
      <trkpt lat="-33.603071020916104" lon="-69.91706351749599">
        <ele>3174</ele>
        <time>2020-12-05T16:10:15.000Z</time>
      </trkpt>
      <trkpt lat="-33.60307194292545" lon="-69.91707231849432">
        <ele>3174.4</ele>
        <time>2020-12-05T16:10:17.000Z</time>
      </trkpt>
      <trkpt lat="-33.60307554714382" lon="-69.91711288690567">
        <ele>3175.2</ele>
        <time>2020-12-05T16:10:23.000Z</time>
      </trkpt>
      <trkpt lat="-33.60307144001126" lon="-69.91712763905525">
        <ele>3175.6</ele>
        <time>2020-12-05T16:10:27.000Z</time>
      </trkpt>
      <trkpt lat="-33.603074038401246" lon="-69.91718254052103">
        <ele>3176.8</ele>
        <time>2020-12-05T16:10:35.000Z</time>
      </trkpt>
      <trkpt lat="-33.603082839399576" lon="-69.91724314168096">
        <ele>3178.4</ele>
        <time>2020-12-05T16:10:43.000Z</time>
      </trkpt>
      <trkpt lat="-33.60309490934014" lon="-69.91728161461651">
        <ele>3179.4</ele>
        <time>2020-12-05T16:10:53.000Z</time>
      </trkpt>
      <trkpt lat="-33.60312692821026" lon="-69.91733827628195">
        <ele>3180.8</ele>
        <time>2020-12-05T16:11:00.000Z</time>
      </trkpt>
      <trkpt lat="-33.603158025071025" lon="-69.91738345474005">
        <ele>3182.2</ele>
        <time>2020-12-05T16:11:08.000Z</time>
      </trkpt>
      <trkpt lat="-33.60316380858421" lon="-69.91742435842752">
        <ele>3183.2</ele>
        <time>2020-12-05T16:11:12.000Z</time>
      </trkpt>
      <trkpt lat="-33.603161461651325" lon="-69.91742628626525">
        <ele>3183.2</ele>
        <time>2020-12-05T16:11:13.000Z</time>
      </trkpt>
      <trkpt lat="-33.60315827652812" lon="-69.9174602329731">
        <ele>3184</ele>
        <time>2020-12-05T16:11:16.000Z</time>
      </trkpt>
      <trkpt lat="-33.60317495651543" lon="-69.91750893183053">
        <ele>3185.2</ele>
        <time>2020-12-05T16:11:21.000Z</time>
      </trkpt>
      <trkpt lat="-33.60318618826568" lon="-69.91759576834738">
        <ele>3187.6</ele>
        <time>2020-12-05T16:11:31.000Z</time>
      </trkpt>
      <trkpt lat="-33.60319255851209" lon="-69.91763113997877">
        <ele>3189</ele>
        <time>2020-12-05T16:11:35.000Z</time>
      </trkpt>
      <trkpt lat="-33.60319457016885" lon="-69.91764086298645">
        <ele>3189.2</ele>
        <time>2020-12-05T16:11:38.000Z</time>
      </trkpt>
      <trkpt lat="-33.603197084739804" lon="-69.91765779443085">
        <ele>3190</ele>
        <time>2020-12-05T16:11:39.000Z</time>
      </trkpt>
      <trkpt lat="-33.60319825820625" lon="-69.91775904782116">
        <ele>3193.8</ele>
        <time>2020-12-05T16:11:49.000Z</time>
      </trkpt>
      <trkpt lat="-33.60319633036852" lon="-69.91777271032333">
        <ele>3194.4</ele>
        <time>2020-12-05T16:11:50.000Z</time>
      </trkpt>
      <trkpt lat="-33.60318132676184" lon="-69.91782920435071">
        <ele>3196.6</ele>
        <time>2020-12-05T16:11:55.000Z</time>
      </trkpt>
      <trkpt lat="-33.60318576917052" lon="-69.91785686463118">
        <ele>3197.6</ele>
        <time>2020-12-05T16:11:57.000Z</time>
      </trkpt>
      <trkpt lat="-33.60318208113313" lon="-69.91790304891765">
        <ele>3199.4</ele>
        <time>2020-12-05T16:12:00.000Z</time>
      </trkpt>
      <trkpt lat="-33.60320161096752" lon="-69.91791713051498">
        <ele>3199.4</ele>
        <time>2020-12-05T16:12:02.000Z</time>
      </trkpt>
      <trkpt lat="-33.60320756211877" lon="-69.91794747300446">
        <ele>3199.8</ele>
        <time>2020-12-05T16:12:04.000Z</time>
      </trkpt>
      <trkpt lat="-33.60321921296418" lon="-69.91795996204019">
        <ele>3199.8</ele>
        <time>2020-12-05T16:12:06.000Z</time>
      </trkpt>
      <trkpt lat="-33.60322424210608" lon="-69.91797572001815">
        <ele>3200</ele>
        <time>2020-12-05T16:12:09.000Z</time>
      </trkpt>
      <trkpt lat="-33.60323899425566" lon="-69.91799843497574">
        <ele>3200.2</ele>
        <time>2020-12-05T16:12:14.000Z</time>
      </trkpt>
      <trkpt lat="-33.60324419103563" lon="-69.91800430230796">
        <ele>3200.4</ele>
        <time>2020-12-05T16:12:15.000Z</time>
      </trkpt>
      <trkpt lat="-33.603255758062005" lon="-69.91802785545588">
        <ele>3200.6</ele>
        <time>2020-12-05T16:12:18.000Z</time>
      </trkpt>
      <trkpt lat="-33.603257266804576" lon="-69.91803305223584">
        <ele>3200.6</ele>
        <time>2020-12-05T16:12:19.000Z</time>
      </trkpt>
      <trkpt lat="-33.60327956266701" lon="-69.91808443330228">
        <ele>3201.2</ele>
        <time>2020-12-05T16:12:26.000Z</time>
      </trkpt>
      <trkpt lat="-33.60330236144364" lon="-69.91812634281814">
        <ele>3201.4</ele>
        <time>2020-12-05T16:12:33.000Z</time>
      </trkpt>
      <trkpt lat="-33.60332432202995" lon="-69.91818694397807">
        <ele>3202.2</ele>
        <time>2020-12-05T16:12:40.000Z</time>
      </trkpt>
      <trkpt lat="-33.60336983576417" lon="-69.9182060547173">
        <ele>3202</ele>
        <time>2020-12-05T16:12:49.000Z</time>
      </trkpt>
      <trkpt lat="-33.60337964259088" lon="-69.91820856928825">
        <ele>3202</ele>
        <time>2020-12-05T16:12:54.000Z</time>
      </trkpt>
      <trkpt lat="-33.60338944941759" lon="-69.91820915602148">
        <ele>3202</ele>
        <time>2020-12-05T16:12:57.000Z</time>
      </trkpt>
      <trkpt lat="-33.60343839973211" lon="-69.91825668141246">
        <ele>3202.2</ele>
        <time>2020-12-05T16:13:09.000Z</time>
      </trkpt>
      <trkpt lat="-33.60345197841525" lon="-69.91826707497239">
        <ele>3202.2</ele>
        <time>2020-12-05T16:13:15.000Z</time>
      </trkpt>
      <trkpt lat="-33.60344468615949" lon="-69.91826741024852">
        <ele>3202.4</ele>
        <time>2020-12-05T16:13:18.000Z</time>
      </trkpt>
      <trkpt lat="-33.60344468615949" lon="-69.91826741024852">
        <ele>3202.4</ele>
        <time>2020-12-05T16:13:22.000Z</time>
      </trkpt>
      <trkpt lat="-33.60344468615949" lon="-69.9182663206011">
        <ele>3202.4</ele>
        <time>2020-12-05T16:13:30.000Z</time>
      </trkpt>
      <trkpt lat="-33.603446362540126" lon="-69.91826070472598">
        <ele>3202.2</ele>
        <time>2020-12-05T16:13:36.000Z</time>
      </trkpt>
      <trkpt lat="-33.603466898202896" lon="-69.91824218071997">
        <ele>3201.8</ele>
        <time>2020-12-05T16:14:07.000Z</time>
      </trkpt>
      <trkpt lat="-33.60347108915448" lon="-69.91830856539309">
        <ele>3202.6</ele>
        <time>2020-12-05T16:14:30.000Z</time>
      </trkpt>
      <trkpt lat="-33.60347645357251" lon="-69.91834318265319">
        <ele>3203.2</ele>
        <time>2020-12-05T16:14:37.000Z</time>
      </trkpt>
      <trkpt lat="-33.60349380411208" lon="-69.91839380934834">
        <ele>3203.6</ele>
        <time>2020-12-05T16:14:45.000Z</time>
      </trkpt>
      <trkpt lat="-33.60349749214947" lon="-69.91840185597539">
        <ele>3203.8</ele>
        <time>2020-12-05T16:14:55.000Z</time>
      </trkpt>
      <trkpt lat="-33.60349749214947" lon="-69.91840185597539">
        <ele>3203.8</ele>
        <time>2020-12-05T16:14:57.000Z</time>
      </trkpt>
      <trkpt lat="-33.60349296592176" lon="-69.91838341578841">
        <ele>3203.6</ele>
        <time>2020-12-05T16:15:07.000Z</time>
      </trkpt>
      <trkpt lat="-33.6034322809428" lon="-69.91831845603883">
        <ele>3203</ele>
        <time>2020-12-05T16:15:14.000Z</time>
      </trkpt>
      <trkpt lat="-33.60339523293078" lon="-69.91824192926288">
        <ele>3202.4</ele>
        <time>2020-12-05T16:15:19.000Z</time>
      </trkpt>
      <trkpt lat="-33.60339280217886" lon="-69.9182306136936">
        <ele>3202.2</ele>
        <time>2020-12-05T16:15:20.000Z</time>
      </trkpt>
      <trkpt lat="-33.60341970808804" lon="-69.91817965172231">
        <ele>3201.4</ele>
        <time>2020-12-05T16:15:26.000Z</time>
      </trkpt>
      <trkpt lat="-33.603418534621596" lon="-69.91817713715136">
        <ele>3201.4</ele>
        <time>2020-12-05T16:15:27.000Z</time>
      </trkpt>
      <trkpt lat="-33.60339330509305" lon="-69.9181611277163">
        <ele>3201.2</ele>
        <time>2020-12-05T16:15:35.000Z</time>
      </trkpt>
      <trkpt lat="-33.60341870225966" lon="-69.91814386099577">
        <ele>3200.8</ele>
        <time>2020-12-05T16:15:41.000Z</time>
      </trkpt>
      <trkpt lat="-33.603484500199556" lon="-69.91818468086421">
        <ele>3201</ele>
        <time>2020-12-05T16:15:47.000Z</time>
      </trkpt>
      <trkpt lat="-33.60350604169071" lon="-69.91818870417774">
        <ele>3200.8</ele>
        <time>2020-12-05T16:15:49.000Z</time>
      </trkpt>
      <trkpt lat="-33.604253036901355" lon="-69.91912186145782">
        <ele>3224.8</ele>
        <time>2020-12-05T17:49:22.000Z</time>
      </trkpt>
      <trkpt lat="-33.604258401319385" lon="-69.9191252142191">
        <ele>3225</ele>
        <time>2020-12-05T17:49:25.000Z</time>
      </trkpt>
      <trkpt lat="-33.60424993559718" lon="-69.91912504658103">
        <ele>3224.8</ele>
        <time>2020-12-05T17:49:29.000Z</time>
      </trkpt>
      <trkpt lat="-33.6042454931885" lon="-69.91912085562944">
        <ele>3224.8</ele>
        <time>2020-12-05T17:49:31.000Z</time>
      </trkpt>
      <trkpt lat="-33.604228058829904" lon="-69.91911314427853">
        <ele>3224.4</ele>
        <time>2020-12-05T17:49:38.000Z</time>
      </trkpt>
      <trkpt lat="-33.60422797501087" lon="-69.91911331191659">
        <ele>3224.4</ele>
        <time>2020-12-05T17:49:54.000Z</time>
      </trkpt>
      <trkpt lat="-33.60419620759785" lon="-69.91911356337368">
        <ele>3224.2</ele>
        <time>2020-12-05T17:50:02.000Z</time>
      </trkpt>
      <trkpt lat="-33.604183215647936" lon="-69.9191130604595">
        <ele>3224</ele>
        <time>2020-12-05T17:50:06.000Z</time>
      </trkpt>
      <trkpt lat="-33.604118255898356" lon="-69.9190990626812">
        <ele>3223</ele>
        <time>2020-12-05T17:50:35.000Z</time>
      </trkpt>
      <trkpt lat="-33.60408715903759" lon="-69.91908447816968">
        <ele>3222.4</ele>
        <time>2020-12-05T17:50:45.000Z</time>
      </trkpt>
      <trkpt lat="-33.6039777752012" lon="-69.9190435744822">
        <ele>3220.4</ele>
        <time>2020-12-05T17:51:08.000Z</time>
      </trkpt>
      <trkpt lat="-33.60396545380354" lon="-69.91904315538704">
        <ele>3220.2</ele>
        <time>2020-12-05T17:51:10.000Z</time>
      </trkpt>
      <trkpt lat="-33.60392111353576" lon="-69.91903443820775">
        <ele>3219.6</ele>
        <time>2020-12-05T17:51:19.000Z</time>
      </trkpt>
      <trkpt lat="-33.60390770249069" lon="-69.91902312263846">
        <ele>3219.2</ele>
        <time>2020-12-05T17:51:23.000Z</time>
      </trkpt>
      <trkpt lat="-33.60389370471239" lon="-69.91900686174631">
        <ele>3218.6</ele>
        <time>2020-12-05T17:51:27.000Z</time>
      </trkpt>
      <trkpt lat="-33.603841150179505" lon="-69.91897132247686">
        <ele>3217.2</ele>
        <time>2020-12-05T17:51:43.000Z</time>
      </trkpt>
      <trkpt lat="-33.60372497700155" lon="-69.91890342906117">
        <ele>3214.4</ele>
        <time>2020-12-05T17:52:11.000Z</time>
      </trkpt>
      <trkpt lat="-33.60362280160189" lon="-69.91880577988923">
        <ele>3210.8</ele>
        <time>2020-12-05T17:52:34.000Z</time>
      </trkpt>
      <trkpt lat="-33.60358919017017" lon="-69.91876194253564">
        <ele>3209.4</ele>
        <time>2020-12-05T17:52:37.000Z</time>
      </trkpt>
      <trkpt lat="-33.60357502475381" lon="-69.91874434053898">
        <ele>3208.8</ele>
        <time>2020-12-05T17:52:38.000Z</time>
      </trkpt>
      <trkpt lat="-33.603552896529436" lon="-69.91871156729758">
        <ele>3208</ele>
        <time>2020-12-05T17:52:40.000Z</time>
      </trkpt>
      <trkpt lat="-33.60354426316917" lon="-69.91868767887354">
        <ele>3207.6</ele>
        <time>2020-12-05T17:52:42.000Z</time>
      </trkpt>
      <trkpt lat="-33.60354468226433" lon="-69.91867309436202">
        <ele>3207.4</ele>
        <time>2020-12-05T17:52:44.000Z</time>
      </trkpt>
      <trkpt lat="-33.60354568809271" lon="-69.91866077296436">
        <ele>3207.2</ele>
        <time>2020-12-05T17:52:46.000Z</time>
      </trkpt>
      <trkpt lat="-33.60354560427368" lon="-69.91865515708923">
        <ele>3207.2</ele>
        <time>2020-12-05T17:52:47.000Z</time>
      </trkpt>
      <trkpt lat="-33.60354233533144" lon="-69.91863780654967">
        <ele>3207</ele>
        <time>2020-12-05T17:52:49.000Z</time>
      </trkpt>
      <trkpt lat="-33.60354342497885" lon="-69.91862984374166">
        <ele>3206.8</ele>
        <time>2020-12-05T17:52:52.000Z</time>
      </trkpt>
      <trkpt lat="-33.603543089702725" lon="-69.91862908937037">
        <ele>3206.8</ele>
        <time>2020-12-05T17:52:54.000Z</time>
      </trkpt>
      <trkpt lat="-33.60354099422693" lon="-69.91862925700843">
        <ele>3206.8</ele>
        <time>2020-12-05T17:52:56.000Z</time>
      </trkpt>
      <trkpt lat="-33.60354183241725" lon="-69.91863135248423">
        <ele>3206.8</ele>
        <time>2020-12-05T17:52:59.000Z</time>
      </trkpt>
      <trkpt lat="-33.603542586788535" lon="-69.91863252595067">
        <ele>3206.8</ele>
        <time>2020-12-05T17:53:00.000Z</time>
      </trkpt>
      <trkpt lat="-33.603542586788535" lon="-69.91863252595067">
        <ele>3206.8</ele>
        <time>2020-12-05T17:53:01.000Z</time>
      </trkpt>
      <trkpt lat="-33.603542586788535" lon="-69.91863252595067">
        <ele>3206.8</ele>
        <time>2020-12-05T17:53:02.000Z</time>
      </trkpt>
      <trkpt lat="-33.603541580960155" lon="-69.91863319650292">
        <ele>3206.8</ele>
        <time>2020-12-05T17:53:45.000Z</time>
      </trkpt>
      <trkpt lat="-33.603541580960155" lon="-69.91863311268389">
        <ele>3206.8</ele>
        <time>2020-12-05T17:53:46.000Z</time>
      </trkpt>
      <trkpt lat="-33.60353680327535" lon="-69.91863177157938">
        <ele>3206.8</ele>
        <time>2020-12-05T17:53:52.000Z</time>
      </trkpt>
      <trkpt lat="-33.60353495925665" lon="-69.91862582042813">
        <ele>3206.6</ele>
        <time>2020-12-05T17:54:02.000Z</time>
      </trkpt>
      <trkpt lat="-33.60353169031441" lon="-69.9186138343066">
        <ele>3206.6</ele>
        <time>2020-12-05T17:54:12.000Z</time>
      </trkpt>
      <trkpt lat="-33.60353504307568" lon="-69.91861073300242">
        <ele>3206.4</ele>
        <time>2020-12-05T17:54:25.000Z</time>
      </trkpt>
      <trkpt lat="-33.60353311523795" lon="-69.9186241440475">
        <ele>3206.6</ele>
        <time>2020-12-05T17:54:38.000Z</time>
      </trkpt>
      <trkpt lat="-33.60353110358119" lon="-69.91863143630326">
        <ele>3206.8</ele>
        <time>2020-12-05T17:54:52.000Z</time>
      </trkpt>
      <trkpt lat="-33.603530600667" lon="-69.91863428615034">
        <ele>3206.8</ele>
        <time>2020-12-05T17:55:02.000Z</time>
      </trkpt>
      <trkpt lat="-33.603530600667" lon="-69.91863453760743">
        <ele>3206.8</ele>
        <time>2020-12-05T17:55:05.000Z</time>
      </trkpt>
      <trkpt lat="-33.60353068448603" lon="-69.91863386705518">
        <ele>3206.8</ele>
        <time>2020-12-05T17:55:08.000Z</time>
      </trkpt>
      <trkpt lat="-33.60353445634246" lon="-69.91863244213164">
        <ele>3206.8</ele>
        <time>2020-12-05T17:55:19.000Z</time>
      </trkpt>
      <trkpt lat="-33.603537222370505" lon="-69.91862791590393">
        <ele>3206.8</ele>
        <time>2020-12-05T17:55:27.000Z</time>
      </trkpt>
      <trkpt lat="-33.60353755764663" lon="-69.91861676797271">
        <ele>3206.6</ele>
        <time>2020-12-05T17:55:38.000Z</time>
      </trkpt>
      <trkpt lat="-33.60353755764663" lon="-69.91861484013498">
        <ele>3206.6</ele>
        <time>2020-12-05T17:55:42.000Z</time>
      </trkpt>
      <trkpt lat="-33.60353755764663" lon="-69.91861391812563">
        <ele>3206.6</ele>
        <time>2020-12-05T17:55:48.000Z</time>
      </trkpt>
      <trkpt lat="-33.60357804223895" lon="-69.91863084957004">
        <ele>3207.2</ele>
        <time>2020-12-05T17:56:16.000Z</time>
      </trkpt>
      <trkpt lat="-33.603580221533775" lon="-69.91863311268389">
        <ele>3207.2</ele>
        <time>2020-12-05T17:57:12.000Z</time>
      </trkpt>
      <trkpt lat="-33.603580808267" lon="-69.91863336414099">
        <ele>3207.2</ele>
        <time>2020-12-05T17:57:32.000Z</time>
      </trkpt>
      <trkpt lat="-33.603581143543124" lon="-69.91863344796002">
        <ele>3207.2</ele>
        <time>2020-12-05T17:57:57.000Z</time>
      </trkpt>
      <trkpt lat="-33.603546023368835" lon="-69.91858659312129">
        <ele>3206.2</ele>
        <time>2020-12-05T17:58:18.000Z</time>
      </trkpt>
      <trkpt lat="-33.60353512689471" lon="-69.9185691587627">
        <ele>3206</ele>
        <time>2020-12-05T17:58:19.000Z</time>
      </trkpt>
      <trkpt lat="-33.603471759706736" lon="-69.91844359785318">
        <ele>3204.4</ele>
        <time>2020-12-05T17:58:29.000Z</time>
      </trkpt>
      <trkpt lat="-33.60344653017819" lon="-69.91838861256838">
        <ele>3204</ele>
        <time>2020-12-05T17:58:36.000Z</time>
      </trkpt>
      <trkpt lat="-33.60342306084931" lon="-69.91832197643816">
        <ele>3203.2</ele>
        <time>2020-12-05T17:58:43.000Z</time>
      </trkpt>
      <trkpt lat="-33.603410152718425" lon="-69.91822063922882">
        <ele>3202</ele>
        <time>2020-12-05T17:58:54.000Z</time>
      </trkpt>
      <trkpt lat="-33.60340009443462" lon="-69.91819951683283">
        <ele>3201.8</ele>
        <time>2020-12-05T17:59:01.000Z</time>
      </trkpt>
      <trkpt lat="-33.60341124236584" lon="-69.91818493232131">
        <ele>3201.4</ele>
        <time>2020-12-05T17:59:04.000Z</time>
      </trkpt>
      <trkpt lat="-33.603431191295385" lon="-69.9181685037911">
        <ele>3201.2</ele>
        <time>2020-12-05T17:59:07.000Z</time>
      </trkpt>
      <trkpt lat="-33.60343865118921" lon="-69.91817428730428">
        <ele>3201.2</ele>
        <time>2020-12-05T17:59:08.000Z</time>
      </trkpt>
      <trkpt lat="-33.60350017435849" lon="-69.91820043884218">
        <ele>3201</ele>
        <time>2020-12-05T17:59:14.000Z</time>
      </trkpt>
      <trkpt lat="-33.603600254282355" lon="-69.9182028695941">
        <ele>3201.6</ele>
        <time>2020-12-05T17:59:23.000Z</time>
      </trkpt>
      <trkpt lat="-33.60365658067167" lon="-69.91819809190929">
        <ele>3202</ele>
        <time>2020-12-05T17:59:28.000Z</time>
      </trkpt>
      <trkpt lat="-33.60371634364128" lon="-69.91816431283951">
        <ele>3202.2</ele>
        <time>2020-12-05T17:59:34.000Z</time>
      </trkpt>
      <trkpt lat="-33.60382019542158" lon="-69.91811385378242">
        <ele>3202</ele>
        <time>2020-12-05T17:59:44.000Z</time>
      </trkpt>
      <trkpt lat="-33.603884149342775" lon="-69.91804000921547">
        <ele>3201</ele>
        <time>2020-12-05T17:59:52.000Z</time>
      </trkpt>
      <trkpt lat="-33.60389269888401" lon="-69.9180405959487">
        <ele>3201.2</ele>
        <time>2020-12-05T17:59:53.000Z</time>
      </trkpt>
      <trkpt lat="-33.60391122289002" lon="-69.91803959012032">
        <ele>3201.2</ele>
        <time>2020-12-05T17:59:57.000Z</time>
      </trkpt>
      <trkpt lat="-33.60391558147967" lon="-69.91803858429193">
        <ele>3201.2</ele>
        <time>2020-12-05T18:00:01.000Z</time>
      </trkpt>
      <trkpt lat="-33.6039019189775" lon="-69.9180400930345">
        <ele>3201.2</ele>
        <time>2020-12-05T18:00:11.000Z</time>
      </trkpt>
      <trkpt lat="-33.60390577465296" lon="-69.91804118268192">
        <ele>3201.2</ele>
        <time>2020-12-05T18:00:22.000Z</time>
      </trkpt>
      <trkpt lat="-33.603921700268984" lon="-69.9180609639734">
        <ele>3201.6</ele>
        <time>2020-12-05T18:00:58.000Z</time>
      </trkpt>
      <trkpt lat="-33.603919353336096" lon="-69.91805811412632">
        <ele>3201.6</ele>
        <time>2020-12-05T18:01:13.000Z</time>
      </trkpt>
      <trkpt lat="-33.60391901805997" lon="-69.91805878467858">
        <ele>3201.6</ele>
        <time>2020-12-05T18:01:16.000Z</time>
      </trkpt>
      <trkpt lat="-33.60391851514578" lon="-69.91805878467858">
        <ele>3201.6</ele>
        <time>2020-12-05T18:01:25.000Z</time>
      </trkpt>
      <trkpt lat="-33.60391826368868" lon="-69.91805870085955">
        <ele>3201.6</ele>
        <time>2020-12-05T18:01:27.000Z</time>
      </trkpt>
      <trkpt lat="-33.60391700640321" lon="-69.91805903613567">
        <ele>3201.6</ele>
        <time>2020-12-05T18:01:35.000Z</time>
      </trkpt>
      <trkpt lat="-33.603916419669986" lon="-69.9180596228689">
        <ele>3201.6</ele>
        <time>2020-12-05T18:01:38.000Z</time>
      </trkpt>
      <trkpt lat="-33.603916335850954" lon="-69.9180609639734">
        <ele>3201.6</ele>
        <time>2020-12-05T18:01:54.000Z</time>
      </trkpt>
      <trkpt lat="-33.60391968861222" lon="-69.91805979050696">
        <ele>3201.6</ele>
        <time>2020-12-05T18:01:59.000Z</time>
      </trkpt>
      <trkpt lat="-33.60392237082124" lon="-69.91805853322148">
        <ele>3201.6</ele>
        <time>2020-12-05T18:02:02.000Z</time>
      </trkpt>
      <trkpt lat="-33.60392295755446" lon="-69.91805836558342">
        <ele>3201.6</ele>
        <time>2020-12-05T18:02:04.000Z</time>
      </trkpt>
      <trkpt lat="-33.60392446629703" lon="-69.91805819794536">
        <ele>3201.6</ele>
        <time>2020-12-05T18:02:10.000Z</time>
      </trkpt>
      <trkpt lat="-33.603925136849284" lon="-69.91805844940245">
        <ele>3201.6</ele>
        <time>2020-12-05T18:02:25.000Z</time>
      </trkpt>
      <trkpt lat="-33.6039259750396" lon="-69.9180561862886">
        <ele>3201.6</ele>
        <time>2020-12-05T18:02:42.000Z</time>
      </trkpt>
      <trkpt lat="-33.60392044298351" lon="-69.91806423291564">
        <ele>3201.6</ele>
        <time>2020-12-05T18:02:55.000Z</time>
      </trkpt>
      <trkpt lat="-33.60391206108034" lon="-69.91806758567691">
        <ele>3201.6</ele>
        <time>2020-12-05T18:03:01.000Z</time>
      </trkpt>
      <trkpt lat="-33.603909546509385" lon="-69.91806842386723">
        <ele>3201.6</ele>
        <time>2020-12-05T18:03:03.000Z</time>
      </trkpt>
      <trkpt lat="-33.60390401445329" lon="-69.91807010024786">
        <ele>3201.6</ele>
        <time>2020-12-05T18:03:09.000Z</time>
      </trkpt>
      <trkpt lat="-33.60389915294945" lon="-69.9180696811527">
        <ele>3201.6</ele>
        <time>2020-12-05T18:03:31.000Z</time>
      </trkpt>
      <trkpt lat="-33.603898733854294" lon="-69.9180694296956">
        <ele>3201.6</ele>
        <time>2020-12-05T18:03:49.000Z</time>
      </trkpt>
      <trkpt lat="-33.603898733854294" lon="-69.9180694296956">
        <ele>3201.6</ele>
        <time>2020-12-05T18:03:52.000Z</time>
      </trkpt>
      <trkpt lat="-33.60389865003526" lon="-69.9180694296956">
        <ele>3201.6</ele>
        <time>2020-12-05T18:03:57.000Z</time>
      </trkpt>
      <trkpt lat="-33.60389856621623" lon="-69.91806934587657">
        <ele>3201.6</ele>
        <time>2020-12-05T18:04:05.000Z</time>
      </trkpt>
      <trkpt lat="-33.6038984823972" lon="-69.91806926205754">
        <ele>3201.6</ele>
        <time>2020-12-05T18:04:08.000Z</time>
      </trkpt>
      <trkpt lat="-33.60389839857817" lon="-69.91806901060045">
        <ele>3201.6</ele>
        <time>2020-12-05T18:04:20.000Z</time>
      </trkpt>
      <trkpt lat="-33.60389814712107" lon="-69.91806875914335">
        <ele>3201.6</ele>
        <time>2020-12-05T18:04:26.000Z</time>
      </trkpt>
      <trkpt lat="-33.60389797948301" lon="-69.91806867532432">
        <ele>3201.6</ele>
        <time>2020-12-05T18:04:29.000Z</time>
      </trkpt>
      <trkpt lat="-33.60385942272842" lon="-69.91805660538375">
        <ele>3201.2</ele>
        <time>2020-12-05T18:04:32.000Z</time>
      </trkpt>
      <trkpt lat="-33.60383226536214" lon="-69.91805316880345">
        <ele>3201</ele>
        <time>2020-12-05T18:04:33.000Z</time>
      </trkpt>
      <trkpt lat="-33.60379069112241" lon="-69.91804897785187">
        <ele>3200.8</ele>
        <time>2020-12-05T18:04:35.000Z</time>
      </trkpt>
      <trkpt lat="-33.60374324955046" lon="-69.91804227232933">
        <ele>3200.4</ele>
        <time>2020-12-05T18:04:37.000Z</time>
      </trkpt>
      <trkpt lat="-33.603680804371834" lon="-69.91803992539644">
        <ele>3200</ele>
        <time>2020-12-05T18:04:40.000Z</time>
      </trkpt>
      <trkpt lat="-33.60362975858152" lon="-69.9180268496275">
        <ele>3199.6</ele>
        <time>2020-12-05T18:04:47.000Z</time>
      </trkpt>
      <trkpt lat="-33.603556752204895" lon="-69.91796675138175">
        <ele>3198.2</ele>
        <time>2020-12-05T18:05:00.000Z</time>
      </trkpt>
      <trkpt lat="-33.603512831032276" lon="-69.91794252768159">
        <ele>3197.6</ele>
        <time>2020-12-05T18:05:10.000Z</time>
      </trkpt>
      <trkpt lat="-33.603469328954816" lon="-69.91791469976306">
        <ele>3197.6</ele>
        <time>2020-12-05T18:05:19.000Z</time>
      </trkpt>
      <trkpt lat="-33.60346128232777" lon="-69.9179126881063">
        <ele>3197.6</ele>
        <time>2020-12-05T18:05:21.000Z</time>
      </trkpt>
      <trkpt lat="-33.60345725901425" lon="-69.9179095029831">
        <ele>3197.6</ele>
        <time>2020-12-05T18:05:22.000Z</time>
      </trkpt>
      <trkpt lat="-33.603441920131445" lon="-69.91789508610964">
        <ele>3197.2</ele>
        <time>2020-12-05T18:05:26.000Z</time>
      </trkpt>
      <trkpt lat="-33.60342750325799" lon="-69.9178870394826">
        <ele>3197</ele>
        <time>2020-12-05T18:05:30.000Z</time>
      </trkpt>
      <trkpt lat="-33.60340151935816" lon="-69.9178846925497">
        <ele>3197.2</ele>
        <time>2020-12-05T18:05:35.000Z</time>
      </trkpt>
      <trkpt lat="-33.60339514911175" lon="-69.91788561455905">
        <ele>3197.2</ele>
        <time>2020-12-05T18:05:36.000Z</time>
      </trkpt>
      <trkpt lat="-33.60336162149906" lon="-69.9179333075881">
        <ele>3198.6</ele>
        <time>2020-12-05T18:05:44.000Z</time>
      </trkpt>
      <trkpt lat="-33.60335751436651" lon="-69.91794160567224">
        <ele>3198.6</ele>
        <time>2020-12-05T18:05:45.000Z</time>
      </trkpt>
      <trkpt lat="-33.603323148563504" lon="-69.91798125207424">
        <ele>3199.4</ele>
        <time>2020-12-05T18:05:51.000Z</time>
      </trkpt>
      <trkpt lat="-33.60330479219556" lon="-69.91795753128827">
        <ele>3199.2</ele>
        <time>2020-12-05T18:05:54.000Z</time>
      </trkpt>
      <trkpt lat="-33.6032887827605" lon="-69.91793741472065">
        <ele>3199</ele>
        <time>2020-12-05T18:05:57.000Z</time>
      </trkpt>
      <trkpt lat="-33.60327738337219" lon="-69.91788284853101">
        <ele>3198</ele>
        <time>2020-12-05T18:06:03.000Z</time>
      </trkpt>
      <trkpt lat="-33.603257685899734" lon="-69.91785108111799">
        <ele>3196.8</ele>
        <time>2020-12-05T18:06:08.000Z</time>
      </trkpt>
      <trkpt lat="-33.60324704088271" lon="-69.91782191209495">
        <ele>3195.8</ele>
        <time>2020-12-05T18:06:11.000Z</time>
      </trkpt>
      <trkpt lat="-33.603219632059336" lon="-69.91774236783385">
        <ele>3193</ele>
        <time>2020-12-05T18:06:20.000Z</time>
      </trkpt>
      <trkpt lat="-33.603199599310756" lon="-69.91766232065856">
        <ele>3190</ele>
        <time>2020-12-05T18:06:30.000Z</time>
      </trkpt>
      <trkpt lat="-33.60316229984164" lon="-69.91757506504655">
        <ele>3187</ele>
        <time>2020-12-05T18:06:39.000Z</time>
      </trkpt>
      <trkpt lat="-33.603156013414264" lon="-69.91748537868261">
        <ele>3184.4</ele>
        <time>2020-12-05T18:06:49.000Z</time>
      </trkpt>
      <trkpt lat="-33.60313044860959" lon="-69.91742310114205">
        <ele>3182.8</ele>
        <time>2020-12-05T18:06:59.000Z</time>
      </trkpt>
      <trkpt lat="-33.603102872148156" lon="-69.91735939867795">
        <ele>3181.2</ele>
        <time>2020-12-05T18:07:08.000Z</time>
      </trkpt>
      <trkpt lat="-33.603081833571196" lon="-69.91729921661317">
        <ele>3179.6</ele>
        <time>2020-12-05T18:07:15.000Z</time>
      </trkpt>
      <trkpt lat="-33.60307018272579" lon="-69.91725697182119">
        <ele>3178.6</ele>
        <time>2020-12-05T18:07:21.000Z</time>
      </trkpt>
      <trkpt lat="-33.603065153583884" lon="-69.917227383703">
        <ele>3177.8</ele>
        <time>2020-12-05T18:07:25.000Z</time>
      </trkpt>
      <trkpt lat="-33.60305995680392" lon="-69.91720693185925">
        <ele>3177.4</ele>
        <time>2020-12-05T18:07:28.000Z</time>
      </trkpt>
      <trkpt lat="-33.60305660404265" lon="-69.9172025732696">
        <ele>3177.2</ele>
        <time>2020-12-05T18:07:30.000Z</time>
      </trkpt>
      <trkpt lat="-33.60305719077587" lon="-69.91719586774707">
        <ele>3177</ele>
        <time>2020-12-05T18:07:31.000Z</time>
      </trkpt>
      <trkpt lat="-33.60305517911911" lon="-69.91717994213104">
        <ele>3176.6</ele>
        <time>2020-12-05T18:07:34.000Z</time>
      </trkpt>
      <trkpt lat="-33.60305618494749" lon="-69.91717868484557">
        <ele>3176.6</ele>
        <time>2020-12-05T18:07:42.000Z</time>
      </trkpt>
      <trkpt lat="-33.60305618494749" lon="-69.91717868484557">
        <ele>3176.6</ele>
        <time>2020-12-05T18:07:49.000Z</time>
      </trkpt>
      <trkpt lat="-33.60305618494749" lon="-69.91717818193138">
        <ele>3176.6</ele>
        <time>2020-12-05T18:07:52.000Z</time>
      </trkpt>
      <trkpt lat="-33.60305526293814" lon="-69.9171698000282">
        <ele>3176.4</ele>
        <time>2020-12-05T18:07:58.000Z</time>
      </trkpt>
      <trkpt lat="-33.60301251523197" lon="-69.91709109395742">
        <ele>3174.2</ele>
        <time>2020-12-05T18:08:04.000Z</time>
      </trkpt>
      <trkpt lat="-33.60298594459891" lon="-69.9170350190252">
        <ele>3172.4</ele>
        <time>2020-12-05T18:08:08.000Z</time>
      </trkpt>
      <trkpt lat="-33.60297060571611" lon="-69.91701867431402">
        <ele>3171.8</ele>
        <time>2020-12-05T18:08:11.000Z</time>
      </trkpt>
      <trkpt lat="-33.60296574421227" lon="-69.91701431572437">
        <ele>3171.6</ele>
        <time>2020-12-05T18:08:12.000Z</time>
      </trkpt>
      <trkpt lat="-33.602966498583555" lon="-69.91700970567763">
        <ele>3171.4</ele>
        <time>2020-12-05T18:08:13.000Z</time>
      </trkpt>
      <trkpt lat="-33.6029433645308" lon="-69.91699922829866">
        <ele>3170.8</ele>
        <time>2020-12-05T18:08:18.000Z</time>
      </trkpt>
      <trkpt lat="-33.60293791629374" lon="-69.91699637845159">
        <ele>3170.6</ele>
        <time>2020-12-05T18:08:19.000Z</time>
      </trkpt>
      <trkpt lat="-33.60291981138289" lon="-69.91698330268264">
        <ele>3170.2</ele>
        <time>2020-12-05T18:08:23.000Z</time>
      </trkpt>
      <trkpt lat="-33.60292718745768" lon="-69.91696293465793">
        <ele>3169.4</ele>
        <time>2020-12-05T18:08:26.000Z</time>
      </trkpt>
      <trkpt lat="-33.602946884930134" lon="-69.91691197268665">
        <ele>3168</ele>
        <time>2020-12-05T18:08:31.000Z</time>
      </trkpt>
      <trkpt lat="-33.60296180471778" lon="-69.91689244285226">
        <ele>3167.4</ele>
        <time>2020-12-05T18:08:35.000Z</time>
      </trkpt>
      <trkpt lat="-33.60296775586903" lon="-69.91688749752939">
        <ele>3167.2</ele>
        <time>2020-12-05T18:08:36.000Z</time>
      </trkpt>
      <trkpt lat="-33.602981166914105" lon="-69.91687878035009">
        <ele>3167.2</ele>
        <time>2020-12-05T18:08:38.000Z</time>
      </trkpt>
      <trkpt lat="-33.60298820771277" lon="-69.91687400266528">
        <ele>3167</ele>
        <time>2020-12-05T18:08:40.000Z</time>
      </trkpt>
      <trkpt lat="-33.60296918079257" lon="-69.9168682191521">
        <ele>3166.6</ele>
        <time>2020-12-05T18:08:43.000Z</time>
      </trkpt>
      <trkpt lat="-33.602922074496746" lon="-69.9168727453798">
        <ele>3166.4</ele>
        <time>2020-12-05T18:08:48.000Z</time>
      </trkpt>
      <trkpt lat="-33.60290287993848" lon="-69.91685640066862">
        <ele>3165.6</ele>
        <time>2020-12-05T18:08:51.000Z</time>
      </trkpt>
      <trkpt lat="-33.60288796015084" lon="-69.91685329936445">
        <ele>3165.4</ele>
        <time>2020-12-05T18:08:54.000Z</time>
      </trkpt>
      <trkpt lat="-33.60287236981094" lon="-69.91685288026929">
        <ele>3165.4</ele>
        <time>2020-12-05T18:08:57.000Z</time>
      </trkpt>
      <trkpt lat="-33.60287982970476" lon="-69.91681968793273">
        <ele>3164.2</ele>
        <time>2020-12-05T18:09:01.000Z</time>
      </trkpt>
      <trkpt lat="-33.602889804169536" lon="-69.91679747588933">
        <ele>3163.6</ele>
        <time>2020-12-05T18:09:04.000Z</time>
      </trkpt>
      <trkpt lat="-33.60290522687137" lon="-69.91677459329367">
        <ele>3163</ele>
        <time>2020-12-05T18:09:07.000Z</time>
      </trkpt>
      <trkpt lat="-33.60293607227504" lon="-69.91673612035811">
        <ele>3162</ele>
        <time>2020-12-05T18:09:12.000Z</time>
      </trkpt>
      <trkpt lat="-33.602970857173204" lon="-69.91669739596546">
        <ele>3161</ele>
        <time>2020-12-05T18:09:19.000Z</time>
      </trkpt>
      <trkpt lat="-33.60297764651477" lon="-69.91669161245227">
        <ele>3160.8</ele>
        <time>2020-12-05T18:09:21.000Z</time>
      </trkpt>
      <trkpt lat="-33.60297001898289" lon="-69.9166937917471">
        <ele>3160.8</ele>
        <time>2020-12-05T18:09:23.000Z</time>
      </trkpt>
      <trkpt lat="-33.602948477491736" lon="-69.91669387556612">
        <ele>3160.6</ele>
        <time>2020-12-05T18:09:27.000Z</time>
      </trkpt>
      <trkpt lat="-33.60288963653147" lon="-69.91668373346329">
        <ele>3159.8</ele>
        <time>2020-12-05T18:09:35.000Z</time>
      </trkpt>
      <trkpt lat="-33.60281126573682" lon="-69.91669823415577">
        <ele>3159.6</ele>
        <time>2020-12-05T18:09:43.000Z</time>
      </trkpt>
      <trkpt lat="-33.602787628769875" lon="-69.91670695133507">
        <ele>3159.8</ele>
        <time>2020-12-05T18:09:45.000Z</time>
      </trkpt>
      <trkpt lat="-33.60276005230844" lon="-69.91669462993741">
        <ele>3159</ele>
        <time>2020-12-05T18:09:48.000Z</time>
      </trkpt>
      <trkpt lat="-33.602764746174216" lon="-69.91667007096112">
        <ele>3158.2</ele>
        <time>2020-12-05T18:09:50.000Z</time>
      </trkpt>
      <trkpt lat="-33.60279810614884" lon="-69.91661751642823">
        <ele>3156.8</ele>
        <time>2020-12-05T18:09:57.000Z</time>
      </trkpt>
      <trkpt lat="-33.60282937064767" lon="-69.91655549034476">
        <ele>3155</ele>
        <time>2020-12-05T18:10:06.000Z</time>
      </trkpt>
      <trkpt lat="-33.60282341949642" lon="-69.91655104793608">
        <ele>3154.8</ele>
        <time>2020-12-05T18:10:09.000Z</time>
      </trkpt>
      <trkpt lat="-33.6028088349849" lon="-69.91656462661922">
        <ele>3155.2</ele>
        <time>2020-12-05T18:10:12.000Z</time>
      </trkpt>
      <trkpt lat="-33.60278704203665" lon="-69.91655113175511">
        <ele>3154.4</ele>
        <time>2020-12-05T18:10:16.000Z</time>
      </trkpt>
      <trkpt lat="-33.60278595238924" lon="-69.91653621196747">
        <ele>3154</ele>
        <time>2020-12-05T18:10:19.000Z</time>
      </trkpt>
      <trkpt lat="-33.60278788022697" lon="-69.91653830744326">
        <ele>3154</ele>
        <time>2020-12-05T18:10:23.000Z</time>
      </trkpt>
      <trkpt lat="-33.60278788022697" lon="-69.91653830744326">
        <ele>3154</ele>
        <time>2020-12-05T18:10:29.000Z</time>
      </trkpt>
      <trkpt lat="-33.60278788022697" lon="-69.91653830744326">
        <ele>3154</ele>
        <time>2020-12-05T18:10:32.000Z</time>
      </trkpt>
      <trkpt lat="-33.60283490270376" lon="-69.91644501686096">
        <ele>3151.4</ele>
        <time>2020-12-05T18:10:39.000Z</time>
      </trkpt>
      <trkpt lat="-33.60285451635718" lon="-69.9163962341845">
        <ele>3149.6</ele>
        <time>2020-12-05T18:10:43.000Z</time>
      </trkpt>
      <trkpt lat="-33.602866753935814" lon="-69.91637133993208">
        <ele>3148.2</ele>
        <time>2020-12-05T18:10:47.000Z</time>
      </trkpt>
      <trkpt lat="-33.60287530347705" lon="-69.91635583341122">
        <ele>3147.4</ele>
        <time>2020-12-05T18:10:49.000Z</time>
      </trkpt>
      <trkpt lat="-33.60295124351978" lon="-69.91629808209836">
        <ele>3143.6</ele>
        <time>2020-12-05T18:11:00.000Z</time>
      </trkpt>
      <trkpt lat="-33.60296515747905" lon="-69.91628282703459">
        <ele>3142.8</ele>
        <time>2020-12-05T18:11:02.000Z</time>
      </trkpt>
      <trkpt lat="-33.603031458333135" lon="-69.91622457280755">
        <ele>3139.2</ele>
        <time>2020-12-05T18:11:11.000Z</time>
      </trkpt>
      <trkpt lat="-33.60303707420826" lon="-69.91620923392475">
        <ele>3138.6</ele>
        <time>2020-12-05T18:11:13.000Z</time>
      </trkpt>
      <trkpt lat="-33.603033889085054" lon="-69.91619833745062">
        <ele>3138.2</ele>
        <time>2020-12-05T18:11:15.000Z</time>
      </trkpt>
      <trkpt lat="-33.60301989130676" lon="-69.91619205102324">
        <ele>3138</ele>
        <time>2020-12-05T18:11:17.000Z</time>
      </trkpt>
      <trkpt lat="-33.60297244973481" lon="-69.91616279818118">
        <ele>3137.2</ele>
        <time>2020-12-05T18:11:25.000Z</time>
      </trkpt>
      <trkpt lat="-33.6029589548707" lon="-69.91616480983794">
        <ele>3137.4</ele>
        <time>2020-12-05T18:11:26.000Z</time>
      </trkpt>
      <trkpt lat="-33.602922074496746" lon="-69.9161477945745">
        <ele>3137.2</ele>
        <time>2020-12-05T18:11:30.000Z</time>
      </trkpt>
      <trkpt lat="-33.60290313139558" lon="-69.91613019257784">
        <ele>3136.6</ele>
        <time>2020-12-05T18:11:33.000Z</time>
      </trkpt>
      <trkpt lat="-33.602884858846664" lon="-69.91611753590405">
        <ele>3136.2</ele>
        <time>2020-12-05T18:11:36.000Z</time>
      </trkpt>
      <trkpt lat="-33.60287890769541" lon="-69.91611300967634">
        <ele>3136.2</ele>
        <time>2020-12-05T18:11:37.000Z</time>
      </trkpt>
      <trkpt lat="-33.60286231152713" lon="-69.91611200384796">
        <ele>3136.2</ele>
        <time>2020-12-05T18:11:39.000Z</time>
      </trkpt>
      <trkpt lat="-33.60283247195184" lon="-69.91611988283694">
        <ele>3136.8</ele>
        <time>2020-12-05T18:11:42.000Z</time>
      </trkpt>
      <trkpt lat="-33.60282291658223" lon="-69.91612206213176">
        <ele>3137</ele>
        <time>2020-12-05T18:11:43.000Z</time>
      </trkpt>
      <trkpt lat="-33.60281587578356" lon="-69.91610647179186">
        <ele>3136.4</ele>
        <time>2020-12-05T18:11:45.000Z</time>
      </trkpt>
      <trkpt lat="-33.60282358713448" lon="-69.91607084870338">
        <ele>3135</ele>
        <time>2020-12-05T18:11:48.000Z</time>
      </trkpt>
      <trkpt lat="-33.602884942665696" lon="-69.91599096916616">
        <ele>3131</ele>
        <time>2020-12-05T18:11:56.000Z</time>
      </trkpt>
      <trkpt lat="-33.60295878723264" lon="-69.91588753648102">
        <ele>3126.2</ele>
        <time>2020-12-05T18:12:06.000Z</time>
      </trkpt>
      <trkpt lat="-33.60299935564399" lon="-69.91579441353679">
        <ele>3122</ele>
        <time>2020-12-05T18:12:16.000Z</time>
      </trkpt>
      <trkpt lat="-33.60298720188439" lon="-69.91571612656116">
        <ele>3118.8</ele>
        <time>2020-12-05T18:12:27.000Z</time>
      </trkpt>
      <trkpt lat="-33.60300723463297" lon="-69.91565217263997">
        <ele>3116</ele>
        <time>2020-12-05T18:12:36.000Z</time>
      </trkpt>
      <trkpt lat="-33.60302441753447" lon="-69.91564923897386">
        <ele>3115.6</ele>
        <time>2020-12-05T18:12:44.000Z</time>
      </trkpt>
      <trkpt lat="-33.60302601009607" lon="-69.91565099917352">
        <ele>3115.6</ele>
        <time>2020-12-05T18:12:51.000Z</time>
      </trkpt>
      <trkpt lat="-33.603024585172534" lon="-69.91565242409706">
        <ele>3115.8</ele>
        <time>2020-12-05T18:12:56.000Z</time>
      </trkpt>
      <trkpt lat="-33.60301125794649" lon="-69.91565686650574">
        <ele>3116</ele>
        <time>2020-12-05T18:13:08.000Z</time>
      </trkpt>
      <trkpt lat="-33.60300840809941" lon="-69.91565686650574">
        <ele>3116</ele>
        <time>2020-12-05T18:13:11.000Z</time>
      </trkpt>
      <trkpt lat="-33.60303187742829" lon="-69.91563834249973">
        <ele>3115</ele>
        <time>2020-12-05T18:13:44.000Z</time>
      </trkpt>
      <trkpt lat="-33.603031542152166" lon="-69.91563834249973">
        <ele>3115</ele>
        <time>2020-12-05T18:13:49.000Z</time>
      </trkpt>
      <trkpt lat="-33.60299985855818" lon="-69.91563775576651">
        <ele>3115.4</ele>
        <time>2020-12-05T18:14:03.000Z</time>
      </trkpt>
      <trkpt lat="-33.60300061292946" lon="-69.91562384180725">
        <ele>3114.8</ele>
        <time>2020-12-05T18:14:08.000Z</time>
      </trkpt>
      <trkpt lat="-33.60300597734749" lon="-69.91562350653112">
        <ele>3114.6</ele>
        <time>2020-12-05T18:14:09.000Z</time>
      </trkpt>
      <trkpt lat="-33.60301360487938" lon="-69.9156279489398">
        <ele>3114.8</ele>
        <time>2020-12-05T18:14:11.000Z</time>
      </trkpt>
      <trkpt lat="-33.60302056185901" lon="-69.91564806550741">
        <ele>3115.6</ele>
        <time>2020-12-05T18:14:18.000Z</time>
      </trkpt>
      <trkpt lat="-33.60301125794649" lon="-69.91565451957285">
        <ele>3116</ele>
        <time>2020-12-05T18:14:24.000Z</time>
      </trkpt>
      <trkpt lat="-33.60304143279791" lon="-69.91565493866801">
        <ele>3115.6</ele>
        <time>2020-12-05T18:14:58.000Z</time>
      </trkpt>
      <trkpt lat="-33.60303606837988" lon="-69.91564555093646">
        <ele>3115.2</ele>
        <time>2020-12-05T18:15:28.000Z</time>
      </trkpt>
      <trkpt lat="-33.60301653854549" lon="-69.91566767916083">
        <ele>3116.4</ele>
        <time>2020-12-05T18:15:47.000Z</time>
      </trkpt>
      <trkpt lat="-33.60301377251744" lon="-69.91566834971309">
        <ele>3116.6</ele>
        <time>2020-12-05T18:15:53.000Z</time>
      </trkpt>
      <trkpt lat="-33.603012850508094" lon="-69.9156726244837">
        <ele>3116.8</ele>
        <time>2020-12-05T18:16:01.000Z</time>
      </trkpt>
      <trkpt lat="-33.60301276668906" lon="-69.91567329503596">
        <ele>3116.8</ele>
        <time>2020-12-05T18:16:02.000Z</time>
      </trkpt>
      <trkpt lat="-33.60301209613681" lon="-69.91567438468337">
        <ele>3116.8</ele>
        <time>2020-12-05T18:16:05.000Z</time>
      </trkpt>
      <trkpt lat="-33.60301167704165" lon="-69.91567648015916">
        <ele>3117</ele>
        <time>2020-12-05T18:16:09.000Z</time>
      </trkpt>
      <trkpt lat="-33.60300337895751" lon="-69.91568016819656">
        <ele>3117.2</ele>
        <time>2020-12-05T18:16:19.000Z</time>
      </trkpt>
      <trkpt lat="-33.60299365594983" lon="-69.915681341663">
        <ele>3117.4</ele>
        <time>2020-12-05T18:16:30.000Z</time>
      </trkpt>
      <trkpt lat="-33.602989884093404" lon="-69.91568100638688">
        <ele>3117.4</ele>
        <time>2020-12-05T18:16:34.000Z</time>
      </trkpt>
      <trkpt lat="-33.602983094751835" lon="-69.91568259894848">
        <ele>3117.6</ele>
        <time>2020-12-05T18:16:42.000Z</time>
      </trkpt>
      <trkpt lat="-33.60298083163798" lon="-69.91568461060524">
        <ele>3117.6</ele>
        <time>2020-12-05T18:16:44.000Z</time>
      </trkpt>
      <trkpt lat="-33.602980161085725" lon="-69.91568570025265">
        <ele>3117.6</ele>
        <time>2020-12-05T18:16:45.000Z</time>
      </trkpt>
      <trkpt lat="-33.60297949053347" lon="-69.91568670608103">
        <ele>3117.8</ele>
        <time>2020-12-05T18:16:46.000Z</time>
      </trkpt>
      <trkpt lat="-33.60297588631511" lon="-69.91569961421192">
        <ele>3118.4</ele>
        <time>2020-12-05T18:16:52.000Z</time>
      </trkpt>
      <trkpt lat="-33.6029296182096" lon="-69.91574697196484">
        <ele>3120.6</ele>
        <time>2020-12-05T18:17:03.000Z</time>
      </trkpt>
      <trkpt lat="-33.60285485163331" lon="-69.91575133055449">
        <ele>3121.6</ele>
        <time>2020-12-05T18:17:08.000Z</time>
      </trkpt>
      <trkpt lat="-33.602800369262695" lon="-69.91572752594948">
        <ele>3121.2</ele>
        <time>2020-12-05T18:17:16.000Z</time>
      </trkpt>
      <trkpt lat="-33.6028173007071" lon="-69.91570623591542">
        <ele>3120.2</ele>
        <time>2020-12-05T18:17:21.000Z</time>
      </trkpt>
      <trkpt lat="-33.60281931236386" lon="-69.91570346988738">
        <ele>3120</ele>
        <time>2020-12-05T18:17:22.000Z</time>
      </trkpt>
      <trkpt lat="-33.60281872563064" lon="-69.91568720899522">
        <ele>3119.4</ele>
        <time>2020-12-05T18:17:30.000Z</time>
      </trkpt>
      <trkpt lat="-33.60282006673515" lon="-69.91565988399088">
        <ele>3118.2</ele>
        <time>2020-12-05T18:17:38.000Z</time>
      </trkpt>
      <trkpt lat="-33.60282006673515" lon="-69.9156607221812">
        <ele>3118.2</ele>
        <time>2020-12-05T18:17:46.000Z</time>
      </trkpt>
      <trkpt lat="-33.60282006673515" lon="-69.9156607221812">
        <ele>3118.2</ele>
        <time>2020-12-05T18:17:48.000Z</time>
      </trkpt>
      <trkpt lat="-33.6028191447258" lon="-69.91560037247837">
        <ele>3115.8</ele>
        <time>2020-12-05T18:18:23.000Z</time>
      </trkpt>
      <trkpt lat="-33.60282492823899" lon="-69.9155660904944">
        <ele>3114.4</ele>
        <time>2020-12-05T18:18:39.000Z</time>
      </trkpt>
      <trkpt lat="-33.602847224101424" lon="-69.91551864892244">
        <ele>3112</ele>
        <time>2020-12-05T18:18:53.000Z</time>
      </trkpt>
      <trkpt lat="-33.60285149887204" lon="-69.91551353596151">
        <ele>3111.8</ele>
        <time>2020-12-05T18:18:56.000Z</time>
      </trkpt>
      <trkpt lat="-33.60285644419491" lon="-69.91550909355283">
        <ele>3111.6</ele>
        <time>2020-12-05T18:19:02.000Z</time>
      </trkpt>
      <trkpt lat="-33.60286541283131" lon="-69.9154445528984">
        <ele>3108.6</ele>
        <time>2020-12-05T18:19:20.000Z</time>
      </trkpt>
      <trkpt lat="-33.602863401174545" lon="-69.91543835029006">
        <ele>3108.4</ele>
        <time>2020-12-05T18:19:27.000Z</time>
      </trkpt>
      <trkpt lat="-33.60286323353648" lon="-69.91543625481427">
        <ele>3108.4</ele>
        <time>2020-12-05T18:19:30.000Z</time>
      </trkpt>
      <trkpt lat="-33.60286206007004" lon="-69.91543399170041">
        <ele>3108.2</ele>
        <time>2020-12-05T18:19:32.000Z</time>
      </trkpt>
      <trkpt lat="-33.60286130569875" lon="-69.9154292140156">
        <ele>3108</ele>
        <time>2020-12-05T18:19:34.000Z</time>
      </trkpt>
      <trkpt lat="-33.602858958765864" lon="-69.91541898809373">
        <ele>3107.6</ele>
        <time>2020-12-05T18:19:37.000Z</time>
      </trkpt>
      <trkpt lat="-33.60286767594516" lon="-69.91533952765167">
        <ele>3105.4</ele>
        <time>2020-12-05T18:20:02.000Z</time>
      </trkpt>
      <trkpt lat="-33.60290229320526" lon="-69.91530013270676">
        <ele>3104.2</ele>
        <time>2020-12-05T18:20:14.000Z</time>
      </trkpt>
      <trkpt lat="-33.60290857963264" lon="-69.91529300808907">
        <ele>3104</ele>
        <time>2020-12-05T18:20:17.000Z</time>
      </trkpt>
      <trkpt lat="-33.602981586009264" lon="-69.91522503085434">
        <ele>3101.6</ele>
        <time>2020-12-05T18:20:28.000Z</time>
      </trkpt>
      <trkpt lat="-33.60302181914449" lon="-69.9151998013258">
        <ele>3100.6</ele>
        <time>2020-12-05T18:20:31.000Z</time>
      </trkpt>
      <trkpt lat="-33.60304738394916" lon="-69.91518043912947">
        <ele>3099.8</ele>
        <time>2020-12-05T18:20:34.000Z</time>
      </trkpt>
      <trkpt lat="-33.60305626876652" lon="-69.91516711190343">
        <ele>3099.4</ele>
        <time>2020-12-05T18:20:37.000Z</time>
      </trkpt>
      <trkpt lat="-33.603079905733466" lon="-69.91515068337321">
        <ele>3098.8</ele>
        <time>2020-12-05T18:20:43.000Z</time>
      </trkpt>
      <trkpt lat="-33.603130113333464" lon="-69.91515026427805">
        <ele>3098.2</ele>
        <time>2020-12-05T18:20:50.000Z</time>
      </trkpt>
      <trkpt lat="-33.60313631594181" lon="-69.91513811051846">
        <ele>3097.8</ele>
        <time>2020-12-05T18:20:53.000Z</time>
      </trkpt>
      <trkpt lat="-33.60317428596318" lon="-69.9151287227869">
        <ele>3097.2</ele>
        <time>2020-12-05T18:21:00.000Z</time>
      </trkpt>
      <trkpt lat="-33.60322860069573" lon="-69.91511355154216">
        <ele>3096.2</ele>
        <time>2020-12-05T18:21:06.000Z</time>
      </trkpt>
      <trkpt lat="-33.603246537968516" lon="-69.91510818712413">
        <ele>3096</ele>
        <time>2020-12-05T18:21:08.000Z</time>
      </trkpt>
      <trkpt lat="-33.60331258736551" lon="-69.91507910192013">
        <ele>3094.6</ele>
        <time>2020-12-05T18:21:15.000Z</time>
      </trkpt>
      <trkpt lat="-33.603346198797226" lon="-69.91507046855986">
        <ele>3094</ele>
        <time>2020-12-05T18:21:19.000Z</time>
      </trkpt>
      <trkpt lat="-33.603409146890044" lon="-69.91504481993616">
        <ele>3092.8</ele>
        <time>2020-12-05T18:21:25.000Z</time>
      </trkpt>
      <trkpt lat="-33.60348232090473" lon="-69.91504062898457">
        <ele>3092</ele>
        <time>2020-12-05T18:21:35.000Z</time>
      </trkpt>
      <trkpt lat="-33.60349690541625" lon="-69.91503844968975">
        <ele>3091.8</ele>
        <time>2020-12-05T18:21:37.000Z</time>
      </trkpt>
      <trkpt lat="-33.603508891537786" lon="-69.91503769531846">
        <ele>3091.6</ele>
        <time>2020-12-05T18:21:39.000Z</time>
      </trkpt>
      <trkpt lat="-33.60351752489805" lon="-69.91503518074751">
        <ele>3091.6</ele>
        <time>2020-12-05T18:21:41.000Z</time>
      </trkpt>
      <trkpt lat="-33.60353051684797" lon="-69.91503744386137">
        <ele>3091.6</ele>
        <time>2020-12-05T18:21:43.000Z</time>
      </trkpt>
      <trkpt lat="-33.60353412106633" lon="-69.9150428082794">
        <ele>3091.8</ele>
        <time>2020-12-05T18:21:44.000Z</time>
      </trkpt>
      <trkpt lat="-33.60355256125331" lon="-69.91505144163966">
        <ele>3092</ele>
        <time>2020-12-05T18:21:47.000Z</time>
      </trkpt>
      <trkpt lat="-33.60359027981758" lon="-69.91507868282497">
        <ele>3092.8</ele>
        <time>2020-12-05T18:21:52.000Z</time>
      </trkpt>
      <trkpt lat="-33.603598326444626" lon="-69.91508631035686">
        <ele>3093</ele>
        <time>2020-12-05T18:21:54.000Z</time>
      </trkpt>
      <trkpt lat="-33.603604109957814" lon="-69.91510433144867">
        <ele>3093.4</ele>
        <time>2020-12-05T18:21:59.000Z</time>
      </trkpt>
      <trkpt lat="-33.60360276885331" lon="-69.91512411274016">
        <ele>3093.8</ele>
        <time>2020-12-05T18:22:08.000Z</time>
      </trkpt>
      <trkpt lat="-33.60360377468169" lon="-69.91512411274016">
        <ele>3093.8</ele>
        <time>2020-12-05T18:22:29.000Z</time>
      </trkpt>
      <trkpt lat="-33.603604109957814" lon="-69.91512310691178">
        <ele>3093.8</ele>
        <time>2020-12-05T18:22:50.000Z</time>
      </trkpt>
      <trkpt lat="-33.603592459112406" lon="-69.9151429720223">
        <ele>3094.2</ele>
        <time>2020-12-05T18:23:05.000Z</time>
      </trkpt>
      <trkpt lat="-33.6035945545882" lon="-69.91514397785068">
        <ele>3094.2</ele>
        <time>2020-12-05T18:23:06.000Z</time>
      </trkpt>
      <trkpt lat="-33.60359841026366" lon="-69.91515059955418">
        <ele>3094.4</ele>
        <time>2020-12-05T18:23:13.000Z</time>
      </trkpt>
      <trkpt lat="-33.603597320616245" lon="-69.9151654355228">
        <ele>3094.6</ele>
        <time>2020-12-05T18:23:26.000Z</time>
      </trkpt>
      <trkpt lat="-33.603597236797214" lon="-69.9151718057692">
        <ele>3094.8</ele>
        <time>2020-12-05T18:23:45.000Z</time>
      </trkpt>
      <trkpt lat="-33.603598326444626" lon="-69.9151718057692">
        <ele>3094.8</ele>
        <time>2020-12-05T18:23:50.000Z</time>
      </trkpt>
      <trkpt lat="-33.60360000282526" lon="-69.9151718057692">
        <ele>3094.8</ele>
        <time>2020-12-05T18:23:54.000Z</time>
      </trkpt>
      <trkpt lat="-33.60360042192042" lon="-69.9151718057692">
        <ele>3094.8</ele>
        <time>2020-12-05T18:23:58.000Z</time>
      </trkpt>
      <trkpt lat="-33.60360134392977" lon="-69.91517482325435">
        <ele>3094.8</ele>
        <time>2020-12-05T18:24:07.000Z</time>
      </trkpt>
      <trkpt lat="-33.60360478051007" lon="-69.91516979411244">
        <ele>3094.8</ele>
        <time>2020-12-05T18:24:46.000Z</time>
      </trkpt>
      <trkpt lat="-33.60360452905297" lon="-69.91516032256186">
        <ele>3094.6</ele>
        <time>2020-12-05T18:24:56.000Z</time>
      </trkpt>
      <trkpt lat="-33.603604109957814" lon="-69.91516032256186">
        <ele>3094.6</ele>
        <time>2020-12-05T18:24:57.000Z</time>
      </trkpt>
      <trkpt lat="-33.60359522514045" lon="-69.91515378467739">
        <ele>3094.4</ele>
        <time>2020-12-05T18:25:11.000Z</time>
      </trkpt>
      <trkpt lat="-33.603592962026596" lon="-69.91514909081161">
        <ele>3094.2</ele>
        <time>2020-12-05T18:25:38.000Z</time>
      </trkpt>
      <trkpt lat="-33.603595895692706" lon="-69.91514900699258">
        <ele>3094.4</ele>
        <time>2020-12-05T18:25:41.000Z</time>
      </trkpt>
      <trkpt lat="-33.603608552366495" lon="-69.91515219211578">
        <ele>3094.4</ele>
        <time>2020-12-05T18:26:11.000Z</time>
      </trkpt>
      <trkpt lat="-33.6036083009094" lon="-69.91515177302063">
        <ele>3094.4</ele>
        <time>2020-12-05T18:26:14.000Z</time>
      </trkpt>
      <trkpt lat="-33.60360779799521" lon="-69.9151514377445">
        <ele>3094.4</ele>
        <time>2020-12-05T18:26:18.000Z</time>
      </trkpt>
      <trkpt lat="-33.6036067083478" lon="-69.91515101864934">
        <ele>3094.4</ele>
        <time>2020-12-05T18:26:25.000Z</time>
      </trkpt>
      <trkpt lat="-33.603606121614575" lon="-69.91515076719224">
        <ele>3094.4</ele>
        <time>2020-12-05T18:26:45.000Z</time>
      </trkpt>
      <trkpt lat="-33.60367636196315" lon="-69.91503526456654">
        <ele>3092.4</ele>
        <time>2020-12-05T18:27:05.000Z</time>
      </trkpt>
      <trkpt lat="-33.603694466874" lon="-69.91499586962163">
        <ele>3091.8</ele>
        <time>2020-12-05T18:27:07.000Z</time>
      </trkpt>
      <trkpt lat="-33.6037222109735" lon="-69.9149442370981">
        <ele>3090.8</ele>
        <time>2020-12-05T18:27:14.000Z</time>
      </trkpt>
      <trkpt lat="-33.6037134937942" lon="-69.91493535228074">
        <ele>3090.6</ele>
        <time>2020-12-05T18:27:23.000Z</time>
      </trkpt>
      <trkpt lat="-33.60370888374746" lon="-69.91491163149476">
        <ele>3090.2</ele>
        <time>2020-12-05T18:27:29.000Z</time>
      </trkpt>
      <trkpt lat="-33.60368859954178" lon="-69.91491439752281">
        <ele>3090</ele>
        <time>2020-12-05T18:27:33.000Z</time>
      </trkpt>
      <trkpt lat="-33.60368709079921" lon="-69.91491037420928">
        <ele>3090</ele>
        <time>2020-12-05T18:27:34.000Z</time>
      </trkpt>
      <trkpt lat="-33.60368558205664" lon="-69.91490584798157">
        <ele>3089.8</ele>
        <time>2020-12-05T18:27:36.000Z</time>
      </trkpt>
      <trkpt lat="-33.60367049463093" lon="-69.91489939391613">
        <ele>3089.6</ele>
        <time>2020-12-05T18:27:40.000Z</time>
      </trkpt>
      <trkpt lat="-33.603667225688696" lon="-69.91487433202565">
        <ele>3089.2</ele>
        <time>2020-12-05T18:27:48.000Z</time>
      </trkpt>
      <trkpt lat="-33.60367426648736" lon="-69.91487030871212">
        <ele>3089</ele>
        <time>2020-12-05T18:27:52.000Z</time>
      </trkpt>
      <trkpt lat="-33.603674517944455" lon="-69.9148610047996">
        <ele>3089</ele>
        <time>2020-12-05T18:27:57.000Z</time>
      </trkpt>
      <trkpt lat="-33.603691114112735" lon="-69.9148247949779">
        <ele>3088.2</ele>
        <time>2020-12-05T18:28:09.000Z</time>
      </trkpt>
      <trkpt lat="-33.603710727766156" lon="-69.9147991463542">
        <ele>3087.8</ele>
        <time>2020-12-05T18:28:14.000Z</time>
      </trkpt>
      <trkpt lat="-33.60371768474579" lon="-69.91479503922164">
        <ele>3087.8</ele>
        <time>2020-12-05T18:28:15.000Z</time>
      </trkpt>
      <trkpt lat="-33.60374760814011" lon="-69.91478824988008">
        <ele>3087.6</ele>
        <time>2020-12-05T18:28:24.000Z</time>
      </trkpt>
      <trkpt lat="-33.6037481110543" lon="-69.91479529067874">
        <ele>3088</ele>
        <time>2020-12-05T18:28:34.000Z</time>
      </trkpt>
      <trkpt lat="-33.6037481110543" lon="-69.91479529067874">
        <ele>3088</ele>
        <time>2020-12-05T18:28:36.000Z</time>
      </trkpt>
      <trkpt lat="-33.6037481110543" lon="-69.91479529067874">
        <ele>3088</ele>
        <time>2020-12-05T18:28:37.000Z</time>
      </trkpt>
      <trkpt lat="-33.6037481110543" lon="-69.91479529067874">
        <ele>3088</ele>
        <time>2020-12-05T18:28:43.000Z</time>
      </trkpt>
      <trkpt lat="-33.60374702140689" lon="-69.91479084827006">
        <ele>3087.8</ele>
        <time>2020-12-05T18:28:51.000Z</time>
      </trkpt>
      <trkpt lat="-33.60374660231173" lon="-69.91478749550879">
        <ele>3087.6</ele>
        <time>2020-12-05T18:28:54.000Z</time>
      </trkpt>
      <trkpt lat="-33.60374551266432" lon="-69.91478590294719">
        <ele>3087.6</ele>
        <time>2020-12-05T18:28:57.000Z</time>
      </trkpt>
      <trkpt lat="-33.603744339197874" lon="-69.91478573530912">
        <ele>3087.6</ele>
        <time>2020-12-05T18:29:02.000Z</time>
      </trkpt>
      <trkpt lat="-33.60374366864562" lon="-69.91478565149009">
        <ele>3087.6</ele>
        <time>2020-12-05T18:29:06.000Z</time>
      </trkpt>
      <trkpt lat="-33.60374366864562" lon="-69.91478456184268">
        <ele>3087.6</ele>
        <time>2020-12-05T18:29:08.000Z</time>
      </trkpt>
      <trkpt lat="-33.60374366864562" lon="-69.91478389129043">
        <ele>3087.6</ele>
        <time>2020-12-05T18:29:10.000Z</time>
      </trkpt>
      <trkpt lat="-33.60374509356916" lon="-69.91478389129043">
        <ele>3087.4</ele>
        <time>2020-12-05T18:29:18.000Z</time>
      </trkpt>
      <trkpt lat="-33.60374425537884" lon="-69.91478221490979">
        <ele>3087.4</ele>
        <time>2020-12-05T18:29:24.000Z</time>
      </trkpt>
      <trkpt lat="-33.603745345026255" lon="-69.91478095762432">
        <ele>3087.4</ele>
        <time>2020-12-05T18:29:28.000Z</time>
      </trkpt>
      <trkpt lat="-33.60374568030238" lon="-69.91478020325303">
        <ele>3087.4</ele>
        <time>2020-12-05T18:29:31.000Z</time>
      </trkpt>
      <trkpt lat="-33.603745847940445" lon="-69.91477844305336">
        <ele>3087.2</ele>
        <time>2020-12-05T18:29:42.000Z</time>
      </trkpt>
      <trkpt lat="-33.603749284520745" lon="-69.9147872440517">
        <ele>3087.6</ele>
        <time>2020-12-05T18:29:57.000Z</time>
      </trkpt>
      <trkpt lat="-33.6038139089942" lon="-69.91477207280695">
        <ele>3086</ele>
        <time>2020-12-05T18:30:06.000Z</time>
      </trkpt>
      <trkpt lat="-33.603857327252626" lon="-69.9147592484951">
        <ele>3084.8</ele>
        <time>2020-12-05T18:30:10.000Z</time>
      </trkpt>
      <trkpt lat="-33.603893453255296" lon="-69.91474441252649">
        <ele>3083.8</ele>
        <time>2020-12-05T18:30:13.000Z</time>
      </trkpt>
      <trkpt lat="-33.60394692979753" lon="-69.91471096873283">
        <ele>3081.6</ele>
        <time>2020-12-05T18:30:18.000Z</time>
      </trkpt>
      <trkpt lat="-33.604006776586175" lon="-69.9146733339876">
        <ele>3079.2</ele>
        <time>2020-12-05T18:30:25.000Z</time>
      </trkpt>
      <trkpt lat="-33.60408271662891" lon="-69.91463595069945">
        <ele>3076.6</ele>
        <time>2020-12-05T18:30:34.000Z</time>
      </trkpt>
      <trkpt lat="-33.60408271662891" lon="-69.91463595069945">
        <ele>3076.6</ele>
        <time>2020-12-05T18:30:35.000Z</time>
      </trkpt>
      <trkpt lat="-33.60408682376146" lon="-69.91462614387274">
        <ele>3076.2</ele>
        <time>2020-12-05T18:30:39.000Z</time>
      </trkpt>
      <trkpt lat="-33.60409839078784" lon="-69.91461399011314">
        <ele>3075.4</ele>
        <time>2020-12-05T18:30:43.000Z</time>
      </trkpt>
      <trkpt lat="-33.604157315567136" lon="-69.91458959877491">
        <ele>3073.6</ele>
        <time>2020-12-05T18:30:50.000Z</time>
      </trkpt>
      <trkpt lat="-33.60416921786964" lon="-69.91458892822266">
        <ele>3073.4</ele>
        <time>2020-12-05T18:30:51.000Z</time>
      </trkpt>
      <trkpt lat="-33.60424700193107" lon="-69.91457199677825">
        <ele>3071.6</ele>
        <time>2020-12-05T18:30:58.000Z</time>
      </trkpt>
      <trkpt lat="-33.60429645515978" lon="-69.91455992683768">
        <ele>3071</ele>
        <time>2020-12-05T18:31:02.000Z</time>
      </trkpt>
      <trkpt lat="-33.60432118177414" lon="-69.91455221548676">
        <ele>3070.8</ele>
        <time>2020-12-05T18:31:04.000Z</time>
      </trkpt>
      <trkpt lat="-33.60436795279384" lon="-69.91455506533384">
        <ele>3070.2</ele>
        <time>2020-12-05T18:31:08.000Z</time>
      </trkpt>
      <trkpt lat="-33.60437951982021" lon="-69.91455724462867">
        <ele>3070.2</ele>
        <time>2020-12-05T18:31:09.000Z</time>
      </trkpt>
      <trkpt lat="-33.604403575882316" lon="-69.91455255076289">
        <ele>3070.2</ele>
        <time>2020-12-05T18:31:11.000Z</time>
      </trkpt>
      <trkpt lat="-33.60445118509233" lon="-69.9145034328103">
        <ele>3070.8</ele>
        <time>2020-12-05T18:31:16.000Z</time>
      </trkpt>
      <trkpt lat="-33.60455151647329" lon="-69.91446655243635">
        <ele>3071.2</ele>
        <time>2020-12-05T18:31:24.000Z</time>
      </trkpt>
      <trkpt lat="-33.60459811985493" lon="-69.9144661333412">
        <ele>3071.4</ele>
        <time>2020-12-05T18:31:28.000Z</time>
      </trkpt>
      <trkpt lat="-33.60462133772671" lon="-69.91445909254253">
        <ele>3071.4</ele>
        <time>2020-12-05T18:31:30.000Z</time>
      </trkpt>
      <trkpt lat="-33.60467188060284" lon="-69.91444258019328">
        <ele>3071.6</ele>
        <time>2020-12-05T18:31:34.000Z</time>
      </trkpt>
      <trkpt lat="-33.604748072102666" lon="-69.91440846584737">
        <ele>3072.2</ele>
        <time>2020-12-05T18:31:41.000Z</time>
      </trkpt>
      <trkpt lat="-33.604779755696654" lon="-69.91438625380397">
        <ele>3072.4</ele>
        <time>2020-12-05T18:31:44.000Z</time>
      </trkpt>
      <trkpt lat="-33.60485276207328" lon="-69.91435272619128">
        <ele>3072.8</ele>
        <time>2020-12-05T18:31:50.000Z</time>
      </trkpt>
      <trkpt lat="-33.60492434352636" lon="-69.91436881944537">
        <ele>3072.8</ele>
        <time>2020-12-05T18:31:55.000Z</time>
      </trkpt>
      <trkpt lat="-33.604938089847565" lon="-69.91437066346407">
        <ele>3072.8</ele>
        <time>2020-12-05T18:31:56.000Z</time>
      </trkpt>
      <trkpt lat="-33.605083264410496" lon="-69.91433403454721">
        <ele>3071.2</ele>
        <time>2020-12-05T18:32:07.000Z</time>
      </trkpt>
      <trkpt lat="-33.605119893327355" lon="-69.91431936621666">
        <ele>3070.6</ele>
        <time>2020-12-05T18:32:10.000Z</time>
      </trkpt>
      <trkpt lat="-33.60520849004388" lon="-69.91428391076624">
        <ele>3069.6</ele>
        <time>2020-12-05T18:32:17.000Z</time>
      </trkpt>
      <trkpt lat="-33.605323657393456" lon="-69.91422163322568">
        <ele>3070.4</ele>
        <time>2020-12-05T18:32:26.000Z</time>
      </trkpt>
      <trkpt lat="-33.60546908341348" lon="-69.91413286887109">
        <ele>3071.2</ele>
        <time>2020-12-05T18:32:36.000Z</time>
      </trkpt>
      <trkpt lat="-33.60555114224553" lon="-69.91410613059998">
        <ele>3072</ele>
        <time>2020-12-05T18:32:42.000Z</time>
      </trkpt>
      <trkpt lat="-33.60559514723718" lon="-69.91408199071884">
        <ele>3071</ele>
        <time>2020-12-05T18:32:46.000Z</time>
      </trkpt>
      <trkpt lat="-33.605604618787766" lon="-69.9140773806721">
        <ele>3071</ele>
        <time>2020-12-05T18:32:47.000Z</time>
      </trkpt>
      <trkpt lat="-33.60562196932733" lon="-69.91406564600766">
        <ele>3070.4</ele>
        <time>2020-12-05T18:32:49.000Z</time>
      </trkpt>
      <trkpt lat="-33.60566723160446" lon="-69.9140393268317">
        <ele>3069.4</ele>
        <time>2020-12-05T18:32:54.000Z</time>
      </trkpt>
      <trkpt lat="-33.605702351778746" lon="-69.91401376202703">
        <ele>3068.6</ele>
        <time>2020-12-05T18:32:57.000Z</time>
      </trkpt>
      <trkpt lat="-33.605785835534334" lon="-69.91398182697594">
        <ele>3067.2</ele>
        <time>2020-12-05T18:33:04.000Z</time>
      </trkpt>
      <trkpt lat="-33.605895303189754" lon="-69.91392826661468">
        <ele>3065</ele>
        <time>2020-12-05T18:33:15.000Z</time>
      </trkpt>
      <trkpt lat="-33.60596680082381" lon="-69.91387587971985">
        <ele>3063.2</ele>
        <time>2020-12-05T18:33:25.000Z</time>
      </trkpt>
      <trkpt lat="-33.60602404922247" lon="-69.91383732296526">
        <ele>3062</ele>
        <time>2020-12-05T18:33:32.000Z</time>
      </trkpt>
      <trkpt lat="-33.60606126487255" lon="-69.91380505263805">
        <ele>3062.4</ele>
        <time>2020-12-05T18:33:36.000Z</time>
      </trkpt>
      <trkpt lat="-33.60607400536537" lon="-69.91379474289715">
        <ele>3062.6</ele>
        <time>2020-12-05T18:33:39.000Z</time>
      </trkpt>
      <trkpt lat="-33.606074675917625" lon="-69.913778482005">
        <ele>3061.8</ele>
        <time>2020-12-05T18:33:42.000Z</time>
      </trkpt>
      <trkpt lat="-33.60608037561178" lon="-69.91377730853856">
        <ele>3061.8</ele>
        <time>2020-12-05T18:33:45.000Z</time>
      </trkpt>
      <trkpt lat="-33.606096636503935" lon="-69.91376012563705">
        <ele>3061.2</ele>
        <time>2020-12-05T18:33:48.000Z</time>
      </trkpt>
      <trkpt lat="-33.606111304834485" lon="-69.91375174373388">
        <ele>3060.8</ele>
        <time>2020-12-05T18:33:49.000Z</time>
      </trkpt>
      <trkpt lat="-33.60619160346687" lon="-69.91366926580667">
        <ele>3060.6</ele>
        <time>2020-12-05T18:34:00.000Z</time>
      </trkpt>
      <trkpt lat="-33.60625522211194" lon="-69.91362375207245">
        <ele>3061.2</ele>
        <time>2020-12-05T18:34:08.000Z</time>
      </trkpt>
      <trkpt lat="-33.60631196759641" lon="-69.91357530467212">
        <ele>3061.6</ele>
        <time>2020-12-05T18:34:14.000Z</time>
      </trkpt>
      <trkpt lat="-33.606340046972036" lon="-69.91354454308748">
        <ele>3061.8</ele>
        <time>2020-12-05T18:34:18.000Z</time>
      </trkpt>
      <trkpt lat="-33.606401486322284" lon="-69.91347220726311">
        <ele>3062.2</ele>
        <time>2020-12-05T18:34:28.000Z</time>
      </trkpt>
      <trkpt lat="-33.60643249936402" lon="-69.91343390196562">
        <ele>3062.4</ele>
        <time>2020-12-05T18:34:33.000Z</time>
      </trkpt>
      <trkpt lat="-33.60645839944482" lon="-69.91341982036829">
        <ele>3062.6</ele>
        <time>2020-12-05T18:34:37.000Z</time>
      </trkpt>
      <trkpt lat="-33.606514977291226" lon="-69.91339911706746">
        <ele>3063.2</ele>
        <time>2020-12-05T18:34:41.000Z</time>
      </trkpt>
      <trkpt lat="-33.60655713826418" lon="-69.91336994804442">
        <ele>3062.4</ele>
        <time>2020-12-05T18:34:45.000Z</time>
      </trkpt>
      <trkpt lat="-33.606646405532956" lon="-69.9133122805506">
        <ele>3060.6</ele>
        <time>2020-12-05T18:34:53.000Z</time>
      </trkpt>
      <trkpt lat="-33.60672142356634" lon="-69.9132554512471">
        <ele>3059</ele>
        <time>2020-12-05T18:35:02.000Z</time>
      </trkpt>
      <trkpt lat="-33.60679912380874" lon="-69.91318864747882">
        <ele>3057.2</ele>
        <time>2020-12-05T18:35:11.000Z</time>
      </trkpt>
      <trkpt lat="-33.606892665848136" lon="-69.91312712430954">
        <ele>3056.6</ele>
        <time>2020-12-05T18:35:20.000Z</time>
      </trkpt>
      <trkpt lat="-33.60690699890256" lon="-69.91310549899936">
        <ele>3056.6</ele>
        <time>2020-12-05T18:35:22.000Z</time>
      </trkpt>
      <trkpt lat="-33.607004564255476" lon="-69.91300106048584">
        <ele>3056.2</ele>
        <time>2020-12-05T18:35:33.000Z</time>
      </trkpt>
      <trkpt lat="-33.607021160423756" lon="-69.91297977045178">
        <ele>3055.8</ele>
        <time>2020-12-05T18:35:35.000Z</time>
      </trkpt>
      <trkpt lat="-33.60705711878836" lon="-69.91294146515429">
        <ele>3055</ele>
        <time>2020-12-05T18:35:41.000Z</time>
      </trkpt>
      <trkpt lat="-33.60712308436632" lon="-69.91286468692124">
        <ele>3054.6</ele>
        <time>2020-12-05T18:35:52.000Z</time>
      </trkpt>
      <trkpt lat="-33.607173040509224" lon="-69.9127889983356">
        <ele>3055</ele>
        <time>2020-12-05T18:36:00.000Z</time>
      </trkpt>
      <trkpt lat="-33.607230288907886" lon="-69.91272965446115">
        <ele>3055.6</ele>
        <time>2020-12-05T18:36:08.000Z</time>
      </trkpt>
      <trkpt lat="-33.607241017743945" lon="-69.91272110491991">
        <ele>3055.8</ele>
        <time>2020-12-05T18:36:10.000Z</time>
      </trkpt>
      <trkpt lat="-33.60727990977466" lon="-69.91269000805914">
        <ele>3056.2</ele>
        <time>2020-12-05T18:36:15.000Z</time>
      </trkpt>
      <trkpt lat="-33.60728468745947" lon="-69.91268238052726">
        <ele>3056.2</ele>
        <time>2020-12-05T18:36:16.000Z</time>
      </trkpt>
      <trkpt lat="-33.60729583539069" lon="-69.91264977492392">
        <ele>3056.2</ele>
        <time>2020-12-05T18:36:21.000Z</time>
      </trkpt>
      <trkpt lat="-33.607296757400036" lon="-69.91263594478369">
        <ele>3056.2</ele>
        <time>2020-12-05T18:36:23.000Z</time>
      </trkpt>
      <trkpt lat="-33.607282005250454" lon="-69.91261742077768">
        <ele>3056</ele>
        <time>2020-12-05T18:36:26.000Z</time>
      </trkpt>
      <trkpt lat="-33.6072953324765" lon="-69.91258875466883">
        <ele>3056.2</ele>
        <time>2020-12-05T18:36:29.000Z</time>
      </trkpt>
      <trkpt lat="-33.60734193585813" lon="-69.91253284737468">
        <ele>3056</ele>
        <time>2020-12-05T18:36:37.000Z</time>
      </trkpt>
      <trkpt lat="-33.60734730027616" lon="-69.9125093780458">
        <ele>3055.4</ele>
        <time>2020-12-05T18:36:38.000Z</time>
      </trkpt>
      <trkpt lat="-33.60737663693726" lon="-69.91248104721308">
        <ele>3054.6</ele>
        <time>2020-12-05T18:36:43.000Z</time>
      </trkpt>
      <trkpt lat="-33.60738552175462" lon="-69.91248356178403">
        <ele>3054.6</ele>
        <time>2020-12-05T18:36:44.000Z</time>
      </trkpt>
      <trkpt lat="-33.60741904936731" lon="-69.91246503777802">
        <ele>3054</ele>
        <time>2020-12-05T18:36:50.000Z</time>
      </trkpt>
      <trkpt lat="-33.607448637485504" lon="-69.91241700947285">
        <ele>3052.6</ele>
        <time>2020-12-05T18:36:55.000Z</time>
      </trkpt>
      <trkpt lat="-33.60746640712023" lon="-69.91239672526717">
        <ele>3052</ele>
        <time>2020-12-05T18:36:58.000Z</time>
      </trkpt>
      <trkpt lat="-33.60747579485178" lon="-69.91237241774797">
        <ele>3051.4</ele>
        <time>2020-12-05T18:36:59.000Z</time>
      </trkpt>
      <trkpt lat="-33.60755039379001" lon="-69.91224375553429">
        <ele>3048</ele>
        <time>2020-12-05T18:37:10.000Z</time>
      </trkpt>
      <trkpt lat="-33.607592303305864" lon="-69.91217385046184">
        <ele>3046</ele>
        <time>2020-12-05T18:37:16.000Z</time>
      </trkpt>
      <trkpt lat="-33.607618790119886" lon="-69.91216119378805">
        <ele>3045.6</ele>
        <time>2020-12-05T18:37:19.000Z</time>
      </trkpt>
      <trkpt lat="-33.60767721198499" lon="-69.91207653656602">
        <ele>3043.2</ele>
        <time>2020-12-05T18:37:27.000Z</time>
      </trkpt>
      <trkpt lat="-33.6077097337693" lon="-69.91199523210526">
        <ele>3043</ele>
        <time>2020-12-05T18:37:34.000Z</time>
      </trkpt>
      <trkpt lat="-33.60772155225277" lon="-69.9119287636131">
        <ele>3043</ele>
        <time>2020-12-05T18:37:41.000Z</time>
      </trkpt>
      <trkpt lat="-33.60772540792823" lon="-69.91191568784416">
        <ele>3043</ele>
        <time>2020-12-05T18:37:42.000Z</time>
      </trkpt>
      <trkpt lat="-33.607717948034406" lon="-69.91185709834099">
        <ele>3042.6</ele>
        <time>2020-12-05T18:37:47.000Z</time>
      </trkpt>
      <trkpt lat="-33.607721887528896" lon="-69.91184704005718">
        <ele>3042.6</ele>
        <time>2020-12-05T18:37:49.000Z</time>
      </trkpt>
      <trkpt lat="-33.60777762718499" lon="-69.91176716051996">
        <ele>3043</ele>
        <time>2020-12-05T18:37:58.000Z</time>
      </trkpt>
      <trkpt lat="-33.607805874198675" lon="-69.911769926548">
        <ele>3043.4</ele>
        <time>2020-12-05T18:38:03.000Z</time>
      </trkpt>
      <trkpt lat="-33.607825236395" lon="-69.91175601258874">
        <ele>3043.6</ele>
        <time>2020-12-05T18:38:05.000Z</time>
      </trkpt>
      <trkpt lat="-33.60789639875293" lon="-69.91170790046453">
        <ele>3044.2</ele>
        <time>2020-12-05T18:38:12.000Z</time>
      </trkpt>
      <trkpt lat="-33.60797569155693" lon="-69.91164838895202">
        <ele>3045</ele>
        <time>2020-12-05T18:38:19.000Z</time>
      </trkpt>
      <trkpt lat="-33.608088344335556" lon="-69.91156364791095">
        <ele>3044.6</ele>
        <time>2020-12-05T18:38:30.000Z</time>
      </trkpt>
      <trkpt lat="-33.60810359939933" lon="-69.91154353134334">
        <ele>3044</ele>
        <time>2020-12-05T18:38:33.000Z</time>
      </trkpt>
      <trkpt lat="-33.60814534127712" lon="-69.91146935150027">
        <ele>3042</ele>
        <time>2020-12-05T18:38:39.000Z</time>
      </trkpt>
      <trkpt lat="-33.608203679323196" lon="-69.91140699014068">
        <ele>3040.2</ele>
        <time>2020-12-05T18:38:45.000Z</time>
      </trkpt>
      <trkpt lat="-33.60821264795959" lon="-69.91139676421881">
        <ele>3039.8</ele>
        <time>2020-12-05T18:38:47.000Z</time>
      </trkpt>
      <trkpt lat="-33.60828992910683" lon="-69.91127212531865">
        <ele>3036.4</ele>
        <time>2020-12-05T18:38:58.000Z</time>
      </trkpt>
      <trkpt lat="-33.60830979421735" lon="-69.91124547086656">
        <ele>3035.8</ele>
        <time>2020-12-05T18:38:59.000Z</time>
      </trkpt>
      <trkpt lat="-33.60834449529648" lon="-69.91117740981281">
        <ele>3035.6</ele>
        <time>2020-12-05T18:39:04.000Z</time>
      </trkpt>
      <trkpt lat="-33.60840945504606" lon="-69.91109141148627">
        <ele>3035.6</ele>
        <time>2020-12-05T18:39:13.000Z</time>
      </trkpt>
      <trkpt lat="-33.6084470897913" lon="-69.91102854721248">
        <ele>3035</ele>
        <time>2020-12-05T18:39:19.000Z</time>
      </trkpt>
      <trkpt lat="-33.60847122967243" lon="-69.91100767627358">
        <ele>3034.6</ele>
        <time>2020-12-05T18:39:21.000Z</time>
      </trkpt>
      <trkpt lat="-33.608507104218006" lon="-69.91096626967192">
        <ele>3034.2</ele>
        <time>2020-12-05T18:39:25.000Z</time>
      </trkpt>
      <trkpt lat="-33.60852194018662" lon="-69.91093961521983">
        <ele>3034</ele>
        <time>2020-12-05T18:39:28.000Z</time>
      </trkpt>
      <trkpt lat="-33.608592599630356" lon="-69.9108288064599">
        <ele>3035.2</ele>
        <time>2020-12-05T18:39:38.000Z</time>
      </trkpt>
      <trkpt lat="-33.60867340117693" lon="-69.91072193719447">
        <ele>3036.6</ele>
        <time>2020-12-05T18:39:48.000Z</time>
      </trkpt>
      <trkpt lat="-33.60867968760431" lon="-69.91071456111968">
        <ele>3036.8</ele>
        <time>2020-12-05T18:39:50.000Z</time>
      </trkpt>
      <trkpt lat="-33.608692092821" lon="-69.91069897077978">
        <ele>3037</ele>
        <time>2020-12-05T18:39:53.000Z</time>
      </trkpt>
      <trkpt lat="-33.60871790908277" lon="-69.9106496013701">
        <ele>3037.4</ele>
        <time>2020-12-05T18:39:58.000Z</time>
      </trkpt>
      <trkpt lat="-33.60874280333519" lon="-69.9106250423938">
        <ele>3037.8</ele>
        <time>2020-12-05T18:40:00.000Z</time>
      </trkpt>
      <trkpt lat="-33.60876627266407" lon="-69.91059444844723">
        <ele>3037</ele>
        <time>2020-12-05T18:40:03.000Z</time>
      </trkpt>
      <trkpt lat="-33.60876627266407" lon="-69.91059444844723">
        <ele>3037</ele>
        <time>2020-12-05T18:40:04.000Z</time>
      </trkpt>
      <trkpt lat="-33.60881279222667" lon="-69.9105544667691">
        <ele>3036</ele>
        <time>2020-12-05T18:40:08.000Z</time>
      </trkpt>
      <trkpt lat="-33.60884489491582" lon="-69.9105267226696">
        <ele>3035.4</ele>
        <time>2020-12-05T18:40:11.000Z</time>
      </trkpt>
      <trkpt lat="-33.60885084606707" lon="-69.91052135825157">
        <ele>3035.2</ele>
        <time>2020-12-05T18:40:12.000Z</time>
      </trkpt>
      <trkpt lat="-33.60890415497124" lon="-69.91049285978079">
        <ele>3034.4</ele>
        <time>2020-12-05T18:40:16.000Z</time>
      </trkpt>
      <trkpt lat="-33.60898428596556" lon="-69.9104556441307">
        <ele>3033.4</ele>
        <time>2020-12-05T18:40:23.000Z</time>
      </trkpt>
      <trkpt lat="-33.60911470837891" lon="-69.91037811152637">
        <ele>3032.2</ele>
        <time>2020-12-05T18:40:34.000Z</time>
      </trkpt>
      <trkpt lat="-33.60919391736388" lon="-69.91031709127128">
        <ele>3032.6</ele>
        <time>2020-12-05T18:40:42.000Z</time>
      </trkpt>
      <trkpt lat="-33.60921202227473" lon="-69.91026378236711">
        <ele>3033.4</ele>
        <time>2020-12-05T18:40:46.000Z</time>
      </trkpt>
      <trkpt lat="-33.60922610387206" lon="-69.910221202299">
        <ele>3032.2</ele>
        <time>2020-12-05T18:40:51.000Z</time>
      </trkpt>
      <trkpt lat="-33.609301541000605" lon="-69.91015372797847">
        <ele>3028.6</ele>
        <time>2020-12-05T18:40:59.000Z</time>
      </trkpt>
      <trkpt lat="-33.609358202666044" lon="-69.91014886647463">
        <ele>3026.8</ele>
        <time>2020-12-05T18:41:06.000Z</time>
      </trkpt>
      <trkpt lat="-33.609363064169884" lon="-69.91014710627496">
        <ele>3026.8</ele>
        <time>2020-12-05T18:41:08.000Z</time>
      </trkpt>
      <trkpt lat="-33.609363567084074" lon="-69.91014107130468">
        <ele>3026.8</ele>
        <time>2020-12-05T18:41:09.000Z</time>
      </trkpt>
      <trkpt lat="-33.609388964250684" lon="-69.91012212820351">
        <ele>3026.8</ele>
        <time>2020-12-05T18:41:16.000Z</time>
      </trkpt>
      <trkpt lat="-33.60945115797222" lon="-69.91009941324592">
        <ele>3027.2</ele>
        <time>2020-12-05T18:41:25.000Z</time>
      </trkpt>
      <trkpt lat="-33.609508741647005" lon="-69.91006177850068">
        <ele>3027.2</ele>
        <time>2020-12-05T18:41:32.000Z</time>
      </trkpt>
      <trkpt lat="-33.609518548473716" lon="-69.91005691699684">
        <ele>3027.2</ele>
        <time>2020-12-05T18:41:34.000Z</time>
      </trkpt>
      <trkpt lat="-33.609625585377216" lon="-69.91000981070101">
        <ele>3027.8</ele>
        <time>2020-12-05T18:41:43.000Z</time>
      </trkpt>
      <trkpt lat="-33.609667997807264" lon="-69.91000922396779">
        <ele>3028.2</ele>
        <time>2020-12-05T18:41:47.000Z</time>
      </trkpt>
      <trkpt lat="-33.609684174880385" lon="-69.90998919121921">
        <ele>3028</ele>
        <time>2020-12-05T18:41:50.000Z</time>
      </trkpt>
      <trkpt lat="-33.60977972857654" lon="-69.90994258783758">
        <ele>3027.8</ele>
        <time>2020-12-05T18:41:59.000Z</time>
      </trkpt>
      <trkpt lat="-33.60984561033547" lon="-69.9099104013294">
        <ele>3026.6</ele>
        <time>2020-12-05T18:42:06.000Z</time>
      </trkpt>
      <trkpt lat="-33.60985399223864" lon="-69.909906713292">
        <ele>3026.6</ele>
        <time>2020-12-05T18:42:07.000Z</time>
      </trkpt>
      <trkpt lat="-33.60988039523363" lon="-69.90986631251872">
        <ele>3025.4</ele>
        <time>2020-12-05T18:42:12.000Z</time>
      </trkpt>
      <trkpt lat="-33.609897159039974" lon="-69.90984493866563">
        <ele>3024.6</ele>
        <time>2020-12-05T18:42:14.000Z</time>
      </trkpt>
      <trkpt lat="-33.609974943101406" lon="-69.90979925729334">
        <ele>3023.2</ele>
        <time>2020-12-05T18:42:22.000Z</time>
      </trkpt>
      <trkpt lat="-33.61002758145332" lon="-69.90976790897548">
        <ele>3022.2</ele>
        <time>2020-12-05T18:42:27.000Z</time>
      </trkpt>
      <trkpt lat="-33.61007099971175" lon="-69.9097219761461">
        <ele>3020.8</ele>
        <time>2020-12-05T18:42:32.000Z</time>
      </trkpt>
      <trkpt lat="-33.61013302579522" lon="-69.90966439247131">
        <ele>3019</ele>
        <time>2020-12-05T18:42:39.000Z</time>
      </trkpt>
      <trkpt lat="-33.610208882018924" lon="-69.90958451293409">
        <ele>3017.2</ele>
        <time>2020-12-05T18:42:48.000Z</time>
      </trkpt>
      <trkpt lat="-33.61021307297051" lon="-69.90957403555512">
        <ele>3016.8</ele>
        <time>2020-12-05T18:42:50.000Z</time>
      </trkpt>
      <trkpt lat="-33.610278787091374" lon="-69.90953128784895">
        <ele>3017.6</ele>
        <time>2020-12-05T18:42:58.000Z</time>
      </trkpt>
      <trkpt lat="-33.610293455421925" lon="-69.90952273830771">
        <ele>3018</ele>
        <time>2020-12-05T18:42:59.000Z</time>
      </trkpt>
      <trkpt lat="-33.61033326946199" lon="-69.90949868224561">
        <ele>3018.6</ele>
        <time>2020-12-05T18:43:04.000Z</time>
      </trkpt>
      <trkpt lat="-33.610351793468" lon="-69.90948854014277">
        <ele>3019</ele>
        <time>2020-12-05T18:43:06.000Z</time>
      </trkpt>
      <trkpt lat="-33.610386829823256" lon="-69.90946624428034">
        <ele>3019.6</ele>
        <time>2020-12-05T18:43:11.000Z</time>
      </trkpt>
      <trkpt lat="-33.6104329302907" lon="-69.90942659787834">
        <ele>3020.6</ele>
        <time>2020-12-05T18:43:19.000Z</time>
      </trkpt>
      <trkpt lat="-33.61044080927968" lon="-69.90942039526999">
        <ele>3020.6</ele>
        <time>2020-12-05T18:43:20.000Z</time>
      </trkpt>
      <trkpt lat="-33.61045748926699" lon="-69.90940446965396">
        <ele>3021</ele>
        <time>2020-12-05T18:43:23.000Z</time>
      </trkpt>
      <trkpt lat="-33.610496297478676" lon="-69.90938066504896">
        <ele>3021.6</ele>
        <time>2020-12-05T18:43:27.000Z</time>
      </trkpt>
      <trkpt lat="-33.61057994887233" lon="-69.90934269502759">
        <ele>3023.2</ele>
        <time>2020-12-05T18:43:36.000Z</time>
      </trkpt>
      <trkpt lat="-33.610648764297366" lon="-69.9092954210937">
        <ele>3024.4</ele>
        <time>2020-12-05T18:43:46.000Z</time>
      </trkpt>
      <trkpt lat="-33.61068271100521" lon="-69.90927061066031">
        <ele>3025</ele>
        <time>2020-12-05T18:43:52.000Z</time>
      </trkpt>
      <trkpt lat="-33.61067189835012" lon="-69.90924982354045">
        <ele>3025</ele>
        <time>2020-12-05T18:43:54.000Z</time>
      </trkpt>
      <trkpt lat="-33.61072763800621" lon="-69.90919433534145">
        <ele>3024</ele>
        <time>2020-12-05T18:44:01.000Z</time>
      </trkpt>
      <trkpt lat="-33.61072763800621" lon="-69.90919433534145">
        <ele>3024</ele>
        <time>2020-12-05T18:44:02.000Z</time>
      </trkpt>
      <trkpt lat="-33.61073987558484" lon="-69.90917799063027">
        <ele>3023.4</ele>
        <time>2020-12-05T18:44:03.000Z</time>
      </trkpt>
      <trkpt lat="-33.610791843384504" lon="-69.90914722904563">
        <ele>3022.4</ele>
        <time>2020-12-05T18:44:08.000Z</time>
      </trkpt>
      <trkpt lat="-33.61084179952741" lon="-69.90908989682794">
        <ele>3020.6</ele>
        <time>2020-12-05T18:44:16.000Z</time>
      </trkpt>
      <trkpt lat="-33.610861329361796" lon="-69.90906609222293">
        <ele>3019.8</ele>
        <time>2020-12-05T18:44:20.000Z</time>
      </trkpt>
      <trkpt lat="-33.61086887307465" lon="-69.90905905142426">
        <ele>3019.6</ele>
        <time>2020-12-05T18:44:21.000Z</time>
      </trkpt>
      <trkpt lat="-33.610917404294014" lon="-69.90902896039188">
        <ele>3018.6</ele>
        <time>2020-12-05T18:44:27.000Z</time>
      </trkpt>
      <trkpt lat="-33.61098814755678" lon="-69.90900414995849">
        <ele>3017.4</ele>
        <time>2020-12-05T18:44:34.000Z</time>
      </trkpt>
      <trkpt lat="-33.610999044030905" lon="-69.90899953991175">
        <ele>3017.2</ele>
        <time>2020-12-05T18:44:35.000Z</time>
      </trkpt>
      <trkpt lat="-33.61104195937514" lon="-69.90896609611809">
        <ele>3017.4</ele>
        <time>2020-12-05T18:44:43.000Z</time>
      </trkpt>
      <trkpt lat="-33.611066518351436" lon="-69.90894614718854">
        <ele>3018</ele>
        <time>2020-12-05T18:44:46.000Z</time>
      </trkpt>
      <trkpt lat="-33.611066518351436" lon="-69.90894614718854">
        <ele>3018</ele>
        <time>2020-12-05T18:44:47.000Z</time>
      </trkpt>
      <trkpt lat="-33.61110080033541" lon="-69.90891312249005">
        <ele>3018.6</ele>
        <time>2020-12-05T18:44:52.000Z</time>
      </trkpt>
      <trkpt lat="-33.611109433695674" lon="-69.90890549495816">
        <ele>3018.8</ele>
        <time>2020-12-05T18:44:54.000Z</time>
      </trkpt>
      <trkpt lat="-33.61114388331771" lon="-69.90889803506434">
        <ele>3020.2</ele>
        <time>2020-12-05T18:44:58.000Z</time>
      </trkpt>
      <trkpt lat="-33.61115695908666" lon="-69.9088931735605">
        <ele>3020.6</ele>
        <time>2020-12-05T18:45:01.000Z</time>
      </trkpt>
      <trkpt lat="-33.61116978339851" lon="-69.90886551328003">
        <ele>3020.2</ele>
        <time>2020-12-05T18:45:04.000Z</time>
      </trkpt>
      <trkpt lat="-33.61124496906996" lon="-69.90877146832645">
        <ele>3018.2</ele>
        <time>2020-12-05T18:45:17.000Z</time>
      </trkpt>
      <trkpt lat="-33.611275060102344" lon="-69.90872989408672">
        <ele>3017.6</ele>
        <time>2020-12-05T18:45:27.000Z</time>
      </trkpt>
      <trkpt lat="-33.61130305565894" lon="-69.90872830152512">
        <ele>3018.2</ele>
        <time>2020-12-05T18:45:31.000Z</time>
      </trkpt>
      <trkpt lat="-33.61135804094374" lon="-69.90867004729807">
        <ele>3020.2</ele>
        <time>2020-12-05T18:45:39.000Z</time>
      </trkpt>
      <trkpt lat="-33.611366506665945" lon="-69.90866099484265">
        <ele>3020.4</ele>
        <time>2020-12-05T18:45:40.000Z</time>
      </trkpt>
      <trkpt lat="-33.611437417566776" lon="-69.90860257297754">
        <ele>3022.6</ele>
        <time>2020-12-05T18:45:49.000Z</time>
      </trkpt>
      <trkpt lat="-33.611472370103" lon="-69.90854892879725">
        <ele>3024</ele>
        <time>2020-12-05T18:45:57.000Z</time>
      </trkpt>
      <trkpt lat="-33.61147899180651" lon="-69.90853685885668">
        <ele>3024.2</ele>
        <time>2020-12-05T18:45:59.000Z</time>
      </trkpt>
      <trkpt lat="-33.611497431993484" lon="-69.90849059075117">
        <ele>3025.2</ele>
        <time>2020-12-05T18:46:07.000Z</time>
      </trkpt>
      <trkpt lat="-33.61149977892637" lon="-69.90848958492279">
        <ele>3025.2</ele>
        <time>2020-12-05T18:46:08.000Z</time>
      </trkpt>
      <trkpt lat="-33.611542442813516" lon="-69.90845404565334">
        <ele>3026.6</ele>
        <time>2020-12-05T18:46:15.000Z</time>
      </trkpt>
      <trkpt lat="-33.611569348722696" lon="-69.90844398736954">
        <ele>3027</ele>
        <time>2020-12-05T18:46:18.000Z</time>
      </trkpt>
      <trkpt lat="-33.61160798929632" lon="-69.90843267180026">
        <ele>3026.6</ele>
        <time>2020-12-05T18:46:23.000Z</time>
      </trkpt>
      <trkpt lat="-33.611622992902994" lon="-69.90842814557254">
        <ele>3026.2</ele>
        <time>2020-12-05T18:46:25.000Z</time>
      </trkpt>
      <trkpt lat="-33.611651323735714" lon="-69.90841012448072">
        <ele>3025.6</ele>
        <time>2020-12-05T18:46:29.000Z</time>
      </trkpt>
      <trkpt lat="-33.61168200150132" lon="-69.9083960428834">
        <ele>3025</ele>
        <time>2020-12-05T18:46:33.000Z</time>
      </trkpt>
      <trkpt lat="-33.611690886318684" lon="-69.90839134901762">
        <ele>3025</ele>
        <time>2020-12-05T18:46:34.000Z</time>
      </trkpt>
      <trkpt lat="-33.61173078417778" lon="-69.908342147246">
        <ele>3023.4</ele>
        <time>2020-12-05T18:46:40.000Z</time>
      </trkpt>
      <trkpt lat="-33.6117469612509" lon="-69.90831918083131">
        <ele>3022.8</ele>
        <time>2020-12-05T18:46:42.000Z</time>
      </trkpt>
      <trkpt lat="-33.61180077306926" lon="-69.90825120359659">
        <ele>3020.8</ele>
        <time>2020-12-05T18:46:51.000Z</time>
      </trkpt>
      <trkpt lat="-33.611866319552064" lon="-69.90816663019359">
        <ele>3018.8</ele>
        <time>2020-12-05T18:47:01.000Z</time>
      </trkpt>
      <trkpt lat="-33.611901523545384" lon="-69.90814156830311">
        <ele>3019</ele>
        <time>2020-12-05T18:47:05.000Z</time>
      </trkpt>
      <trkpt lat="-33.61191242001951" lon="-69.90813343785703">
        <ele>3019.2</ele>
        <time>2020-12-05T18:47:06.000Z</time>
      </trkpt>
      <trkpt lat="-33.61192314885557" lon="-69.90812639705837">
        <ele>3019.4</ele>
        <time>2020-12-05T18:47:09.000Z</time>
      </trkpt>
      <trkpt lat="-33.61197989434004" lon="-69.90809722803533">
        <ele>3020</ele>
        <time>2020-12-05T18:47:14.000Z</time>
      </trkpt>
      <trkpt lat="-33.612010488286614" lon="-69.90808775648475">
        <ele>3020.6</ele>
        <time>2020-12-05T18:47:17.000Z</time>
      </trkpt>
      <trkpt lat="-33.612070586532354" lon="-69.90806546062231">
        <ele>3020.2</ele>
        <time>2020-12-05T18:47:24.000Z</time>
      </trkpt>
      <trkpt lat="-33.61210059374571" lon="-69.90805322304368">
        <ele>3019.6</ele>
        <time>2020-12-05T18:47:26.000Z</time>
      </trkpt>
      <trkpt lat="-33.612149292603135" lon="-69.90804249420762">
        <ele>3019.2</ele>
        <time>2020-12-05T18:47:32.000Z</time>
      </trkpt>
      <trkpt lat="-33.61217821016908" lon="-69.90803620778024">
        <ele>3018.8</ele>
        <time>2020-12-05T18:47:36.000Z</time>
      </trkpt>
      <trkpt lat="-33.61226135864854" lon="-69.9079967290163">
        <ele>3016.8</ele>
        <time>2020-12-05T18:47:46.000Z</time>
      </trkpt>
      <trkpt lat="-33.61233486793935" lon="-69.90792791359127">
        <ele>3013.4</ele>
        <time>2020-12-05T18:47:59.000Z</time>
      </trkpt>
      <trkpt lat="-33.61240561120212" lon="-69.90788449533284">
        <ele>3012</ele>
        <time>2020-12-05T18:48:07.000Z</time>
      </trkpt>
      <trkpt lat="-33.61243913881481" lon="-69.90786840207875">
        <ele>3012.2</ele>
        <time>2020-12-05T18:48:11.000Z</time>
      </trkpt>
      <trkpt lat="-33.61246235668659" lon="-69.90784669294953">
        <ele>3012.4</ele>
        <time>2020-12-05T18:48:15.000Z</time>
      </trkpt>
      <trkpt lat="-33.61246914602816" lon="-69.90783889777958">
        <ele>3012.4</ele>
        <time>2020-12-05T18:48:17.000Z</time>
      </trkpt>
      <trkpt lat="-33.612477192655206" lon="-69.90783202461898">
        <ele>3012.4</ele>
        <time>2020-12-05T18:48:21.000Z</time>
      </trkpt>
      <trkpt lat="-33.61248658038676" lon="-69.90782749839127">
        <ele>3012.4</ele>
        <time>2020-12-05T18:48:23.000Z</time>
      </trkpt>
      <trkpt lat="-33.61249110661447" lon="-69.90782330743968">
        <ele>3012.4</ele>
        <time>2020-12-05T18:48:24.000Z</time>
      </trkpt>
      <trkpt lat="-33.612548438832164" lon="-69.90776957944036">
        <ele>3012.8</ele>
        <time>2020-12-05T18:48:36.000Z</time>
      </trkpt>
      <trkpt lat="-33.61257274635136" lon="-69.90772473625839">
        <ele>3012.2</ele>
        <time>2020-12-05T18:48:43.000Z</time>
      </trkpt>
      <trkpt lat="-33.612631587311625" lon="-69.90769548341632">
        <ele>3011.4</ele>
        <time>2020-12-05T18:48:50.000Z</time>
      </trkpt>
      <trkpt lat="-33.61273627728224" lon="-69.90764703601599">
        <ele>3011.2</ele>
        <time>2020-12-05T18:49:01.000Z</time>
      </trkpt>
      <trkpt lat="-33.61275346018374" lon="-69.9076396599412">
        <ele>3011.4</ele>
        <time>2020-12-05T18:49:04.000Z</time>
      </trkpt>
      <trkpt lat="-33.61278019845486" lon="-69.90762096829712">
        <ele>3011.6</ele>
        <time>2020-12-05T18:49:09.000Z</time>
      </trkpt>
      <trkpt lat="-33.612787490710616" lon="-69.90761543624103">
        <ele>3011.8</ele>
        <time>2020-12-05T18:49:10.000Z</time>
      </trkpt>
      <trkpt lat="-33.61285161226988" lon="-69.9075772985816">
        <ele>3012.4</ele>
        <time>2020-12-05T18:49:17.000Z</time>
      </trkpt>
      <trkpt lat="-33.61292939633131" lon="-69.90754016675055">
        <ele>3013.4</ele>
        <time>2020-12-05T18:49:26.000Z</time>
      </trkpt>
      <trkpt lat="-33.61294557340443" lon="-69.90753488615155">
        <ele>3013.6</ele>
        <time>2020-12-05T18:49:28.000Z</time>
      </trkpt>
      <trkpt lat="-33.612987315282226" lon="-69.90752382203937">
        <ele>3014</ele>
        <time>2020-12-05T18:49:32.000Z</time>
      </trkpt>
      <trkpt lat="-33.61299402080476" lon="-69.90752088837326">
        <ele>3014.2</ele>
        <time>2020-12-05T18:49:33.000Z</time>
      </trkpt>
      <trkpt lat="-33.613053280860186" lon="-69.90749658085406">
        <ele>3014.8</ele>
        <time>2020-12-05T18:49:41.000Z</time>
      </trkpt>
      <trkpt lat="-33.61312419176102" lon="-69.90747076459229">
        <ele>3015.2</ele>
        <time>2020-12-05T18:49:49.000Z</time>
      </trkpt>
      <trkpt lat="-33.61314045265317" lon="-69.90745894610882">
        <ele>3015</ele>
        <time>2020-12-05T18:49:51.000Z</time>
      </trkpt>
      <trkpt lat="-33.61317615956068" lon="-69.90742340683937">
        <ele>3014.2</ele>
        <time>2020-12-05T18:49:56.000Z</time>
      </trkpt>
      <trkpt lat="-33.613220416009426" lon="-69.9073872808367">
        <ele>3013.6</ele>
        <time>2020-12-05T18:50:01.000Z</time>
      </trkpt>
      <trkpt lat="-33.61328663304448" lon="-69.9073613807559">
        <ele>3013</ele>
        <time>2020-12-05T18:50:10.000Z</time>
      </trkpt>
      <trkpt lat="-33.61330892890692" lon="-69.90736280567944">
        <ele>3013</ele>
        <time>2020-12-05T18:50:14.000Z</time>
      </trkpt>
      <trkpt lat="-33.61330725252628" lon="-69.90735492669046">
        <ele>3012.8</ele>
        <time>2020-12-05T18:50:16.000Z</time>
      </trkpt>
      <trkpt lat="-33.613312197849154" lon="-69.90734411403537">
        <ele>3012.6</ele>
        <time>2020-12-05T18:50:19.000Z</time>
      </trkpt>
      <trkpt lat="-33.61333868466318" lon="-69.90732818841934">
        <ele>3012.4</ele>
        <time>2020-12-05T18:50:23.000Z</time>
      </trkpt>
      <trkpt lat="-33.613414289429784" lon="-69.90727052092552">
        <ele>3011.2</ele>
        <time>2020-12-05T18:50:32.000Z</time>
      </trkpt>
      <trkpt lat="-33.61349048092961" lon="-69.9072765558958">
        <ele>3011.2</ele>
        <time>2020-12-05T18:50:41.000Z</time>
      </trkpt>
      <trkpt lat="-33.61357136629522" lon="-69.90725023671985">
        <ele>3010.6</ele>
        <time>2020-12-05T18:50:49.000Z</time>
      </trkpt>
      <trkpt lat="-33.61365401186049" lon="-69.90722877904773">
        <ele>3010.2</ele>
        <time>2020-12-05T18:50:58.000Z</time>
      </trkpt>
      <trkpt lat="-33.613716289401054" lon="-69.90721402689815">
        <ele>3009.8</ele>
        <time>2020-12-05T18:51:05.000Z</time>
      </trkpt>
      <trkpt lat="-33.61373816616833" lon="-69.9072059802711">
        <ele>3009.6</ele>
        <time>2020-12-05T18:51:09.000Z</time>
      </trkpt>
      <trkpt lat="-33.61385283060372" lon="-69.90719349123538">
        <ele>3009.2</ele>
        <time>2020-12-05T18:51:20.000Z</time>
      </trkpt>
      <trkpt lat="-33.61386406235397" lon="-69.90719298832119">
        <ele>3009.2</ele>
        <time>2020-12-05T18:51:21.000Z</time>
      </trkpt>
      <trkpt lat="-33.613913264125586" lon="-69.90718963555992">
        <ele>3009</ele>
        <time>2020-12-05T18:51:26.000Z</time>
      </trkpt>
      <trkpt lat="-33.61392868682742" lon="-69.90719391033053">
        <ele>3009</ele>
        <time>2020-12-05T18:51:28.000Z</time>
      </trkpt>
      <trkpt lat="-33.614002699032426" lon="-69.90717756561935">
        <ele>3008.6</ele>
        <time>2020-12-05T18:51:37.000Z</time>
      </trkpt>
      <trkpt lat="-33.614008566364646" lon="-69.90717387758195">
        <ele>3008.6</ele>
        <time>2020-12-05T18:51:38.000Z</time>
      </trkpt>
      <trkpt lat="-33.61401745118201" lon="-69.90716759115458">
        <ele>3008.4</ele>
        <time>2020-12-05T18:51:40.000Z</time>
      </trkpt>
      <trkpt lat="-33.61405022442341" lon="-69.90714579820633">
        <ele>3008</ele>
        <time>2020-12-05T18:51:45.000Z</time>
      </trkpt>
      <trkpt lat="-33.61410353332758" lon="-69.90713573992252">
        <ele>3007.6</ele>
        <time>2020-12-05T18:51:53.000Z</time>
      </trkpt>
      <trkpt lat="-33.61419623717666" lon="-69.90713691338897">
        <ele>3007.6</ele>
        <time>2020-12-05T18:52:02.000Z</time>
      </trkpt>
      <trkpt lat="-33.614256251603365" lon="-69.90711931139231">
        <ele>3007.2</ele>
        <time>2020-12-05T18:52:09.000Z</time>
      </trkpt>
      <trkpt lat="-33.61431207507849" lon="-69.90712392143905">
        <ele>3007.2</ele>
        <time>2020-12-05T18:52:16.000Z</time>
      </trkpt>
      <trkpt lat="-33.614328587427735" lon="-69.90712869912386">
        <ele>3007.2</ele>
        <time>2020-12-05T18:52:18.000Z</time>
      </trkpt>
      <trkpt lat="-33.614389691501856" lon="-69.90712618455291">
        <ele>3006.8</ele>
        <time>2020-12-05T18:52:25.000Z</time>
      </trkpt>
      <trkpt lat="-33.614399414509535" lon="-69.90712710656226">
        <ele>3006.8</ele>
        <time>2020-12-05T18:52:26.000Z</time>
      </trkpt>
      <trkpt lat="-33.61450427211821" lon="-69.9071488995105">
        <ele>3006.4</ele>
        <time>2020-12-05T18:52:39.000Z</time>
      </trkpt>
      <trkpt lat="-33.614607034251094" lon="-69.90717278793454">
        <ele>3006</ele>
        <time>2020-12-05T18:52:50.000Z</time>
      </trkpt>
      <trkpt lat="-33.61466587521136" lon="-69.90715702995658">
        <ele>3005.2</ele>
        <time>2020-12-05T18:52:57.000Z</time>
      </trkpt>
      <trkpt lat="-33.614700408652425" lon="-69.90714244544506">
        <ele>3004.6</ele>
        <time>2020-12-05T18:53:01.000Z</time>
      </trkpt>
      <trkpt lat="-33.61471675336361" lon="-69.9071354046464">
        <ele>3004.4</ele>
        <time>2020-12-05T18:53:03.000Z</time>
      </trkpt>
      <trkpt lat="-33.61477492377162" lon="-69.90711780264974">
        <ele>3003.4</ele>
        <time>2020-12-05T18:53:09.000Z</time>
      </trkpt>
      <trkpt lat="-33.61484826542437" lon="-69.9071250949055">
        <ele>3003</ele>
        <time>2020-12-05T18:53:16.000Z</time>
      </trkpt>
      <trkpt lat="-33.61487257294357" lon="-69.90714445710182">
        <ele>3003.2</ele>
        <time>2020-12-05T18:53:19.000Z</time>
      </trkpt>
      <trkpt lat="-33.614943819120526" lon="-69.90718988701701">
        <ele>3003.6</ele>
        <time>2020-12-05T18:53:27.000Z</time>
      </trkpt>
      <trkpt lat="-33.61495320685208" lon="-69.90719826892018">
        <ele>3003.6</ele>
        <time>2020-12-05T18:53:28.000Z</time>
      </trkpt>
      <trkpt lat="-33.6150558013469" lon="-69.90724612958729">
        <ele>3003.8</ele>
        <time>2020-12-05T18:53:39.000Z</time>
      </trkpt>
      <trkpt lat="-33.61516183242202" lon="-69.90728133358061">
        <ele>3003.6</ele>
        <time>2020-12-05T18:53:50.000Z</time>
      </trkpt>
      <trkpt lat="-33.61517272889614" lon="-69.90728418342769">
        <ele>3003.6</ele>
        <time>2020-12-05T18:53:52.000Z</time>
      </trkpt>
      <trkpt lat="-33.615278424695134" lon="-69.90728887729347">
        <ele>3002.6</ele>
        <time>2020-12-05T18:54:00.000Z</time>
      </trkpt>
      <trkpt lat="-33.61536526121199" lon="-69.90728820674121">
        <ele>3001.6</ele>
        <time>2020-12-05T18:54:07.000Z</time>
      </trkpt>
      <trkpt lat="-33.615375738590956" lon="-69.90728644654155">
        <ele>3001.4</ele>
        <time>2020-12-05T18:54:08.000Z</time>
      </trkpt>
      <trkpt lat="-33.61545008607209" lon="-69.90729700773954">
        <ele>3001</ele>
        <time>2020-12-05T18:54:15.000Z</time>
      </trkpt>
      <trkpt lat="-33.61552434973419" lon="-69.90735174156725">
        <ele>3001.6</ele>
        <time>2020-12-05T18:54:23.000Z</time>
      </trkpt>
      <trkpt lat="-33.61561043187976" lon="-69.90745844319463">
        <ele>3002.6</ele>
        <time>2020-12-05T18:54:36.000Z</time>
      </trkpt>
      <trkpt lat="-33.61565795727074" lon="-69.90751049481332">
        <ele>3003.2</ele>
        <time>2020-12-05T18:54:43.000Z</time>
      </trkpt>
      <trkpt lat="-33.615680085495114" lon="-69.90752088837326">
        <ele>3003.2</ele>
        <time>2020-12-05T18:54:45.000Z</time>
      </trkpt>
      <trkpt lat="-33.61570338718593" lon="-69.90752449259162">
        <ele>3003.2</ele>
        <time>2020-12-05T18:54:50.000Z</time>
      </trkpt>
      <trkpt lat="-33.615713277831674" lon="-69.90752876736224">
        <ele>3003.2</ele>
        <time>2020-12-05T18:54:52.000Z</time>
      </trkpt>
      <trkpt lat="-33.61571931280196" lon="-69.90753153339028">
        <ele>3003.2</ele>
        <time>2020-12-05T18:54:53.000Z</time>
      </trkpt>
      <trkpt lat="-33.61576750874519" lon="-69.90755860693753">
        <ele>3003.4</ele>
        <time>2020-12-05T18:54:59.000Z</time>
      </trkpt>
      <trkpt lat="-33.61586490646005" lon="-69.90763639099896">
        <ele>3004</ele>
        <time>2020-12-05T18:55:08.000Z</time>
      </trkpt>
      <trkpt lat="-33.61588250845671" lon="-69.90765583701432">
        <ele>3004.2</ele>
        <time>2020-12-05T18:55:10.000Z</time>
      </trkpt>
      <trkpt lat="-33.61591201275587" lon="-69.90769615396857">
        <ele>3004.6</ele>
        <time>2020-12-05T18:55:14.000Z</time>
      </trkpt>
      <trkpt lat="-33.61597403883934" lon="-69.90778047591448">
        <ele>3005.6</ele>
        <time>2020-12-05T18:55:22.000Z</time>
      </trkpt>
      <trkpt lat="-33.61605769023299" lon="-69.9078674800694">
        <ele>3006</ele>
        <time>2020-12-05T18:55:32.000Z</time>
      </trkpt>
      <trkpt lat="-33.61610261723399" lon="-69.90797217004001">
        <ele>3005.6</ele>
        <time>2020-12-05T18:55:42.000Z</time>
      </trkpt>
      <trkpt lat="-33.61612248234451" lon="-69.90801005624235">
        <ele>3005.4</ele>
        <time>2020-12-05T18:55:45.000Z</time>
      </trkpt>
      <trkpt lat="-33.616155590862036" lon="-69.90805950947106">
        <ele>3004.8</ele>
        <time>2020-12-05T18:55:51.000Z</time>
      </trkpt>
      <trkpt lat="-33.61618710681796" lon="-69.90815598517656">
        <ele>3005</ele>
        <time>2020-12-05T18:56:00.000Z</time>
      </trkpt>
      <trkpt lat="-33.61619163304567" lon="-69.90816738456488">
        <ele>3004.8</ele>
        <time>2020-12-05T18:56:01.000Z</time>
      </trkpt>
      <trkpt lat="-33.616216694936156" lon="-69.90821532905102">
        <ele>3004.6</ele>
        <time>2020-12-05T18:56:06.000Z</time>
      </trkpt>
      <trkpt lat="-33.616242595016956" lon="-69.90826562047005">
        <ele>3004.4</ele>
        <time>2020-12-05T18:56:11.000Z</time>
      </trkpt>
      <trkpt lat="-33.61630252562463" lon="-69.90832974202931">
        <ele>3003.4</ele>
        <time>2020-12-05T18:56:21.000Z</time>
      </trkpt>
      <trkpt lat="-33.61638139933348" lon="-69.90836167708039">
        <ele>3001.8</ele>
        <time>2020-12-05T18:56:33.000Z</time>
      </trkpt>
      <trkpt lat="-33.616416016593575" lon="-69.90836754441261">
        <ele>3001</ele>
        <time>2020-12-05T18:56:37.000Z</time>
      </trkpt>
      <trkpt lat="-33.616416016593575" lon="-69.90836754441261">
        <ele>3001</ele>
        <time>2020-12-05T18:56:38.000Z</time>
      </trkpt>
      <trkpt lat="-33.61645792610943" lon="-69.90838347002864">
        <ele>3000</ele>
        <time>2020-12-05T18:56:42.000Z</time>
      </trkpt>
      <trkpt lat="-33.6164768692106" lon="-69.90839277394116">
        <ele>2999.6</ele>
        <time>2020-12-05T18:56:44.000Z</time>
      </trkpt>
      <trkpt lat="-33.616499500349164" lon="-69.90841012448072">
        <ele>2999.2</ele>
        <time>2020-12-05T18:56:47.000Z</time>
      </trkpt>
      <trkpt lat="-33.61652045510709" lon="-69.9084237869829">
        <ele>2998.8</ele>
        <time>2020-12-05T18:56:51.000Z</time>
      </trkpt>
      <trkpt lat="-33.6165458522737" lon="-69.90844205953181">
        <ele>2998.2</ele>
        <time>2020-12-05T18:56:55.000Z</time>
      </trkpt>
      <trkpt lat="-33.616564041003585" lon="-69.9084544647485">
        <ele>2998</ele>
        <time>2020-12-05T18:56:57.000Z</time>
      </trkpt>
      <trkpt lat="-33.61659052781761" lon="-69.9084753356874">
        <ele>2997.4</ele>
        <time>2020-12-05T18:57:01.000Z</time>
      </trkpt>
      <trkpt lat="-33.6166409868747" lon="-69.90850727073848">
        <ele>2996.6</ele>
        <time>2020-12-05T18:57:08.000Z</time>
      </trkpt>
      <trkpt lat="-33.61664693802595" lon="-69.90851070731878">
        <ele>2996.6</ele>
        <time>2020-12-05T18:57:09.000Z</time>
      </trkpt>
      <trkpt lat="-33.61670552752912" lon="-69.90854993462563">
        <ele>2995.6</ele>
        <time>2020-12-05T18:57:18.000Z</time>
      </trkpt>
      <trkpt lat="-33.61681482754648" lon="-69.90858706645668">
        <ele>2994.2</ele>
        <time>2020-12-05T18:57:32.000Z</time>
      </trkpt>
      <trkpt lat="-33.61687760800123" lon="-69.9086307361722">
        <ele>2993</ele>
        <time>2020-12-05T18:57:41.000Z</time>
      </trkpt>
      <trkpt lat="-33.61693376675248" lon="-69.90869175642729">
        <ele>2991.4</ele>
        <time>2020-12-05T18:57:51.000Z</time>
      </trkpt>
      <trkpt lat="-33.616980873048306" lon="-69.90874296985567">
        <ele>2990</ele>
        <time>2020-12-05T18:57:57.000Z</time>
      </trkpt>
      <trkpt lat="-33.617006773129106" lon="-69.90876836702228">
        <ele>2989.4</ele>
        <time>2020-12-05T18:58:02.000Z</time>
      </trkpt>
      <trkpt lat="-33.61702940426767" lon="-69.90879686549306">
        <ele>2988.8</ele>
        <time>2020-12-05T18:58:08.000Z</time>
      </trkpt>
      <trkpt lat="-33.617032673209906" lon="-69.90880575031042">
        <ele>2988.6</ele>
        <time>2020-12-05T18:58:11.000Z</time>
      </trkpt>
      <trkpt lat="-33.61703686416149" lon="-69.90880776196718">
        <ele>2988.6</ele>
        <time>2020-12-05T18:58:17.000Z</time>
      </trkpt>
      <trkpt lat="-33.617057567462325" lon="-69.90884103812277">
        <ele>2988</ele>
        <time>2020-12-05T18:58:26.000Z</time>
      </trkpt>
      <trkpt lat="-33.617073660716414" lon="-69.90886861458421">
        <ele>2987.4</ele>
        <time>2020-12-05T18:58:33.000Z</time>
      </trkpt>
      <trkpt lat="-33.617080533877015" lon="-69.90888831205666">
        <ele>2987.2</ele>
        <time>2020-12-05T18:58:37.000Z</time>
      </trkpt>
      <trkpt lat="-33.617084892466664" lon="-69.90889409556985">
        <ele>2987.2</ele>
        <time>2020-12-05T18:58:43.000Z</time>
      </trkpt>
      <trkpt lat="-33.617084892466664" lon="-69.90889409556985">
        <ele>2987.2</ele>
        <time>2020-12-05T18:58:44.000Z</time>
      </trkpt>
      <trkpt lat="-33.61708221025765" lon="-69.90889778360724">
        <ele>2987.2</ele>
        <time>2020-12-05T18:58:45.000Z</time>
      </trkpt>
      <trkpt lat="-33.61708522774279" lon="-69.90890105254948">
        <ele>2987</ele>
        <time>2020-12-05T18:59:06.000Z</time>
      </trkpt>
      <trkpt lat="-33.6170847248286" lon="-69.90896282717586">
        <ele>2986.8</ele>
        <time>2020-12-05T18:59:36.000Z</time>
      </trkpt>
      <trkpt lat="-33.61707382835448" lon="-69.90897070616484">
        <ele>2987</ele>
        <time>2020-12-05T18:59:40.000Z</time>
      </trkpt>
      <trkpt lat="-33.61712856218219" lon="-69.90900767035782">
        <ele>2985.8</ele>
        <time>2020-12-05T18:59:50.000Z</time>
      </trkpt>
      <trkpt lat="-33.617172818630934" lon="-69.90904413163662">
        <ele>2984.6</ele>
        <time>2020-12-05T18:59:56.000Z</time>
      </trkpt>
      <trkpt lat="-33.617186062037945" lon="-69.90907539613545">
        <ele>2984.2</ele>
        <time>2020-12-05T19:00:01.000Z</time>
      </trkpt>
      <trkpt lat="-33.61718581058085" lon="-69.90907724015415">
        <ele>2984.2</ele>
        <time>2020-12-05T19:00:02.000Z</time>
      </trkpt>
    </trkseg>
  </trk>
</gpx>
